GFSSW_sfc_thetae_000.txt.gz
Theta_e
317 318 319 319 320 320 320 321 322 324 324 325 325 325 325 325 323 313 308 314 318 330 335 325 323 318 315 311 307 302 295 291 293 292 294 299 301 304 305 303 304 304 305 310 316
317 317 317 317 318 319 320 320 321 322 323 323 323 323 324 322 311 308 317 324 326 329 323 317 315 313 307 308 304 300 294 296 299 296 296 301 301 303 302 301 301 302 310 315 315
316 316 316 317 317 318 319 320 320 320 321 322 322 322 322 318 305 303 323 326 326 326 323 323 316 312 305 303 302 300 296 300 302 302 301 302 303 303 300 299 302 303 305 309 313
315 316 316 316 317 317 317 318 319 319 319 320 320 321 321 311 292 310 322 324 327 321 320 322 316 306 304 301 304 298 302 302 305 306 304 303 304 302 301 303 306 305 305 305 313
315 316 316 316 316 316 316 317 318 319 319 319 320 319 312 303 300 309 319 317 319 317 316 317 308 305 302 303 304 300 303 305 306 306 305 305 301 300 301 305 305 304 304 304 309
316 316 315 316 316 316 316 316 317 318 319 319 319 319 305 295 307 311 310 309 314 314 315 318 311 308 305 304 304 305 305 305 305 305 302 301 301 300 301 303 303 302 302 302 306
317 316 316 315 315 316 316 316 316 318 318 318 318 312 304 299 307 310 311 308 311 314 312 319 319 310 309 305 307 305 300 302 301 302 302 301 299 298 303 299 301 299 298 300 301
317 317 316 316 315 316 316 317 316 318 317 317 317 307 297 310 311 308 309 310 311 316 316 323 322 312 309 308 301 298 296 292 298 299 300 299 293 299 302 299 299 298 296 300 303
317 316 316 316 316 317 316 316 316 316 316 316 308 304 296 312 305 308 308 305 310 313 318 324 316 309 309 301 297 296 292 290 294 298 297 296 292 298 298 298 296 295 297 299 301
317 316 314 315 316 316 317 315 315 312 311 310 308 298 299 299 305 307 308 307 308 309 310 314 310 304 302 297 292 293 292 289 290 294 294 293 293 299 297 296 293 294 296 298 301
317 317 315 315 315 317 315 309 299 297 302 297 297 297 301 304 308 306 307 305 306 305 301 309 302 298 299 303 298 295 291 292 292 295 291 291 292 296 297 296 293 294 297 298 300
318 317 315 314 316 317 312 300 300 303 293 300 302 300 304 307 300 303 308 301 301 292 303 303 297 303 303 302 301 295 293 289 294 295 292 292 292 295 295 295 293 295 297 298 299
317 316 315 315 317 315 306 303 312 308 295 296 300 300 301 304 299 300 305 302 298 292 299 298 302 306 304 298 297 294 293 291 292 294 293 291 290 291 292 293 295 297 298 298 300
317 316 314 315 310 310 305 310 312 309 287 290 294 298 302 302 296 306 307 304 300 292 299 301 305 304 302 299 299 294 296 296 293 289 285 290 283 288 289 291 294 294 297 298 299
317 316 316 315 310 306 310 311 311 305 275 291 294 305 303 297 299 301 307 304 296 296 301 298 301 301 300 301 301 297 298 296 294 288 284 286 284 287 287 290 292 294 295 297 298
316 316 316 312 312 312 313 312 305 287 277 288 296 294 294 296 299 302 303 308 306 299 298 297 304 304 303 303 301 300 295 293 290 286 281 286 286 285 287 289 290 292 294 297 298
315 315 313 314 307 315 312 304 286 281 291 288 289 294 293 292 295 298 296 295 294 290 291 294 299 300 303 296 297 296 292 285 283 281 281 284 283 287 290 292 295 295 294 296 298
315 314 313 313 316 313 307 292 282 288 287 295 293 293 290 294 295 295 296 295 299 292 293 290 289 293 295 298 294 293 290 283 280 279 281 284 282 288 291 293 294 297 296 297 297
314 308 309 312 316 311 297 285 287 291 294 293 293 288 290 293 295 296 294 294 299 296 290 290 289 291 295 294 299 289 288 290 285 281 281 284 287 292 293 292 292 294 295 296 297
306 301 303 314 315 306 293 288 294 300 298 295 288 292 289 291 293 293 294 300 299 299 296 291 284 292 291 294 293 291 293 286 285 280 279 281 282 286 289 290 291 292 294 295 297
303 297 309 314 313 301 290 290 299 301 300 296 293 291 293 290 294 292 293 298 300 296 295 291 288 288 291 289 288 288 286 286 287 284 280 278 283 288 289 291 292 293 294 295 296
298 293 311 313 299 300 294 301 301 302 304 301 300 297 294 293 293 293 293 296 301 300 294 294 288 285 288 291 291 288 288 287 284 281 280 280 283 290 290 291 294 294 295 295 297
295 302 311 310 295 296 301 300 302 301 302 301 296 298 297 293 292 296 297 300 301 299 296 296 288 284 287 289 290 288 287 287 286 284 280 280 284 292 289 292 294 295 297 296 296
297 295 302 304 302 297 298 297 298 304 302 302 298 298 297 295 296 293 294 298 301 300 303 301 291 287 285 286 289 287 288 287 287 282 282 283 285 289 289 292 293 295 296 296 295
294 296 298 292 295 296 298 299 297 297 301 301 298 297 295 292 292 292 294 295 297 301 296 296 289 288 287 289 290 289 289 287 286 288 286 287 286 289 290 291 291 292 293 294 294
293 292 295 292 294 295 294 294 294 295 297 298 296 297 296 294 293 292 294 293 293 294 293 295 287 287 283 287 286 286 288 288 287 287 285 287 287 289 291 292 293 291 293 294 294
295 298 296 293 291 292 293 295 295 296 296 297 297 296 293 294 293 295 294 294 295 294 291 290 287 286 282 285 284 282 285 288 287 287 289 286 288 290 292 294 293 295 294 294 294

GFSSW_sfc_thetae_003.txt.gz
Theta_e
316 316 317 318 319 320 320 320 321 323 325 326 326 326 326 326 324 316 309 314 318 326 327 324 325 323 318 316 311 307 300 295 297 295 300 302 305 308 310 307 308 309 311 315 320
317 316 316 316 317 318 319 320 320 321 322 324 324 325 324 324 314 310 318 324 325 326 319 320 317 316 311 312 309 305 299 299 303 301 300 303 305 307 307 306 306 308 311 318 319
316 316 316 316 317 317 318 319 320 320 321 322 323 323 324 318 308 306 324 328 328 325 319 323 322 315 309 309 307 304 300 303 305 305 304 304 306 308 305 305 306 308 310 310 315
315 315 315 316 316 317 317 318 319 320 320 320 321 322 321 311 294 308 322 325 328 322 317 318 318 309 307 304 306 302 304 305 307 308 308 306 308 306 305 309 310 310 309 307 309
316 315 316 316 316 316 316 316 318 319 320 320 320 320 313 305 303 311 318 316 315 318 313 313 312 308 306 307 305 303 306 307 308 308 308 308 306 306 305 309 310 308 307 307 306
317 316 316 316 316 316 316 317 317 318 319 319 319 319 307 297 309 312 310 309 310 315 313 314 313 310 308 306 307 307 307 308 308 308 306 304 306 305 310 308 307 306 305 304 304
317 317 317 317 316 316 316 317 317 317 319 319 319 312 304 300 309 310 311 308 309 314 310 315 318 311 310 306 309 307 304 305 305 306 306 305 302 301 308 306 305 304 301 305 307
318 318 318 317 316 316 316 317 318 318 318 317 315 308 298 311 312 309 308 307 310 314 315 317 320 314 310 310 305 304 302 299 304 303 303 303 298 303 303 303 303 301 303 305 306
317 317 318 317 316 316 317 317 318 317 317 315 308 304 296 312 306 308 307 304 308 314 316 317 318 312 309 302 298 299 295 295 299 303 302 300 297 302 303 302 302 301 303 304 305
317 318 318 317 315 316 317 317 317 315 312 311 307 298 301 299 306 307 308 307 305 310 309 310 311 305 305 301 293 292 295 295 294 299 298 297 296 300 301 301 302 301 302 303 304
318 318 318 317 314 315 314 312 302 300 302 296 296 296 301 304 308 305 307 304 304 306 296 305 301 298 301 303 301 296 296 296 297 298 296 295 294 299 300 300 299 299 301 302 303
317 318 318 317 315 315 314 301 301 302 293 300 300 300 303 306 300 303 306 298 299 294 299 300 297 304 304 303 300 297 295 294 296 297 296 296 295 299 299 299 299 299 301 302 303
317 317 315 313 314 314 308 305 310 308 293 296 298 299 301 302 298 299 302 300 298 293 295 295 300 306 303 300 300 296 294 294 295 296 296 293 294 295 297 297 297 300 302 302 303
317 317 316 313 310 311 305 310 309 306 286 290 293 296 301 302 295 304 304 301 299 292 295 299 304 303 302 299 300 296 297 298 295 294 290 294 287 292 295 294 296 298 301 301 303
316 316 316 313 309 306 308 310 308 301 276 292 293 304 302 296 298 299 306 302 296 294 297 297 300 300 299 300 301 298 301 299 297 293 289 289 288 292 291 292 294 297 299 301 303
316 315 315 311 311 311 311 311 305 285 276 288 294 293 293 296 297 300 300 304 305 296 297 299 305 305 303 303 303 297 296 295 292 289 285 288 289 290 291 292 294 296 298 300 302
316 315 312 313 306 313 310 302 285 279 290 287 289 292 291 290 292 295 293 293 292 288 288 296 300 303 306 297 298 297 296 287 284 283 284 287 286 291 294 294 297 298 297 300 302
315 314 312 310 314 311 306 292 281 287 285 293 291 291 288 291 292 293 292 288 296 293 289 289 289 296 301 299 295 296 295 288 282 282 284 286 285 291 295 297 296 299 299 300 301
314 307 307 310 314 310 295 284 285 289 290 290 290 286 287 291 292 292 291 290 294 296 289 288 290 294 298 297 300 292 292 294 286 285 284 288 290 295 295 295 294 296 298 300 300
305 303 304 312 312 304 289 287 290 294 296 292 285 288 283 288 288 290 291 295 296 298 296 293 285 292 292 296 294 296 296 289 287 283 281 284 285 290 292 293 293 294 297 298 299
304 295 308 314 309 299 287 288 294 301 297 292 291 289 290 288 289 290 289 298 301 298 296 291 289 288 291 291 288 290 290 289 289 287 283 281 286 292 292 293 295 295 297 298 299
296 294 311 312 296 296 292 294 299 298 300 297 296 296 292 290 288 291 292 296 304 301 292 292 289 284 287 292 293 292 291 291 286 283 283 284 286 293 293 293 295 295 297 298 300
293 301 312 309 293 293 298 297 300 299 300 298 295 297 295 292 291 295 297 301 302 301 295 295 289 284 288 291 292 289 289 289 288 286 282 283 287 293 293 295 295 296 297 298 298
295 296 302 303 302 298 298 297 297 304 302 303 296 298 295 293 295 293 296 299 302 301 304 300 290 288 285 287 289 287 287 287 289 284 284 284 288 291 292 294 295 297 298 298 297
293 292 297 292 296 297 299 298 296 297 302 302 298 295 295 291 292 292 296 296 299 302 299 297 290 288 287 290 290 290 289 287 287 290 288 289 287 291 292 294 295 296 296 296 295
292 290 292 293 292 296 296 297 296 296 298 297 296 295 297 294 294 291 294 294 295 294 294 295 288 288 284 288 289 288 289 290 289 287 288 288 288 293 294 294 296 296 295 296 295
295 295 293 294 291 292 293 296 296 297 298 296 298 295 296 295 295 297 297 296 298 293 290 292 288 287 285 286 286 284 286 288 289 289 291 287 293 292 293 294 295 295 296 296 296

GFSSW_sfc_thetae_006.txt.gz
Theta_e
316 317 317 317 317 318 319 320 320 321 323 325 327 327 327 327 325 320 312 317 318 324 325 323 326 328 327 320 318 314 305 301 303 303 305 308 308 315 316 313 314 315 315 318 324
316 317 316 316 316 317 318 319 320 320 321 322 324 325 325 325 319 313 321 325 326 326 317 318 319 324 319 317 317 312 306 304 309 310 308 309 311 313 313 313 313 313 316 318 318
316 316 315 316 316 316 317 317 319 321 320 321 322 323 324 323 310 310 325 328 329 327 320 318 324 322 315 316 314 312 306 310 310 311 310 310 312 314 312 310 313 312 314 317 317
317 316 315 316 316 316 316 316 318 319 320 320 321 322 322 317 295 315 323 323 328 325 320 314 315 314 312 310 314 307 311 311 312 312 312 311 314 312 314 315 319 319 318 315 315
318 317 316 316 316 316 316 316 316 318 319 320 320 320 316 306 306 318 317 316 317 320 316 311 311 313 310 312 312 309 310 312 313 313 312 314 312 313 313 318 320 319 315 314 314
318 318 317 317 316 315 316 316 317 317 318 320 320 320 310 298 314 316 316 314 312 316 314 313 313 316 311 312 311 312 311 311 313 312 313 310 312 311 314 318 316 315 314 313 312
318 318 317 318 317 317 315 316 317 317 318 319 319 315 306 302 312 313 312 311 313 312 312 315 315 315 313 311 316 313 308 310 311 312 311 313 307 308 315 312 310 311 310 312 313
318 319 319 319 317 317 316 316 317 319 317 316 316 312 300 312 315 312 312 310 313 313 314 316 315 312 313 315 312 309 309 302 309 311 312 309 302 310 310 309 308 308 310 312 312
317 318 318 319 318 317 317 317 318 318 317 316 310 306 298 312 307 311 312 306 309 311 312 315 312 309 312 304 303 307 300 301 303 311 310 307 304 308 309 309 309 309 310 311 312
318 318 319 319 318 317 316 316 318 316 313 311 309 300 302 300 307 308 311 309 306 309 308 308 305 303 306 302 294 297 299 302 301 306 305 303 304 308 310 307 308 308 309 310 311
318 318 318 319 318 315 313 311 302 301 303 297 298 298 301 306 310 306 309 305 306 304 296 303 295 294 302 304 304 303 302 301 304 306 303 304 305 305 310 309 308 307 309 310 310
317 317 318 319 318 316 313 305 303 305 295 301 301 301 305 306 300 304 309 299 298 293 299 297 292 302 305 305 304 303 300 299 304 303 302 304 304 308 310 307 308 307 308 309 309
316 317 317 317 314 311 309 307 310 308 293 296 299 299 300 303 299 301 304 300 296 292 295 293 297 304 304 303 301 302 299 300 300 302 302 301 302 304 303 303 303 306 310 310 309
317 317 317 314 308 311 307 308 308 307 286 289 294 297 301 303 296 304 306 300 298 292 295 294 301 302 301 301 303 298 305 303 301 299 296 301 294 302 304 301 302 306 307 308 309
317 316 317 314 310 305 307 308 307 302 278 292 294 304 301 296 298 299 307 300 294 294 294 292 297 296 299 301 305 300 305 304 302 299 298 299 295 300 299 299 300 305 306 308 309
317 316 315 313 312 310 309 308 304 285 277 289 294 293 293 296 297 300 300 303 302 296 296 296 304 300 304 305 306 304 302 300 299 297 292 298 296 298 299 299 301 304 306 307 308
317 316 313 312 305 313 310 301 285 281 290 288 289 293 291 290 292 294 294 292 289 288 287 291 291 304 307 301 300 303 299 289 289 288 290 294 293 299 301 300 303 304 306 307 309
317 315 313 311 314 313 304 292 282 287 287 292 292 292 288 292 291 293 292 289 293 294 289 286 288 300 306 302 296 298 300 293 285 288 291 292 291 297 301 302 303 306 308 308 308
315 310 308 311 315 309 295 284 286 289 290 289 291 287 288 291 291 291 291 290 293 294 288 287 288 300 304 303 302 296 294 300 292 292 291 294 297 301 300 300 301 303 306 306 307
306 304 304 311 313 304 289 288 290 295 293 294 286 290 286 288 289 291 290 293 293 297 301 294 288 296 297 304 298 300 303 292 294 287 285 291 292 297 298 299 300 301 304 306 307
306 299 308 312 309 296 286 289 293 298 296 292 290 288 290 289 290 290 290 295 296 298 300 298 296 289 298 295 295 298 295 297 296 293 290 289 292 300 299 300 301 302 305 306 306
304 297 310 310 294 294 290 292 297 298 299 294 295 293 290 292 289 289 291 296 299 302 296 300 297 290 291 296 301 301 298 298 293 289 292 292 293 300 300 300 301 303 304 306 307
301 302 310 306 291 291 296 295 296 297 297 295 296 297 296 292 288 292 295 299 301 301 299 300 295 289 289 293 294 295 298 301 299 295 291 290 293 298 301 302 302 303 304 306 306
301 296 302 303 302 297 295 294 295 302 299 301 299 300 296 292 295 293 296 301 304 302 304 301 297 294 290 293 297 294 295 299 299 293 293 293 296 297 299 301 302 303 305 305 305
300 299 302 293 295 296 297 297 294 296 302 303 299 299 295 292 294 294 298 299 302 304 303 301 294 296 295 296 297 296 295 295 294 297 293 296 295 300 301 302 304 305 305 304 303
298 297 300 300 300 298 296 296 294 298 297 296 297 299 299 295 297 295 298 299 298 301 301 302 294 293 291 294 296 294 296 297 297 298 297 297 297 302 302 303 301 302 302 302 303
303 301 299 298 296 297 295 298 296 298 299 300 301 299 298 300 304 304 305 305 303 300 299 298 296 293 290 291 292 290 294 295 296 298 297 294 299 300 298 299 301 302 302 302 302

GFSSW_sfc_thetae_009.txt.gz
Theta_e
317 317 318 317 317 318 318 319 320 321 321 323 325 327 327 327 325 321 314 320 320 324 324 323 321 325 326 322 322 320 306 302 304 305 306 312 309 315 318 314 315 317 317 319 321
317 317 317 317 317 317 317 318 319 320 320 321 323 325 326 324 319 315 324 327 327 327 319 316 315 318 319 318 318 312 305 305 310 310 309 311 311 314 313 313 314 316 319 320 320
318 317 317 317 317 317 317 317 318 319 321 320 321 323 323 323 312 312 327 329 329 328 322 318 317 319 314 318 315 313 305 310 311 312 313 311 311 315 313 311 315 314 317 320 320
318 318 317 316 317 317 317 317 316 318 319 320 320 321 323 317 297 316 323 322 327 326 321 316 312 311 311 309 315 308 312 312 312 313 312 310 313 312 314 315 319 320 321 320 318
318 319 318 317 317 317 317 316 316 316 318 319 320 320 317 307 306 319 318 316 318 321 316 314 308 308 307 311 311 309 311 312 313 313 313 314 311 311 313 318 320 320 320 320 318
318 318 318 318 318 317 317 316 317 316 316 318 320 320 311 298 315 318 318 316 314 316 315 316 310 311 308 308 309 312 312 312 313 312 313 310 311 312 314 319 318 317 316 317 317
318 318 319 318 318 318 317 316 317 316 316 317 318 316 307 303 313 316 315 313 314 313 312 316 315 310 311 307 311 311 307 310 310 312 310 313 308 308 315 317 311 311 313 314 315
318 318 319 319 319 318 318 317 317 317 316 316 316 313 302 313 316 312 313 311 313 313 312 315 316 310 308 313 308 305 307 300 308 311 311 311 302 310 315 312 310 310 312 314 314
319 318 318 320 320 319 318 317 317 318 317 316 311 308 299 314 307 311 312 307 309 311 312 313 312 307 308 302 300 303 298 300 304 311 309 309 304 310 314 310 310 311 312 313 314
320 319 319 319 319 319 318 315 316 317 315 313 310 301 304 301 307 309 312 310 305 306 305 305 305 300 301 298 291 297 298 300 301 307 308 306 305 310 312 311 310 311 312 312 313
320 319 318 318 318 318 313 311 304 301 304 299 300 300 302 307 310 307 309 307 305 302 296 301 295 292 297 301 301 302 301 301 304 307 307 305 305 307 310 311 311 310 311 312 312
319 318 318 318 318 318 313 303 304 305 296 303 303 303 305 307 300 304 309 300 298 294 297 295 291 298 301 301 301 301 300 301 304 306 305 304 303 308 310 311 313 310 310 311 311
318 317 317 317 315 315 309 305 310 309 295 296 301 300 301 303 298 301 305 301 296 293 293 291 295 300 298 296 299 301 300 300 300 304 305 303 302 305 310 311 309 310 312 312 311
318 317 316 316 308 310 306 312 310 309 286 290 294 298 300 301 295 304 307 302 296 292 294 293 297 297 297 295 299 297 304 303 301 300 295 304 293 302 306 303 304 307 310 311 311
317 317 317 315 311 307 307 309 308 303 279 294 294 304 301 295 298 298 306 302 293 293 292 289 293 294 294 297 301 299 306 303 302 301 300 299 296 301 306 302 304 306 309 310 311
317 317 316 314 312 311 309 308 304 285 279 289 294 292 293 295 296 299 299 303 301 294 295 292 300 299 298 302 304 306 303 302 302 299 291 298 297 298 301 303 305 306 308 309 310
318 317 314 312 305 312 308 302 285 281 291 288 288 292 292 291 293 295 294 292 289 284 286 290 290 296 301 296 301 303 297 291 288 289 289 299 297 300 301 303 305 305 307 309 310
318 316 313 310 315 311 304 291 281 288 287 292 291 291 287 291 292 293 291 289 293 290 287 286 284 292 297 299 296 298 298 292 285 286 291 296 292 298 304 305 307 308 309 309 309
316 313 309 310 314 309 296 284 286 290 292 290 292 287 287 290 290 290 291 291 292 292 287 286 288 297 299 304 302 296 296 300 295 296 293 294 299 301 303 303 304 306 308 308 309
307 304 304 313 313 304 291 287 290 295 293 292 287 290 286 288 289 289 290 294 293 294 295 291 286 293 299 303 301 300 304 294 296 287 287 293 295 296 299 301 303 303 306 308 309
305 299 310 312 310 297 286 288 293 297 295 292 291 289 290 289 290 289 290 294 295 295 295 294 289 288 295 297 295 297 296 299 299 296 291 289 293 303 301 302 303 304 307 308 309
304 295 309 310 293 293 289 291 296 295 297 297 295 293 292 292 290 291 291 293 297 297 292 297 292 286 291 297 303 302 299 300 294 291 294 293 293 303 303 303 304 305 306 309 309
300 302 309 306 289 289 293 293 294 294 296 296 294 295 295 292 289 293 294 299 299 296 297 300 293 288 289 294 298 296 300 302 301 299 294 291 294 303 304 304 305 305 306 308 309
301 296 299 301 300 296 291 292 292 298 298 298 296 297 295 293 295 292 294 299 302 299 303 303 296 294 291 294 297 295 297 300 298 294 294 295 296 299 302 303 304 305 307 308 308
300 298 300 291 293 295 296 296 292 293 299 298 298 297 294 290 292 293 295 299 300 302 301 301 295 297 297 298 299 298 297 298 297 298 295 297 297 301 302 304 305 306 306 306 306
298 297 302 300 298 297 295 294 293 294 298 296 296 299 298 294 293 291 296 298 297 301 299 301 295 296 294 297 298 296 298 299 299 299 299 299 299 306 306 307 305 306 306 305 305
304 306 301 300 301 297 297 296 296 297 300 302 300 299 298 298 302 305 303 304 303 300 300 297 297 294 290 295 295 291 296 297 298 300 300 296 301 306 301 302 304 305 305 305 306

GFSSW_sfc_thetae_012.txt.gz
Theta_e
317 318 318 319 318 318 319 320 321 321 321 323 324 325 327 327 326 321 313 320 323 326 326 318 319 318 322 320 321 319 304 299 301 302 305 309 306 311 314 310 311 313 310 314 317
318 318 318 318 318 318 318 318 319 321 321 321 321 323 325 324 318 314 324 329 329 326 318 313 311 314 311 316 316 310 303 302 307 307 306 309 308 309 310 310 309 311 315 315 315
318 318 318 318 317 318 317 318 318 319 321 321 320 321 323 323 311 311 328 330 331 327 321 318 315 312 310 313 313 311 304 308 308 310 310 309 308 311 308 307 310 310 313 315 315
319 318 318 318 317 317 317 317 318 318 319 320 320 321 323 317 296 316 324 323 327 325 320 316 311 306 308 306 312 306 310 310 311 312 311 307 310 308 308 309 315 315 316 316 315
319 319 319 318 317 317 317 317 317 317 318 319 320 320 315 305 305 318 319 318 318 319 316 313 309 305 303 307 309 307 310 311 311 311 311 311 308 308 308 312 315 316 316 315 314
320 319 319 319 318 318 317 316 317 317 317 318 319 320 310 298 313 315 317 316 315 314 314 314 310 310 304 305 306 310 310 311 311 310 310 308 308 308 310 313 313 315 313 311 312
321 320 320 319 318 318 318 317 316 317 317 318 318 316 306 302 313 314 316 314 314 312 308 314 314 310 307 302 309 308 303 308 309 310 309 310 304 305 311 312 311 312 307 309 311
321 320 320 320 319 319 319 318 317 317 317 317 317 312 301 314 315 312 312 310 312 311 310 312 313 310 307 308 306 304 303 296 306 309 309 306 298 307 312 310 309 306 303 309 310
321 321 319 320 320 320 319 317 317 317 318 316 311 307 298 315 308 311 312 306 308 309 310 310 309 305 305 299 296 300 294 296 300 309 307 305 300 307 311 308 306 303 305 308 309
322 321 320 319 319 319 319 315 314 314 315 314 310 300 304 301 307 309 311 310 305 305 303 303 302 298 299 296 287 291 294 296 297 304 306 303 302 306 309 307 304 304 304 306 308
322 321 319 319 318 318 315 311 304 301 305 298 300 299 302 307 310 306 309 306 304 301 294 299 294 290 294 296 297 297 296 297 300 306 303 302 302 305 307 307 305 305 303 306 306
321 320 319 318 318 317 314 303 304 305 296 304 303 303 306 307 299 303 308 299 298 292 295 294 289 295 298 298 296 296 295 296 301 305 303 302 301 306 305 306 307 306 304 305 306
320 319 318 317 317 314 308 306 312 309 295 298 302 300 302 304 298 300 304 300 295 292 292 289 292 297 295 294 294 294 294 296 297 302 303 300 297 300 304 306 307 308 306 307 306
319 318 317 316 308 309 307 313 313 309 287 290 294 299 302 301 295 304 306 301 296 291 292 292 296 294 293 292 294 290 299 299 299 298 292 299 286 297 301 303 305 302 303 306 305
318 318 317 315 311 306 309 311 310 304 278 292 294 305 302 296 297 297 305 301 293 292 293 289 291 291 290 293 296 293 300 298 300 298 294 296 291 295 300 300 299 299 302 305 305
318 317 316 313 311 310 311 309 305 286 277 289 294 293 293 295 295 298 298 302 300 294 294 292 297 295 293 296 296 299 296 297 300 297 290 295 293 292 296 298 299 300 303 305 305
318 317 314 313 305 311 309 302 285 281 292 288 289 292 291 291 291 292 292 291 288 284 284 290 290 294 295 293 296 297 293 288 286 287 286 296 293 294 296 300 302 301 303 304 305
318 317 314 310 311 309 305 291 280 288 288 292 291 291 288 291 291 291 290 287 292 290 286 283 281 290 293 293 292 294 293 286 282 284 286 295 289 293 299 301 303 304 304 305 304
317 314 309 309 311 308 297 283 285 289 293 290 290 287 286 290 291 289 289 288 291 292 284 285 284 294 297 295 298 292 286 294 291 292 288 289 292 295 299 298 300 302 304 303 304
308 307 306 312 310 304 292 286 289 295 294 292 287 289 284 286 286 287 287 292 291 294 294 288 284 294 295 299 300 297 300 290 292 285 282 287 289 289 294 295 298 301 302 303 304
305 299 307 312 308 297 286 288 291 296 295 291 290 288 289 287 287 287 287 292 295 294 293 290 287 289 292 295 293 294 294 296 296 293 286 283 287 296 296 298 297 299 303 304 304
303 294 308 310 294 294 289 292 295 295 297 295 294 292 290 291 288 288 287 292 298 295 289 291 289 286 288 295 301 300 296 297 291 288 289 288 286 297 298 299 300 299 304 305 305
299 300 309 305 288 289 292 293 293 293 296 294 293 295 294 291 287 290 292 298 298 295 292 292 288 285 286 293 298 296 298 298 296 294 289 285 286 298 298 298 299 299 302 305 305
300 294 299 300 299 294 291 291 290 296 295 297 295 295 293 290 292 291 292 298 298 297 301 301 294 287 286 290 295 293 296 297 295 289 289 289 288 293 297 297 299 299 301 304 304
299 296 298 290 292 294 295 293 291 290 297 298 294 293 292 289 290 290 293 296 299 299 298 295 292 294 296 297 297 296 296 296 295 295 289 291 292 294 297 297 298 299 302 303 303
297 295 299 298 296 294 293 292 292 292 295 294 293 297 296 291 291 289 293 294 293 297 295 297 291 294 292 295 296 295 297 297 296 296 295 297 294 300 299 300 299 298 300 302 302
304 304 299 299 298 294 295 295 295 296 296 298 298 295 296 296 299 298 298 299 300 297 296 294 293 291 285 292 292 288 293 296 296 297 297 294 298 299 297 299 299 299 301 301 301

GFSSW_sfc_thetae_015.txt.gz
Theta_e
317 317 317 318 318 318 318 318 320 321 322 323 324 326 327 327 327 321 312 318 321 326 327 317 314 313 314 313 317 314 299 297 299 299 302 307 304 308 310 307 308 310 308 313 318
318 318 318 317 317 317 317 318 318 319 321 321 322 324 325 326 318 314 323 329 330 327 318 312 309 310 305 309 312 307 300 301 304 304 303 306 305 306 306 307 306 308 313 312 315
318 318 318 317 317 317 317 317 318 318 319 321 320 321 324 323 311 309 327 331 331 328 321 318 314 310 304 306 308 307 302 306 307 309 308 306 306 308 305 303 308 308 309 312 313
319 319 319 318 317 317 317 317 317 317 318 319 320 321 323 317 295 314 322 325 329 326 320 315 311 303 302 303 307 303 309 309 310 312 309 305 308 305 306 306 311 312 313 312 312
320 319 319 319 318 317 317 316 316 316 316 318 319 320 316 305 304 317 320 320 319 319 315 313 307 304 298 302 304 303 307 310 311 311 310 309 306 305 306 310 311 312 313 312 312
322 320 320 319 319 318 318 316 316 316 316 316 317 319 309 297 311 313 315 313 313 315 313 312 309 309 303 300 300 304 306 308 310 310 310 307 305 305 307 310 309 311 310 311 309
323 322 321 319 319 318 318 318 317 316 316 316 317 315 306 300 310 310 315 313 313 310 307 314 312 309 308 301 304 306 301 304 306 308 308 309 303 303 308 309 308 308 308 307 308
324 323 321 320 319 318 319 318 318 317 317 317 316 310 299 313 313 311 310 309 309 309 309 310 312 306 306 306 301 299 302 294 302 305 308 307 299 305 308 307 307 307 304 306 309
323 323 321 320 320 320 320 318 316 316 317 317 310 305 296 315 307 310 309 305 306 306 307 309 306 302 303 298 294 294 290 293 297 305 305 305 300 305 307 306 305 304 302 305 306
323 322 321 320 319 319 319 317 314 313 314 314 310 299 302 299 307 309 309 308 304 303 302 302 298 294 294 294 285 288 290 293 294 300 303 301 302 303 306 306 304 303 300 304 305
322 321 320 319 319 318 313 307 302 299 306 298 299 297 301 307 309 306 308 305 304 299 293 296 290 288 291 294 294 292 291 292 297 302 300 300 301 303 305 305 302 300 299 303 304
321 320 320 319 319 318 311 303 301 302 296 304 303 302 305 307 299 303 307 299 297 291 293 291 288 293 295 295 294 293 290 290 295 301 300 300 299 304 305 306 304 303 301 302 303
321 320 319 318 318 312 306 305 308 308 294 298 302 301 302 304 298 299 304 299 294 291 290 287 291 296 294 292 291 291 289 290 291 297 300 298 297 299 303 306 305 304 303 305 305
319 319 318 317 308 307 304 310 309 308 287 291 294 300 302 302 296 305 306 300 295 290 291 289 293 292 292 290 292 287 294 294 293 292 289 298 289 296 300 300 302 301 300 303 304
318 318 317 313 305 302 307 310 310 305 276 291 295 305 302 296 297 298 306 301 292 292 292 287 290 289 288 290 293 289 295 293 293 292 293 294 291 292 298 299 300 300 300 302 304
318 318 316 311 309 309 309 308 303 286 274 289 294 293 293 296 296 299 298 302 300 294 293 290 296 294 292 294 294 296 293 292 293 292 285 291 291 289 293 297 300 298 301 302 303
318 317 314 312 302 310 308 300 284 279 290 287 289 292 291 290 292 293 292 291 288 283 284 290 290 293 295 290 294 292 287 281 281 282 282 293 288 292 296 299 302 299 301 302 303
317 316 314 311 311 309 304 292 278 285 286 293 291 290 288 290 291 292 289 287 292 288 284 280 275 289 293 291 287 288 287 282 276 280 285 295 288 294 301 299 302 302 302 302 303
316 313 309 310 310 308 296 283 281 287 292 290 290 286 287 290 289 289 288 287 289 290 280 280 281 293 293 294 293 288 284 291 287 290 286 291 293 295 295 296 299 300 301 301 302
311 307 304 310 310 303 291 285 287 294 294 293 287 289 284 286 286 287 286 290 289 291 292 288 281 290 292 294 294 292 295 285 286 282 281 286 286 288 290 294 298 299 300 301 302
306 300 307 310 308 297 286 287 291 296 296 291 289 289 287 285 286 284 285 290 293 292 293 290 286 286 287 289 287 290 290 291 291 288 285 282 286 293 293 296 297 299 300 301 301
303 295 308 308 294 293 289 292 296 294 297 294 293 292 289 288 286 284 285 289 296 294 289 291 288 283 286 294 297 294 292 292 286 286 289 285 284 293 295 296 299 299 301 302 303
299 300 307 305 287 289 293 292 294 293 294 294 292 294 294 290 286 288 290 296 296 294 290 292 287 281 284 291 296 292 295 295 294 293 289 283 284 295 294 295 296 299 301 302 302
300 293 299 300 298 293 290 291 291 296 294 296 295 296 292 289 291 288 289 296 297 296 298 294 290 287 284 289 295 291 293 295 293 288 288 286 288 291 293 295 295 299 301 302 302
299 295 297 290 291 294 294 293 291 289 294 296 294 293 290 286 287 288 291 293 296 298 296 291 286 289 289 291 294 295 294 292 289 294 290 288 290 292 294 295 295 299 301 301 301
295 296 298 294 295 293 293 292 292 292 293 294 292 294 293 288 288 287 292 292 292 295 292 293 288 291 292 296 296 294 296 296 296 296 295 294 292 294 295 295 295 298 301 301 301
303 304 300 297 294 292 292 292 293 296 296 296 296 295 293 294 297 297 296 295 297 294 292 292 291 291 286 295 293 289 294 295 295 296 295 291 295 294 295 297 296 296 301 301 300

GFSSW_sfc_thetae_018.txt.gz
Theta_e
318 318 318 318 318 317 317 317 318 319 321 322 324 325 327 328 327 321 312 317 319 327 326 316 313 311 312 309 314 312 298 295 297 298 301 305 303 307 308 305 307 308 307 310 315
319 318 319 318 318 317 317 317 317 318 319 321 321 324 325 325 319 314 323 329 330 329 316 311 309 311 304 306 309 306 299 300 303 304 302 305 304 304 304 305 304 307 311 313 317
320 319 319 319 318 317 317 317 317 317 318 320 320 321 324 323 310 309 326 331 332 328 320 317 314 310 302 303 305 306 302 305 306 308 307 305 304 307 304 302 306 306 307 309 311
322 320 319 318 318 317 316 316 316 316 317 319 320 320 322 316 294 312 323 327 331 326 319 314 310 303 300 301 306 299 307 308 309 311 309 305 306 304 304 305 309 310 311 310 311
323 321 320 319 319 318 317 316 316 316 316 317 319 320 315 303 303 314 319 321 320 321 316 312 306 303 298 299 301 299 303 308 310 311 310 310 306 305 305 308 309 310 311 310 310
324 322 321 320 319 319 318 317 316 316 316 316 317 318 307 295 310 312 315 312 312 315 313 312 308 307 302 299 298 301 302 304 307 308 308 307 307 304 307 308 308 309 309 309 309
325 323 322 321 319 319 318 318 317 316 316 316 317 314 305 300 309 310 311 310 311 311 309 313 312 307 305 300 303 302 298 301 302 304 305 308 303 304 307 307 307 306 308 307 307
325 324 323 321 319 319 319 319 319 317 317 317 316 310 297 311 312 309 310 307 311 309 308 309 312 308 304 306 301 296 295 291 299 303 305 305 297 305 307 304 304 305 305 305 307
324 323 322 321 320 320 320 319 317 316 316 316 309 304 295 313 307 308 309 305 305 305 306 309 307 302 300 298 293 292 286 289 295 303 302 302 299 305 308 304 303 304 304 303 304
322 323 322 321 320 319 319 318 316 312 312 314 310 300 302 299 307 308 308 308 303 302 301 301 299 292 294 294 285 288 286 289 289 298 300 299 299 303 304 303 303 305 303 301 304
321 321 321 320 319 319 315 307 300 299 304 299 300 298 299 306 308 306 307 304 302 297 290 295 290 287 289 293 293 291 288 288 292 299 297 297 298 301 305 303 301 302 300 299 303
320 320 320 320 319 318 308 299 299 301 293 303 303 302 304 306 299 303 307 297 296 291 292 291 287 292 293 293 292 291 289 288 292 296 297 296 296 301 303 305 305 304 301 299 302
319 319 319 319 318 313 304 304 307 304 293 297 301 301 301 304 298 300 303 299 294 291 292 288 289 294 292 291 289 289 288 288 288 293 295 294 292 296 302 304 305 306 303 302 304
318 318 318 317 308 306 304 308 307 307 287 289 294 300 302 303 296 305 305 300 295 290 291 290 293 291 291 289 290 285 293 292 291 288 283 294 285 293 298 301 302 304 298 302 303
317 318 318 314 302 302 304 308 308 305 268 290 294 305 302 297 298 298 306 301 292 291 291 287 289 289 287 289 292 288 293 291 291 288 287 287 285 291 298 296 300 304 298 302 304
316 317 316 310 308 309 309 308 303 280 270 288 294 292 293 296 297 299 298 302 301 294 293 290 296 293 291 292 294 294 291 290 289 289 281 285 286 287 293 296 299 301 300 302 303
315 317 313 309 303 310 309 300 282 271 288 287 288 292 291 291 292 294 292 291 289 284 283 288 289 293 295 290 293 291 286 278 276 277 277 287 285 288 295 298 301 302 299 301 303
313 316 313 308 310 309 304 292 274 283 285 293 291 291 287 290 291 292 290 287 291 289 285 282 279 288 293 291 288 288 287 279 271 272 277 289 284 289 298 301 303 302 302 301 301
310 312 309 309 310 307 296 283 281 285 291 289 289 286 286 289 290 289 288 287 289 291 283 281 281 292 292 293 293 286 284 289 282 284 283 286 290 297 300 296 296 301 300 300 301
308 308 305 310 310 303 291 286 286 293 294 292 285 288 284 286 286 286 285 288 289 292 291 286 277 288 291 293 293 289 291 282 282 276 274 284 288 290 295 295 295 297 298 300 302
305 300 307 310 308 296 285 287 290 296 295 291 289 288 288 285 285 284 284 289 291 290 291 288 284 284 288 286 285 287 285 287 285 283 283 280 286 296 295 297 296 297 299 300 301
304 290 307 308 293 292 288 291 295 294 296 293 293 292 290 288 285 283 284 288 294 292 286 290 286 281 283 291 293 290 287 287 282 281 285 285 285 297 296 298 300 299 299 301 302
299 298 306 305 286 287 292 292 294 293 293 293 292 293 293 288 284 286 287 294 296 293 290 291 286 280 282 286 291 289 289 291 290 289 286 284 286 295 294 297 300 298 299 300 300
299 291 297 300 297 292 290 290 290 296 294 295 294 295 292 288 289 287 288 295 296 296 298 295 288 285 280 287 291 287 288 292 290 285 285 285 288 293 292 294 296 297 299 299 300
301 294 296 288 292 293 293 293 290 290 294 296 291 293 292 286 286 286 289 292 295 298 296 291 285 287 288 289 290 292 290 292 290 290 286 289 291 294 294 294 296 298 298 299 299
297 295 297 293 295 294 293 291 291 293 293 292 290 294 293 288 287 285 290 291 291 294 293 292 285 287 288 292 291 292 293 294 293 290 289 289 288 296 294 294 295 297 299 299 299
301 300 298 294 293 292 292 292 293 295 296 296 295 294 292 293 295 294 296 295 295 293 291 290 288 287 286 293 292 289 293 293 293 292 290 286 293 294 294 295 295 296 300 300 300

GFSSW_sfc_thetae_021.txt.gz
Theta_e
320 319 318 318 319 319 319 318 318 319 321 322 324 326 327 328 327 322 313 317 319 326 325 315 312 312 310 307 312 309 297 294 296 296 299 303 301 306 306 302 305 305 308 309 314
321 320 319 319 319 318 318 318 318 318 319 320 321 324 325 326 319 315 323 329 330 330 315 310 307 310 303 304 307 305 298 298 301 301 300 303 303 303 304 303 303 305 309 313 318
323 321 320 319 319 318 318 318 317 317 318 319 320 321 323 321 309 308 327 331 332 329 318 315 312 308 300 302 303 304 299 304 305 306 306 303 302 305 302 300 304 305 306 310 313
324 322 321 319 318 319 318 317 317 316 316 318 319 320 321 314 293 310 323 326 331 325 318 313 308 301 298 299 304 297 303 306 308 309 308 304 305 303 302 303 307 308 309 308 309
326 324 322 320 319 320 318 318 317 317 316 317 318 319 313 302 302 313 322 319 321 321 315 311 304 301 296 298 300 297 301 305 307 309 308 309 307 304 305 307 309 308 308 308 308
325 324 323 321 320 320 319 318 317 317 316 316 316 318 307 293 308 311 311 312 314 317 314 312 307 306 301 298 297 299 300 300 303 304 306 305 306 305 305 308 307 307 307 308 307
325 324 323 322 320 319 319 318 318 317 316 316 316 314 304 299 308 309 310 308 310 314 310 313 312 307 306 299 303 300 296 298 299 301 302 305 301 303 308 308 305 305 306 307 308
323 324 323 322 321 320 319 319 319 318 316 316 316 308 296 310 310 309 308 307 308 310 307 310 314 308 306 305 301 295 293 288 296 300 302 303 294 303 308 308 305 304 303 305 306
322 323 324 322 321 320 320 319 318 317 316 316 308 302 294 311 306 308 308 304 305 306 305 309 307 301 301 297 294 295 287 287 292 301 301 300 296 302 306 305 302 302 302 304 304
321 321 321 321 320 320 320 318 317 313 311 313 310 299 301 299 306 307 307 307 302 301 300 301 299 295 296 294 284 286 285 285 288 295 297 296 296 300 303 303 302 303 304 303 303
318 320 320 320 320 319 315 309 302 299 303 299 300 299 300 305 308 306 306 304 301 297 289 294 291 287 291 291 291 289 289 289 290 295 293 292 294 297 301 302 303 300 301 301 301
315 319 319 320 319 319 310 301 299 300 293 301 302 301 304 306 299 303 306 297 295 290 291 289 285 290 292 291 290 290 289 288 291 295 293 291 291 295 297 299 303 304 303 304 299
314 315 318 319 319 314 307 302 306 303 291 296 300 300 301 304 298 299 302 297 292 289 289 286 288 293 291 289 287 287 286 287 287 291 293 290 287 290 296 300 302 305 306 306 302
313 312 317 318 311 309 304 307 306 305 279 287 293 299 302 303 296 304 305 300 295 290 291 290 294 290 289 287 289 284 290 290 289 286 281 290 279 287 292 295 300 302 304 302 300
311 312 316 316 306 303 304 306 306 299 267 289 295 304 303 297 298 297 305 300 292 291 290 287 288 288 287 288 291 287 292 290 290 286 284 285 282 283 293 292 296 299 302 300 301
308 311 313 308 307 306 308 308 305 280 269 287 294 293 294 296 297 299 298 303 300 294 293 289 293 292 290 292 292 293 290 288 289 286 279 283 283 283 286 291 295 299 302 302 301
308 311 309 310 302 308 309 302 283 273 287 286 287 291 290 290 292 294 292 292 289 284 283 288 290 293 293 289 292 291 287 279 277 277 276 284 283 285 289 294 298 300 301 301 301
309 308 309 310 310 309 305 290 271 282 283 291 290 290 286 289 290 292 290 287 292 290 285 281 279 289 292 289 287 287 287 279 273 272 275 284 278 285 293 296 297 300 300 298 301
308 306 308 309 310 308 296 282 279 283 289 288 289 286 286 289 290 289 289 287 289 290 283 281 279 290 292 293 292 287 283 288 282 282 279 282 285 293 294 296 297 298 299 298 300
302 301 304 310 310 304 291 282 284 292 292 290 283 287 284 286 286 286 285 287 288 290 292 287 277 287 290 293 293 289 291 282 283 274 272 277 282 285 290 294 296 295 297 298 300
301 294 306 310 308 297 285 287 289 295 294 290 287 287 287 285 287 284 284 287 290 289 292 290 285 281 288 286 285 287 285 286 284 281 274 275 280 292 294 297 295 294 296 298 300
298 288 306 308 294 292 288 290 294 293 295 293 293 291 289 288 286 283 283 286 292 291 287 290 286 280 283 290 292 289 286 285 280 275 279 278 280 294 293 295 298 296 298 300 302
296 297 306 304 284 287 292 292 293 293 293 292 291 293 293 290 285 285 286 292 293 291 288 290 285 279 282 285 289 286 288 288 286 285 280 277 280 295 297 296 299 299 300 300 300
296 287 297 298 296 290 290 290 290 295 294 295 293 294 292 289 290 286 287 293 293 293 297 294 287 284 279 284 286 284 286 287 286 280 281 282 286 292 295 296 297 297 299 300 299
297 291 294 288 290 291 292 292 290 290 294 296 292 292 291 287 287 286 289 291 294 297 296 291 283 285 286 287 287 287 286 287 285 285 282 285 288 291 295 296 298 297 298 298 298
296 294 296 293 294 292 292 291 291 292 292 291 291 293 292 290 288 283 288 288 290 295 293 292 283 286 284 289 288 287 288 288 287 288 287 290 289 296 298 296 295 296 298 297 298
303 302 296 294 293 292 291 293 292 295 296 297 294 292 292 294 295 295 293 293 294 293 291 288 286 286 285 290 288 285 290 288 290 291 291 287 292 296 295 296 297 297 299 298 299

GFSSW_sfc_thetae_024.txt.gz
Theta_e
324 321 319 318 318 318 318 318 319 319 319 322 322 325 327 328 327 321 312 316 318 327 324 314 311 311 308 306 310 306 296 292 294 294 297 301 300 304 306 301 304 304 305 308 314
325 323 321 319 318 318 318 318 318 318 319 320 321 324 325 326 321 316 325 329 328 328 316 309 305 308 302 303 305 303 296 295 300 299 298 301 301 302 302 302 302 305 308 312 316
325 324 322 320 319 319 318 318 317 317 318 319 320 321 323 322 307 307 327 331 332 330 317 313 311 307 299 300 301 301 297 300 303 305 305 303 302 304 301 300 303 303 306 310 315
325 325 323 321 320 319 319 318 317 317 317 319 320 320 321 313 292 308 323 325 330 325 317 311 306 300 297 297 301 294 301 304 306 308 307 304 306 303 302 303 306 306 307 307 308
324 324 324 322 321 319 319 318 317 316 316 317 318 319 312 300 302 312 321 318 319 321 316 310 302 300 295 296 297 296 299 303 304 303 305 307 305 305 305 308 309 309 308 307 307
323 324 324 323 322 320 320 318 318 317 316 316 316 317 306 291 305 310 309 310 317 318 315 311 306 305 299 297 296 298 299 299 301 301 302 301 302 303 305 307 306 307 306 306 306
320 323 323 322 322 320 320 319 318 317 317 316 316 313 303 299 307 308 309 306 308 314 312 313 311 305 303 297 302 300 294 297 298 299 299 303 298 300 306 307 306 305 305 306 307
318 320 322 322 322 321 320 319 319 318 316 316 316 307 295 308 309 308 307 305 307 309 307 313 314 307 305 303 300 296 297 288 294 297 299 301 291 301 304 304 305 306 304 305 307
315 317 320 321 321 321 320 319 318 318 317 316 307 301 293 309 306 307 307 303 304 306 305 309 307 299 298 293 291 294 287 289 290 297 298 298 292 299 302 302 301 302 302 303 304
312 314 317 320 320 319 320 318 317 314 311 312 310 298 300 298 305 306 307 306 301 301 300 299 299 294 293 290 281 284 287 289 289 293 294 293 293 297 300 301 301 301 301 302 303
311 313 315 319 319 319 316 310 302 300 303 296 298 298 300 304 307 304 305 303 300 296 290 294 291 288 291 290 289 287 289 289 292 296 293 291 291 294 297 298 299 301 303 301 302
310 312 314 315 319 319 311 303 302 299 292 300 301 302 304 305 298 302 305 297 295 289 291 289 285 291 292 293 291 290 287 287 290 293 291 290 290 293 295 296 298 300 302 302 303
310 310 313 312 317 314 307 303 306 302 290 294 299 299 300 303 298 299 301 297 292 288 288 285 287 292 291 288 288 288 285 284 284 288 291 289 286 288 292 295 296 298 300 303 303
308 308 310 313 311 310 304 306 306 302 277 285 293 298 301 302 295 304 304 298 293 288 289 289 293 290 288 287 287 283 289 288 287 285 279 286 278 284 288 290 292 295 298 301 303
308 308 308 310 307 304 306 307 306 295 267 288 294 304 303 295 297 296 304 300 292 291 291 287 288 288 287 288 289 286 290 288 288 285 284 283 280 281 286 286 290 294 297 300 303
307 307 308 307 309 308 308 308 301 277 270 287 294 293 294 296 296 298 299 302 299 294 293 290 293 291 289 291 291 292 288 288 288 286 279 283 281 281 284 287 289 293 296 300 302
307 308 307 308 303 309 309 300 281 273 286 285 287 291 291 290 292 294 293 292 289 284 283 289 290 293 294 287 291 290 286 279 277 277 275 282 281 283 286 289 290 292 295 299 301
309 309 308 307 310 309 304 286 273 282 283 291 289 289 286 289 290 291 290 287 293 290 285 279 277 288 293 289 285 286 285 279 273 271 273 282 277 282 290 294 295 296 297 298 298
308 304 304 305 310 308 294 281 279 282 289 288 289 283 285 289 289 289 289 287 289 291 284 282 280 289 292 292 291 287 283 288 282 283 279 279 282 288 292 290 293 294 294 296 297
302 300 300 308 310 302 289 282 284 290 291 289 282 286 283 286 286 287 286 286 288 292 290 284 280 286 289 292 292 289 290 281 282 274 273 275 277 281 287 291 293 293 293 294 297
299 293 304 310 307 296 285 283 288 294 293 288 286 285 286 286 287 285 283 286 289 288 290 289 285 281 288 286 284 287 285 286 285 282 273 272 276 287 290 291 294 295 297 296 297
297 287 306 308 290 292 288 289 294 292 294 292 291 290 287 287 286 285 282 285 290 290 286 290 286 280 281 289 292 289 286 286 279 275 279 276 279 293 292 296 297 297 296 295 298
295 294 307 303 284 287 291 291 292 292 292 291 290 292 293 289 285 286 285 291 292 290 287 290 285 279 280 285 289 286 287 287 286 284 277 274 278 290 290 296 297 296 296 297 297
294 286 296 297 295 291 288 289 288 294 294 294 293 294 290 290 291 286 285 291 292 292 295 294 288 283 278 282 285 283 285 287 285 280 280 280 282 287 290 294 297 298 295 296 297
296 288 292 285 290 291 291 290 288 289 293 295 292 292 290 288 288 287 287 289 292 294 293 291 283 285 286 287 286 286 285 286 284 284 279 282 283 287 293 294 296 297 299 299 299
294 294 296 291 293 291 291 288 288 291 292 291 290 292 293 289 289 285 287 287 287 293 292 293 283 286 284 288 288 285 288 287 286 286 286 286 285 293 296 298 298 299 299 299 298
300 302 297 294 292 290 290 290 292 294 295 296 293 293 291 293 296 297 292 292 291 292 291 290 285 285 282 287 286 284 286 287 287 289 287 283 288 293 293 296 296 296 297 298 298

GFSSW_sfc_thetae_027.txt.gz
Theta_e
326 326 323 321 319 318 318 319 319 319 319 319 321 323 326 327 327 321 312 317 320 328 324 316 314 312 311 309 313 310 301 296 297 297 300 305 304 308 310 307 309 310 311 314 320
325 325 325 322 320 319 318 319 318 318 318 319 320 321 324 325 320 317 324 328 330 328 317 311 308 309 305 306 308 307 300 299 302 302 302 304 305 306 307 306 308 309 313 315 320
324 324 325 324 322 320 319 319 317 317 318 318 320 320 321 322 308 308 324 332 332 329 319 315 312 308 302 305 305 305 299 303 304 307 308 306 306 308 305 304 308 308 310 312 318
322 324 324 324 323 321 319 319 317 317 316 317 319 319 320 314 291 309 323 324 329 325 318 312 308 302 300 299 303 299 303 305 306 308 307 306 308 308 307 308 311 310 311 311 312
320 321 323 323 324 322 320 319 318 317 316 316 317 319 312 301 302 312 320 316 318 321 315 310 304 302 298 299 301 300 301 304 305 303 303 306 305 306 307 311 312 314 314 313 313
316 318 319 322 323 322 321 320 318 317 317 316 316 317 305 291 304 309 309 310 319 320 316 312 307 305 301 300 298 300 300 301 302 302 303 302 303 304 306 311 311 311 312 311 311
313 315 317 319 321 322 321 320 319 317 317 316 317 312 303 298 308 309 309 307 310 318 313 315 312 307 304 300 304 302 297 299 300 301 300 303 298 299 306 308 308 309 311 313 313
311 313 315 317 320 322 321 320 319 318 317 317 317 307 294 308 309 308 308 306 309 311 312 315 315 309 306 305 300 297 297 290 297 299 300 301 291 300 305 305 305 307 309 310 312
311 311 312 316 318 320 320 320 319 318 317 317 307 301 294 309 305 308 307 303 306 307 307 313 309 302 302 296 292 294 287 289 292 299 299 299 294 301 304 303 303 305 306 308 309
310 310 311 313 316 319 320 319 317 315 313 313 310 298 299 298 304 306 307 306 302 302 302 301 299 294 295 292 282 286 287 289 289 295 295 293 293 298 300 300 301 302 304 305 306
309 310 311 313 314 317 317 309 301 300 303 295 297 297 300 305 307 304 306 303 301 298 292 296 292 287 291 292 292 290 289 288 292 296 292 291 292 295 298 299 298 300 301 303 305
308 309 310 311 314 315 312 302 301 302 293 300 301 302 304 306 298 302 305 297 295 290 292 291 287 292 294 294 292 291 289 288 291 293 291 290 289 294 296 297 298 299 300 302 305
307 308 309 309 310 311 307 304 305 304 290 294 298 298 300 303 298 298 301 297 293 289 289 286 289 293 292 289 289 288 287 287 286 289 291 288 286 289 293 295 297 299 300 302 303
307 307 308 308 305 309 305 307 305 302 278 285 293 297 300 302 294 304 303 298 293 289 289 289 293 290 288 288 289 284 290 289 287 285 280 288 278 286 290 292 294 294 296 298 301
307 307 307 307 301 301 306 308 303 298 267 288 293 304 302 295 296 297 304 300 292 291 291 287 289 288 287 288 289 286 290 288 288 285 284 284 281 284 288 288 291 294 295 297 300
306 306 306 303 304 305 309 308 300 281 268 287 294 294 294 295 296 298 299 302 299 293 293 289 294 292 290 292 291 293 289 289 288 286 279 283 282 283 286 288 290 294 296 298 301
308 308 305 304 297 310 309 300 282 272 286 285 288 292 292 290 293 294 293 291 288 284 283 288 290 294 294 288 291 290 286 279 278 278 277 283 282 284 289 292 292 293 294 296 299
308 308 307 304 307 305 303 289 273 281 283 290 290 290 287 290 290 291 290 288 292 290 286 282 277 289 293 290 286 287 286 280 273 274 276 282 279 284 291 295 295 296 296 297 297
308 305 303 305 307 303 294 281 279 282 288 288 288 285 285 288 288 289 288 287 290 292 285 282 280 289 292 292 291 286 283 288 282 282 279 282 284 288 291 291 294 296 299 297 297
301 299 297 305 305 299 287 284 284 289 291 290 283 285 282 285 285 286 285 287 289 292 294 286 279 285 289 293 292 289 290 281 282 274 274 279 279 282 286 289 294 296 298 299 298
299 293 301 307 303 293 284 284 288 292 292 288 286 285 285 285 286 286 284 286 289 288 291 288 283 282 288 285 285 287 285 286 285 282 276 274 279 286 287 294 294 296 299 299 299
297 288 304 307 287 287 287 288 295 291 293 292 291 289 286 287 285 286 284 285 290 290 287 289 285 278 281 289 291 289 286 286 280 278 281 278 279 294 294 295 297 298 300 299 299
293 294 304 300 284 286 291 290 293 291 291 291 289 292 292 287 284 286 285 291 291 290 287 289 284 277 279 284 288 286 287 287 286 285 280 277 279 290 291 294 298 298 300 299 298
293 288 293 296 294 290 288 288 289 294 292 294 292 293 290 289 290 286 286 290 291 291 295 293 286 282 279 283 287 283 286 287 285 280 281 281 282 287 289 290 294 298 300 300 298
295 288 291 285 288 291 291 290 287 287 293 294 292 292 290 287 287 287 288 288 291 293 293 291 284 286 286 287 287 285 285 286 284 284 281 283 283 287 289 291 297 298 299 300 299
294 293 294 291 293 290 291 286 288 290 291 290 289 292 292 289 289 284 287 287 287 289 289 292 284 286 284 288 288 285 288 287 286 286 286 286 285 291 294 296 295 295 296 299 300
299 301 296 292 291 290 288 288 289 293 293 295 293 292 291 292 296 295 297 293 292 291 290 290 286 285 282 288 288 284 288 287 287 288 287 283 288 293 292 294 295 295 296 298 301

GFSSW_sfc_thetae_030.txt.gz
Theta_e
325 325 325 325 322 321 319 319 319 319 319 319 320 322 325 326 328 322 316 320 322 327 326 320 317 316 317 313 318 317 303 299 301 301 303 309 307 312 314 311 314 315 315 318 323
321 324 325 325 324 322 320 319 319 318 318 319 320 321 322 324 322 317 324 328 330 328 321 315 311 312 310 311 313 309 303 302 306 307 305 308 308 309 309 310 311 314 317 319 323
318 321 323 324 324 323 321 320 319 318 318 318 319 320 320 322 313 313 327 332 332 330 322 318 315 311 306 310 309 308 303 306 307 309 310 309 309 312 309 307 312 312 314 317 319
314 317 320 322 323 324 322 320 319 318 317 317 318 319 320 317 298 315 324 324 329 328 322 316 312 307 304 303 307 302 307 308 308 311 309 308 311 310 310 310 314 316 317 318 319
312 314 316 319 321 323 323 321 320 318 317 317 317 318 314 305 306 316 318 316 322 324 318 313 309 307 302 303 305 303 304 306 308 308 308 308 306 307 308 313 316 317 317 318 319
311 312 313 315 318 320 322 322 320 319 318 317 316 317 307 295 309 313 312 316 321 320 318 315 311 309 305 303 303 304 304 305 306 306 306 304 305 306 308 312 311 312 313 315 317
310 312 312 312 315 318 321 321 320 319 318 317 317 313 306 302 312 313 312 313 318 321 315 316 313 308 308 303 307 305 300 303 304 304 303 305 300 301 308 310 308 310 312 313 315
309 310 311 312 312 316 319 322 321 320 318 317 317 310 300 309 314 309 311 311 315 317 318 320 316 311 307 308 303 299 300 295 301 302 303 303 295 303 308 308 308 310 311 311 313
308 310 311 311 311 314 316 320 320 319 318 317 311 306 299 310 306 309 311 309 311 311 313 318 315 305 305 300 296 297 293 293 297 302 301 301 298 304 308 307 306 308 310 312 313
308 308 310 311 311 314 314 319 319 317 315 314 310 301 303 301 306 308 310 310 307 308 306 305 303 298 298 296 289 291 292 294 293 298 299 297 297 302 305 305 305 307 309 310 311
307 308 309 309 311 312 312 314 303 300 304 300 300 298 301 306 310 306 308 306 306 304 297 301 295 291 294 296 296 294 293 291 294 298 296 295 295 298 302 302 302 303 305 307 309
307 308 308 309 310 310 308 303 303 306 296 303 304 303 305 307 299 303 308 300 300 295 298 294 290 296 296 296 294 292 291 291 294 297 295 294 293 297 299 299 301 302 303 304 306
307 307 308 308 309 307 304 305 309 309 297 297 302 300 303 305 299 301 304 301 297 294 294 292 292 295 294 293 291 290 288 289 290 294 295 292 290 295 298 299 300 301 302 304 304
306 307 307 307 304 303 302 311 309 307 289 290 295 299 302 304 297 306 306 301 297 293 294 293 296 293 292 291 292 288 293 292 290 288 283 291 283 292 296 297 298 300 301 302 304
307 307 307 306 302 299 302 310 307 301 279 291 293 306 303 297 299 299 306 301 294 293 294 290 292 292 289 291 293 289 293 291 291 288 286 288 282 289 293 293 296 299 302 303 304
307 308 308 304 303 303 308 307 301 285 278 288 294 294 293 296 297 300 299 303 300 295 295 293 297 294 294 295 295 294 291 290 291 288 281 286 284 287 292 294 296 299 301 302 303
307 308 306 306 298 308 309 298 284 282 289 286 288 293 292 290 293 295 294 292 290 285 286 291 292 295 295 290 293 291 287 281 279 279 280 288 286 288 294 296 297 298 300 302 304
309 308 307 306 308 308 303 289 281 285 287 292 292 292 289 291 291 292 291 289 294 292 288 285 284 291 295 292 289 288 288 282 276 279 282 287 282 288 296 298 299 299 302 305 306
306 305 304 306 307 305 293 282 285 287 290 288 290 286 286 289 290 290 290 289 292 293 285 285 284 292 295 295 293 288 284 291 283 285 281 284 288 293 296 296 297 299 302 303 306
300 300 300 307 307 298 287 286 287 293 293 292 286 287 283 286 288 288 288 292 291 295 296 290 283 289 291 295 294 291 293 283 284 276 275 282 284 285 291 293 298 298 300 304 305
299 292 302 307 303 291 285 286 291 295 295 291 288 287 288 287 289 288 288 290 293 293 296 292 287 285 290 287 287 287 285 287 287 284 278 277 283 292 292 294 296 298 301 304 305
296 287 302 304 288 290 288 291 295 293 296 294 294 291 290 290 288 289 287 289 294 294 290 292 287 281 285 292 294 291 288 287 281 280 282 282 282 295 296 298 299 298 300 304 305
291 294 303 302 286 288 291 293 294 293 293 293 292 294 293 290 287 290 290 293 294 293 291 293 286 281 284 288 291 287 289 289 288 286 282 279 283 294 296 298 298 297 300 303 305
295 287 293 296 296 291 290 290 290 296 295 296 294 295 293 290 291 288 289 293 294 294 296 295 289 285 282 286 290 285 288 288 286 281 283 283 286 290 292 293 296 297 299 301 303
297 289 293 287 290 292 293 292 290 290 295 296 293 293 292 288 288 288 290 292 293 295 295 293 284 287 288 289 289 287 287 287 284 286 282 286 287 291 293 295 296 297 299 300 302
293 293 295 293 293 292 292 291 291 291 293 291 292 293 293 290 290 288 290 291 290 293 293 294 285 287 284 289 289 287 289 290 289 288 287 288 288 295 297 297 296 298 298 298 301
299 300 298 293 292 291 291 292 292 295 295 296 295 294 292 294 296 297 296 295 293 293 291 291 287 285 283 289 289 286 290 290 290 291 290 285 291 295 294 295 296 297 298 300 301

GFSSW_sfc_thetae_033.txt.gz
Theta_e
318 321 323 324 325 324 322 321 320 320 319 320 320 320 323 325 327 323 316 322 324 329 326 321 318 318 317 314 316 318 305 300 302 302 304 310 308 313 315 312 313 316 316 321 325
316 317 320 322 324 324 323 321 320 320 319 319 319 320 322 323 321 317 325 326 328 328 321 316 313 315 311 311 312 310 302 302 306 307 306 309 309 310 310 310 310 314 318 320 324
314 314 316 319 321 323 324 322 321 320 319 318 318 320 320 321 313 314 330 331 331 330 323 319 316 313 308 310 309 309 302 306 307 310 311 309 309 312 309 308 311 311 316 319 321
311 313 314 315 317 320 322 323 321 320 319 318 318 319 319 318 299 319 325 328 331 329 322 316 313 307 305 304 309 304 307 308 309 310 310 308 311 309 310 311 314 316 318 318 318
310 310 311 313 314 316 319 322 322 320 319 318 317 318 314 308 308 320 318 319 323 325 319 314 310 308 303 305 306 304 306 307 309 310 309 310 307 308 309 314 316 316 317 318 318
310 310 310 312 313 314 315 320 322 320 319 318 317 318 310 298 312 316 315 317 319 321 318 315 311 311 307 306 304 306 306 306 307 307 308 305 305 306 308 311 311 312 313 315 317
309 309 309 311 312 313 314 318 321 321 319 318 317 314 307 304 312 314 313 316 321 320 316 318 315 310 309 304 308 306 302 305 305 306 305 307 302 302 308 310 309 310 311 312 314
309 309 309 310 311 312 313 315 319 320 319 318 318 311 302 311 315 312 313 315 319 322 320 320 317 311 308 308 305 301 302 296 303 304 305 304 296 305 309 308 308 309 310 311 313
309 308 308 309 310 311 312 314 316 321 319 318 312 309 301 311 306 310 312 311 314 316 319 319 315 307 307 301 296 299 294 297 299 305 303 302 299 306 309 308 307 309 310 311 312
308 308 308 308 309 310 312 313 316 319 315 314 311 303 305 302 307 309 313 314 310 310 310 309 306 299 298 297 291 295 295 296 296 300 301 299 299 303 306 306 306 308 309 310 311
308 308 308 308 309 309 309 306 306 303 306 302 302 300 303 308 310 306 310 310 308 306 297 301 296 293 297 300 300 297 295 294 298 301 298 297 297 300 303 303 303 305 306 308 309
307 307 308 308 308 309 307 297 302 305 295 304 304 304 307 308 300 304 310 302 300 296 299 296 292 298 299 298 296 295 293 293 296 298 296 295 295 298 300 301 302 303 304 305 307
307 306 307 308 308 306 303 299 306 308 297 299 303 302 303 306 300 300 305 303 299 295 294 293 295 297 296 295 293 293 291 291 290 295 297 295 292 296 300 302 303 303 304 305 305
306 307 307 307 303 304 301 307 309 305 288 291 296 300 304 304 298 307 307 302 298 293 295 294 298 294 294 293 294 290 296 294 292 290 287 293 285 293 297 298 300 301 302 303 304
307 307 307 307 301 300 304 308 307 301 280 294 296 307 304 299 300 300 307 302 295 295 295 292 293 293 291 292 295 291 295 292 292 289 287 289 285 291 296 294 297 300 302 304 306
307 308 308 305 304 304 308 307 302 283 280 288 295 294 294 297 298 301 300 303 301 295 295 295 298 296 295 296 296 295 292 291 290 288 281 287 287 288 293 295 299 302 303 303 304
308 307 308 306 299 307 307 298 283 280 291 287 289 293 292 291 293 295 293 292 291 286 286 292 292 295 297 292 295 293 288 283 280 280 280 290 288 289 295 297 298 299 301 302 304
307 307 307 306 307 308 301 288 281 287 288 293 292 292 288 291 292 293 291 288 294 292 289 284 285 293 295 292 290 289 288 283 278 280 283 290 284 289 297 299 300 301 301 302 305
306 305 304 307 308 305 294 282 285 289 291 290 291 287 288 290 291 292 291 290 293 294 287 287 285 294 296 296 294 289 284 291 284 285 281 285 289 294 297 297 298 299 300 301 305
300 299 300 307 308 300 289 284 288 294 294 294 286 288 285 287 289 289 289 294 291 295 297 292 285 292 294 295 295 292 294 283 284 276 277 284 286 287 292 295 297 297 300 303 305
298 294 301 307 304 293 286 288 291 296 296 292 290 288 288 287 290 288 289 293 296 295 297 293 289 287 290 288 289 288 286 288 288 286 280 279 284 294 293 295 295 299 301 303 304
296 286 303 306 290 291 289 291 295 294 297 295 295 293 291 291 290 291 290 292 297 296 290 293 288 283 286 293 294 293 288 288 282 282 284 282 283 296 295 297 298 299 301 302 304
293 292 304 302 287 289 292 293 295 293 294 294 293 295 295 292 288 292 293 295 296 295 292 293 287 282 284 289 293 289 290 290 289 288 282 280 283 296 296 296 298 299 300 300 302
296 286 293 297 297 293 291 291 291 297 296 297 296 296 294 292 294 291 291 294 296 295 297 297 289 285 283 287 291 285 289 290 287 283 284 284 287 292 294 295 296 298 299 300 301
299 291 294 288 293 293 294 293 291 291 297 298 294 295 293 289 290 289 292 293 295 296 295 293 285 287 288 290 290 288 288 289 286 287 282 286 287 292 294 296 297 299 299 299 300
293 294 296 294 295 294 293 291 292 293 294 293 293 295 294 292 292 289 291 291 291 294 293 294 286 288 285 289 291 289 291 292 291 290 290 288 287 296 297 298 297 298 299 299 300
299 300 297 293 294 293 292 294 294 296 296 297 296 295 293 295 297 297 298 297 296 292 291 290 288 286 283 289 289 288 290 291 291 293 291 287 292 297 295 296 297 297 298 299 301

GFSSW_sfc_thetae_036.txt.gz
Theta_e
314 316 317 319 321 323 324 324 322 321 320 320 320 320 321 323 324 322 313 321 324 330 326 323 319 316 315 313 314 314 301 296 299 299 301 306 304 309 310 307 308 309 308 317 329
312 313 314 316 317 319 321 324 323 322 321 320 319 319 320 322 318 314 323 329 328 329 319 315 312 313 308 309 309 306 300 301 305 304 303 306 305 305 305 305 305 308 314 318 321
311 311 311 313 315 316 318 321 324 322 321 320 319 319 320 319 311 311 329 331 330 329 322 317 315 311 306 307 306 305 300 304 305 306 309 307 306 307 305 303 306 305 310 314 318
311 311 311 311 312 314 316 318 321 323 321 320 319 319 320 315 297 318 330 332 332 328 322 317 311 306 304 302 306 300 305 306 307 308 308 306 308 306 305 306 311 310 312 313 313
312 312 310 310 311 312 314 316 319 322 321 319 318 319 313 306 307 322 325 324 324 324 318 315 307 305 301 302 304 302 304 306 307 307 306 309 305 305 306 309 311 312 312 311 312
312 311 311 310 310 311 312 314 316 320 321 319 318 319 309 297 313 317 316 315 316 319 318 317 310 309 306 304 301 304 304 304 305 304 305 303 303 304 304 308 308 309 309 309 311
311 311 310 310 310 310 312 313 315 317 321 320 318 314 306 303 312 313 314 313 319 317 316 318 315 310 309 303 307 305 299 302 303 303 302 304 299 300 306 307 305 306 306 308 309
311 310 310 309 309 309 311 312 313 315 319 320 318 310 301 313 315 311 312 312 318 320 318 320 318 311 308 308 304 300 299 293 301 303 304 302 293 302 305 305 304 305 306 306 308
309 309 309 309 309 309 310 311 312 314 318 319 311 307 299 311 306 311 311 309 313 318 318 320 315 307 306 299 296 297 290 293 296 302 301 299 294 302 305 303 302 302 303 306 307
309 309 309 309 309 309 309 310 312 312 316 315 311 301 304 302 307 308 311 313 309 310 311 310 305 300 299 297 287 290 291 293 293 298 298 296 296 300 303 302 301 302 304 304 305
308 308 308 308 308 308 307 305 302 302 307 300 300 300 302 308 310 306 310 310 309 306 299 304 297 293 295 297 297 297 293 291 294 299 295 294 294 297 300 300 300 301 302 303 305
308 307 307 307 308 308 306 297 298 302 296 304 305 304 306 307 300 304 310 303 301 296 299 295 290 297 299 299 297 294 290 290 294 297 294 292 291 295 297 298 299 299 300 301 303
307 306 307 307 307 304 301 299 305 302 295 298 303 302 303 305 299 300 306 302 298 295 294 292 294 299 297 294 292 291 289 289 289 292 293 291 288 292 296 298 299 301 301 302 302
306 307 307 307 301 302 299 306 306 304 286 292 296 301 303 304 297 306 307 302 298 293 295 293 298 294 293 292 293 287 294 293 291 287 281 290 279 288 292 293 295 295 296 298 300
307 308 308 308 299 296 302 307 307 301 277 293 296 307 304 298 299 299 306 302 294 295 295 291 293 292 290 292 294 289 294 291 291 286 285 284 280 284 291 290 292 294 296 297 299
307 308 308 305 304 302 305 306 299 283 277 289 295 295 295 298 298 300 300 304 302 296 295 294 298 295 293 295 295 295 291 290 289 287 278 283 283 282 286 289 292 295 296 298 297
307 307 306 307 298 306 306 297 281 278 290 287 289 293 293 292 294 295 293 292 289 285 286 291 292 295 296 291 295 293 288 276 276 278 274 286 283 285 291 294 295 295 295 295 297
307 307 307 305 308 307 301 288 279 286 287 292 292 292 288 292 292 293 292 288 293 291 287 283 282 291 294 292 289 289 288 277 273 274 278 286 280 284 293 295 296 296 296 298 295
307 304 304 305 307 305 294 280 283 287 291 290 291 287 287 291 291 291 289 289 291 293 286 285 285 294 295 295 294 288 283 288 280 281 274 280 284 290 294 294 294 294 296 295 295
302 299 300 306 307 300 289 284 287 293 294 293 286 289 284 287 288 289 288 293 291 294 294 291 284 291 294 295 294 290 292 282 281 271 272 279 281 283 288 290 292 292 294 296 300
300 294 301 307 305 293 284 287 291 295 296 292 289 287 288 287 289 288 288 293 294 294 295 292 288 285 289 287 286 287 285 287 285 283 275 275 279 287 289 291 291 293 296 297 299
295 287 302 306 288 289 288 292 295 294 298 295 294 291 289 289 289 288 288 292 296 295 290 293 288 279 283 291 293 291 287 285 279 276 281 280 280 294 294 292 294 294 298 299 300
294 293 303 301 286 288 290 292 294 294 295 295 293 294 293 291 287 291 292 295 296 294 292 293 284 276 280 286 289 286 289 289 288 286 280 278 280 294 293 295 296 295 295 297 299
296 286 294 297 296 291 290 290 290 298 297 297 295 296 293 291 294 290 290 294 295 295 298 295 289 281 276 283 288 283 287 288 287 282 282 282 284 289 293 294 297 298 298 297 298
299 291 294 288 292 293 294 293 290 291 297 298 295 295 293 289 290 289 291 292 294 296 294 291 283 284 286 287 286 286 286 288 285 286 283 285 286 291 293 295 296 297 298 297 296
293 292 297 293 296 294 292 291 292 294 295 293 292 294 294 291 290 289 291 291 290 293 291 293 283 284 281 287 287 285 288 289 290 291 290 290 289 297 298 298 296 296 298 298 298
299 300 296 294 293 292 292 292 293 296 296 297 296 294 293 294 296 296 296 296 295 291 290 290 286 285 277 287 286 284 289 291 292 293 292 287 292 296 296 298 297 296 297 297 298

GFSSW_sfc_thetae_039.txt.gz
Theta_e
313 313 313 313 315 317 319 321 323 324 322 321 320 320 321 321 323 319 313 319 323 332 326 321 318 315 313 307 310 307 295 292 296 297 299 304 301 306 308 305 305 306 309 320 329
313 313 312 312 313 314 316 318 320 323 323 322 321 320 320 321 315 312 321 328 331 332 318 312 311 311 304 304 305 301 296 297 302 302 299 304 304 304 303 303 301 305 313 321 327
313 313 313 312 311 312 313 315 318 320 323 322 321 319 319 319 309 309 328 329 331 329 321 315 313 309 303 303 302 301 296 302 305 305 306 305 304 306 302 299 303 303 307 313 320
313 312 313 311 311 311 311 312 316 318 321 323 320 319 319 314 294 317 329 331 331 327 320 316 312 304 301 299 303 297 302 304 305 307 305 303 306 304 303 302 307 307 308 310 312
313 312 312 312 311 311 311 311 313 317 319 322 320 319 314 304 305 321 328 331 326 323 317 314 308 303 299 300 301 298 301 304 305 305 304 305 303 302 303 307 308 308 308 307 310
312 311 311 311 311 310 310 311 312 315 317 320 320 319 308 297 313 319 318 319 320 320 316 315 308 306 301 300 298 301 301 301 303 303 303 302 301 301 302 306 305 305 305 305 307
311 310 311 311 310 310 310 310 312 313 315 318 320 314 305 302 309 312 314 312 315 317 314 317 315 307 305 300 305 302 297 300 301 302 301 303 297 298 303 304 304 303 303 305 306
310 310 310 310 309 310 310 310 311 312 314 317 320 311 299 313 313 311 310 309 315 316 318 320 318 311 307 304 301 297 296 290 299 301 302 300 291 300 303 301 301 304 305 304 306
309 309 309 309 309 309 309 310 310 311 313 315 312 306 298 314 307 309 308 307 311 317 317 320 315 306 306 298 295 294 286 290 294 301 300 298 292 300 303 302 299 300 303 304 305
309 308 308 309 309 308 309 309 310 310 310 313 311 299 303 301 306 309 309 309 308 312 311 310 305 299 298 295 286 287 288 289 290 296 297 295 294 298 301 299 298 298 300 300 302
308 308 308 307 308 308 305 301 296 296 303 299 299 300 303 307 309 306 308 309 307 304 297 305 297 292 293 295 295 295 294 289 291 296 292 292 292 294 297 297 299 300 298 300 303
307 307 307 308 308 308 303 295 296 297 291 303 304 303 306 307 299 303 308 302 300 295 297 295 291 298 301 299 297 293 290 287 291 294 291 290 289 293 295 296 297 298 296 298 301
307 307 308 308 308 304 298 297 304 302 291 298 303 302 302 305 299 299 306 302 298 295 294 289 293 298 296 294 293 290 286 286 287 290 290 288 285 288 293 295 297 299 300 300 300
307 307 308 308 302 301 297 303 304 302 285 290 297 301 303 304 297 305 307 302 299 294 295 294 296 295 293 292 291 285 292 291 289 285 279 287 277 284 289 291 292 293 294 298 299
306 307 308 308 301 296 301 304 305 298 274 292 296 307 304 298 298 299 306 303 293 294 294 290 292 292 289 291 293 288 293 290 289 284 281 282 277 282 287 287 290 292 292 293 296
306 307 308 304 303 302 303 304 299 281 274 289 295 295 294 297 297 299 300 303 301 295 295 292 297 294 292 294 293 294 289 287 286 283 273 281 280 279 284 287 289 290 293 294 294
307 308 306 306 298 305 302 296 279 275 288 286 290 294 292 293 293 294 294 291 287 284 284 291 292 295 295 289 292 292 283 271 275 277 273 283 280 281 288 291 292 292 293 293 295
307 309 305 305 304 304 296 285 272 285 286 293 293 293 289 293 291 293 291 286 291 288 282 279 277 290 293 290 287 286 284 273 270 271 275 283 278 283 291 295 294 295 295 295 295
309 301 302 302 304 300 292 277 280 286 291 290 291 287 287 291 291 291 290 288 289 290 282 280 282 294 294 294 292 286 278 286 277 277 270 278 282 287 291 291 291 291 293 293 291
299 297 300 304 303 297 287 284 284 291 294 293 285 288 285 288 287 287 288 291 291 292 292 289 283 291 294 295 294 288 289 279 276 267 270 275 278 282 285 287 290 290 291 294 297
294 293 300 304 301 292 281 285 287 295 295 292 288 287 287 287 288 287 286 291 292 291 294 292 288 285 291 287 284 286 286 287 282 279 273 273 277 286 287 288 288 290 292 295 298
291 284 298 302 287 289 287 291 290 291 297 295 291 289 287 289 287 287 285 289 294 294 288 292 287 280 281 289 291 288 285 283 273 273 277 276 279 292 293 292 293 295 297 298 298
288 288 302 301 285 287 291 290 292 294 295 295 292 292 291 289 284 289 289 294 296 294 291 291 282 272 279 283 287 285 287 287 285 283 276 277 279 290 292 294 295 296 299 300 297
289 281 289 296 295 288 289 288 289 298 296 295 292 293 292 291 291 289 289 292 294 295 299 294 285 278 274 280 285 278 285 286 285 281 280 281 283 288 291 294 297 299 299 300 300
295 286 290 284 290 292 293 292 291 291 297 297 294 293 292 289 289 289 291 290 292 296 292 289 277 281 284 286 283 283 284 286 284 285 282 284 286 291 294 296 298 300 298 298 298
292 292 293 288 295 291 292 292 292 293 294 291 291 293 292 290 289 288 291 289 288 290 288 289 280 280 278 286 286 283 286 286 287 287 287 288 288 297 299 299 299 297 298 298 297
298 299 296 290 290 290 289 291 292 293 295 295 295 293 292 293 294 293 293 293 292 289 287 288 282 277 272 284 284 282 286 287 290 293 292 288 292 297 297 298 297 295 296 297 298

GFSSW_sfc_thetae_042.txt.gz
Theta_e
313 313 313 313 313 313 313 316 318 320 322 324 322 321 321 321 321 317 311 318 320 330 326 320 316 314 312 306 308 304 293 291 294 295 296 302 300 304 306 302 303 304 313 321 327
314 314 313 313 313 312 312 312 315 317 320 322 323 321 320 320 314 310 320 327 329 332 321 314 310 311 304 303 303 299 293 294 300 301 299 301 302 304 302 301 300 307 316 325 326
314 314 314 313 313 312 312 311 311 314 317 320 323 321 319 319 307 308 325 329 330 330 321 315 312 309 302 302 301 299 295 300 303 305 304 303 303 305 301 299 301 302 312 317 321
314 314 313 313 313 312 312 311 311 312 315 319 321 320 319 314 292 314 329 329 331 326 318 315 311 304 300 298 302 296 301 303 305 306 303 301 305 302 303 302 306 306 306 308 314
313 313 312 312 312 311 311 310 310 311 313 317 319 320 314 303 304 317 327 328 324 322 315 312 308 303 298 300 301 296 298 302 304 304 302 303 302 302 302 306 307 305 307 306 306
312 311 311 311 311 311 310 310 310 310 312 315 318 319 308 295 313 318 320 323 322 319 316 315 310 306 301 300 299 300 301 301 302 302 302 301 300 300 301 305 304 305 304 304 305
311 310 310 310 310 310 310 310 310 310 312 314 316 314 304 300 310 316 318 317 319 319 313 315 314 306 304 299 303 301 296 298 299 300 300 301 298 297 302 303 302 302 302 304 304
310 310 310 310 309 309 310 310 309 310 311 312 315 312 299 312 311 310 309 309 312 317 318 319 317 308 304 303 300 296 295 290 297 299 300 300 292 298 302 299 300 301 301 302 304
309 309 309 309 309 309 309 309 310 310 311 312 307 307 296 315 307 310 308 307 310 314 315 320 315 307 304 296 291 292 286 289 293 300 299 296 291 299 303 300 298 299 299 301 303
308 308 308 308 308 308 309 309 309 308 307 308 308 299 302 300 307 309 308 308 308 311 310 310 307 301 300 295 286 287 286 287 289 294 295 294 293 297 299 299 298 298 299 299 301
308 308 308 307 308 308 305 299 293 294 298 298 299 299 301 307 309 307 307 305 308 305 297 304 297 293 297 298 294 292 292 292 291 295 290 290 289 292 295 295 295 298 298 299 300
307 307 307 308 308 308 303 294 294 297 288 299 301 302 305 306 299 304 308 302 299 296 299 298 293 297 299 299 296 293 291 288 290 293 290 289 289 293 294 295 296 298 299 298 300
307 307 307 308 308 302 299 296 302 301 289 294 300 300 302 304 298 299 305 303 298 295 292 292 294 299 298 296 295 291 286 285 287 290 288 287 286 288 291 293 295 297 298 299 298
306 307 307 308 302 301 297 302 303 302 283 288 294 301 303 303 296 304 308 303 298 294 294 292 295 295 294 293 290 286 291 290 288 285 279 287 277 283 288 289 291 291 292 295 297
306 307 308 308 301 297 301 304 304 297 267 291 295 308 303 298 298 299 306 302 294 295 294 289 292 291 289 291 293 288 292 289 287 283 280 280 277 281 285 286 288 290 291 292 293
308 308 308 305 302 302 305 303 297 280 271 289 296 295 295 296 297 299 300 302 302 296 294 291 296 293 292 293 292 293 288 286 285 280 272 279 279 279 282 286 287 289 292 293 294
309 309 307 306 298 305 304 297 276 274 286 285 290 294 292 291 293 295 294 290 288 286 285 291 290 293 294 289 292 289 282 272 270 269 272 281 279 280 286 290 289 291 292 293 293
309 308 304 305 305 302 297 284 273 282 286 293 292 292 289 292 292 293 291 287 291 288 284 281 277 289 292 289 286 286 283 274 270 271 274 282 277 282 288 291 291 291 292 292 292
305 302 301 302 303 299 290 275 279 284 290 291 291 288 288 290 291 291 290 287 289 288 281 278 280 292 292 293 290 285 279 285 276 275 270 277 280 285 287 288 289 291 293 293 292
296 297 298 305 302 297 286 283 284 288 294 293 285 288 284 287 287 288 288 290 289 291 290 287 279 290 293 294 294 287 289 276 272 266 268 274 275 279 284 286 289 289 292 295 297
293 292 297 303 300 291 282 286 287 293 295 291 287 286 287 286 287 287 287 290 291 290 292 289 284 284 292 286 284 287 284 282 280 277 272 271 277 285 285 287 288 289 291 293 295
289 283 297 303 286 290 286 288 289 291 296 294 290 290 288 288 286 286 285 287 293 292 288 291 284 274 284 287 289 287 284 282 272 271 274 275 278 290 288 288 291 294 296 299 300
287 290 300 300 285 284 291 290 290 294 294 293 289 290 291 287 284 286 288 293 294 293 289 289 280 272 278 283 286 283 286 285 283 283 271 274 278 289 289 294 296 298 300 302 302
287 279 290 295 294 289 286 288 290 296 294 293 290 292 291 287 289 288 287 292 296 296 299 294 283 278 275 277 281 277 284 285 284 279 276 278 282 287 290 293 297 299 301 300 300
292 285 289 284 291 292 292 292 291 290 294 294 292 292 291 287 288 287 289 289 293 296 293 288 278 279 282 285 282 282 283 284 279 284 277 283 284 288 292 294 297 300 299 299 299
290 290 293 291 294 289 290 289 290 291 292 290 290 292 291 289 287 287 288 287 287 289 288 288 276 279 278 285 284 281 284 285 285 286 286 286 285 293 296 300 299 296 296 295 297
297 299 295 290 289 286 287 289 291 292 294 295 294 292 291 292 293 292 292 292 291 288 286 286 280 277 274 282 282 279 284 286 286 287 288 286 291 297 297 298 294 293 292 290 290

GFSSW_sfc_thetae_045.txt.gz
Theta_e
316 316 314 314 314 314 314 312 312 314 317 319 321 323 321 321 320 315 308 315 319 327 329 320 316 313 311 306 306 302 293 290 293 294 295 300 299 303 305 301 302 303 312 316 324
315 316 315 314 315 314 313 313 313 311 313 316 319 323 322 320 313 308 316 324 328 328 321 313 310 309 303 303 303 298 291 294 299 299 297 301 301 302 302 301 300 306 317 323 325
314 314 315 314 314 313 313 312 311 311 311 314 317 320 322 318 306 305 322 325 329 327 323 318 312 308 302 301 300 298 293 298 301 303 303 301 301 304 300 299 300 300 306 313 320
313 313 313 313 313 312 312 312 312 310 310 312 315 319 320 314 291 311 327 327 330 325 320 312 309 303 299 298 301 295 300 302 303 305 303 299 302 300 302 303 305 305 306 306 312
312 312 312 312 312 312 311 311 311 311 310 311 313 317 314 302 301 314 325 328 323 322 316 311 305 303 298 299 299 296 298 302 303 303 301 302 299 300 301 305 305 306 305 305 305
311 311 311 311 310 310 310 310 311 311 311 311 313 316 307 294 310 314 316 321 321 318 313 312 307 306 301 299 298 300 300 301 301 301 301 300 299 299 299 304 304 303 304 303 304
310 310 310 310 310 310 310 310 310 310 311 311 312 311 304 300 309 314 320 320 321 319 313 315 312 305 302 298 302 300 295 297 298 299 299 300 296 295 301 303 301 303 301 303 303
309 309 309 309 309 309 310 310 309 309 310 311 312 308 300 311 312 309 309 313 319 320 317 318 315 308 303 302 299 296 294 289 296 299 299 299 291 298 301 299 299 299 301 301 302
309 309 308 308 309 308 309 309 309 310 310 310 305 303 297 314 306 309 308 306 309 313 317 318 314 305 302 296 290 290 285 288 292 298 297 296 290 298 301 299 298 299 300 299 301
308 308 308 308 308 308 309 309 309 308 306 307 305 299 302 300 306 308 308 308 307 310 310 310 307 298 297 293 284 286 286 286 288 292 294 293 292 297 299 297 297 297 299 299 300
308 308 308 307 308 309 306 298 293 291 297 292 296 297 301 306 310 306 307 304 310 305 299 304 297 293 296 295 292 291 290 288 291 294 289 289 288 292 295 293 293 295 298 299 300
308 306 307 308 308 308 303 295 294 295 287 296 297 301 305 306 299 303 307 300 302 297 299 299 293 298 301 300 297 294 290 287 290 292 289 288 287 292 294 295 296 296 297 298 300
307 306 307 308 308 302 298 296 301 299 288 292 297 300 302 304 299 299 303 303 299 296 296 292 295 301 298 296 294 291 287 285 286 289 288 286 285 287 291 292 293 295 297 298 298
308 308 307 307 302 302 297 303 301 301 275 286 291 299 302 303 296 304 307 303 299 293 295 293 294 296 295 293 293 286 291 289 287 285 279 286 277 284 287 288 290 291 291 293 295
309 309 308 308 299 298 300 304 302 297 261 288 293 307 304 297 297 298 306 302 294 294 292 289 291 292 292 293 293 288 291 288 287 282 279 280 277 282 284 286 287 289 290 291 292
310 309 308 305 302 303 305 304 296 275 271 286 294 293 294 297 296 299 300 302 301 295 294 290 295 293 291 292 293 293 287 284 283 280 272 278 278 279 282 283 286 289 292 291 292
309 309 306 305 295 305 304 297 274 267 286 285 288 294 291 292 294 296 294 291 289 286 285 290 289 293 294 289 291 288 283 272 270 269 272 280 278 281 286 288 289 289 290 290 291
307 306 305 302 304 303 296 283 271 282 283 293 293 292 290 292 293 293 290 288 291 290 285 281 280 288 291 289 286 285 283 274 271 270 273 280 277 282 286 288 288 290 290 294 295
305 298 299 302 303 300 292 278 278 282 286 290 291 288 288 290 292 291 290 288 289 288 282 279 280 291 292 292 290 285 277 283 276 273 270 277 279 284 287 288 289 290 292 292 294
294 294 295 303 302 297 286 282 284 287 289 291 285 288 284 286 288 287 288 291 289 291 290 285 280 290 291 293 292 286 288 277 272 266 268 273 275 278 282 284 288 289 290 291 293
291 287 296 301 298 288 282 285 287 292 296 290 286 285 286 285 288 286 287 290 291 290 291 288 284 286 291 285 284 285 281 281 280 276 271 271 276 283 284 286 288 289 292 292 296
288 279 296 300 283 288 287 289 290 292 295 293 290 289 286 286 286 287 285 288 292 292 287 289 283 282 285 287 289 287 284 281 272 271 277 277 277 288 287 287 290 293 298 301 303
286 286 297 296 284 286 289 290 292 293 293 291 288 290 289 286 283 286 287 292 293 291 289 288 279 272 277 282 285 283 285 283 281 278 269 271 277 288 288 291 293 296 299 302 302
287 281 287 292 294 290 288 289 289 294 292 291 289 291 288 287 288 286 286 292 294 293 298 293 282 278 273 276 281 277 283 283 281 273 275 277 279 287 289 291 294 297 301 300 300
288 286 292 282 289 291 292 292 289 288 293 293 290 291 289 286 287 286 288 289 293 297 291 288 278 279 282 284 281 282 283 283 278 282 275 280 282 286 291 293 295 300 297 297 297
291 290 291 288 289 288 289 288 289 290 291 289 289 291 291 287 286 286 287 286 287 290 289 287 277 279 277 283 283 281 283 284 284 284 284 285 285 292 294 296 300 296 295 293 292
296 297 294 288 287 285 287 291 291 291 294 295 293 291 290 291 291 291 291 291 290 287 286 285 280 277 274 281 282 278 283 283 284 285 287 283 288 293 296 297 298 293 291 289 288

GFSSW_sfc_thetae_048.txt.gz
Theta_e
316 316 316 316 316 316 316 315 314 311 313 314 315 317 321 323 322 315 308 313 318 327 327 320 321 315 311 305 304 302 293 289 292 293 295 299 297 302 304 300 301 302 306 315 327
314 314 315 315 315 315 315 314 314 313 311 313 313 316 318 322 313 308 315 322 326 326 317 316 312 309 303 303 302 297 291 293 298 298 297 299 299 300 301 300 299 303 312 322 333
314 313 313 313 313 314 313 314 313 312 312 311 312 314 317 319 304 302 319 324 325 325 320 316 313 308 301 300 299 298 292 297 300 302 303 300 300 302 298 297 299 299 303 311 321
313 313 312 312 312 312 312 312 312 312 312 311 311 313 316 313 292 307 323 323 325 322 320 313 309 302 299 297 300 295 300 300 302 304 302 298 300 298 301 301 304 304 305 304 309
311 311 311 311 311 311 311 311 312 311 311 311 311 311 311 301 300 313 321 321 318 320 315 310 306 302 297 299 299 296 297 301 303 303 301 301 298 299 299 304 305 305 305 304 303
311 310 310 310 310 310 310 310 310 311 311 311 311 311 305 296 310 311 311 320 317 318 315 311 307 305 301 299 297 299 300 300 301 300 300 299 298 298 299 301 302 302 304 303 303
310 310 310 309 309 309 310 310 310 310 310 310 310 308 302 301 309 310 316 317 318 319 313 312 311 306 302 298 302 299 295 296 298 299 298 299 295 295 300 302 301 301 300 303 303
310 309 309 309 309 309 309 309 309 309 310 310 310 306 297 312 314 311 309 316 319 318 317 316 313 306 302 301 298 295 294 288 295 298 299 298 289 297 300 298 298 298 298 299 302
310 309 309 308 308 309 309 310 310 310 310 309 303 301 296 313 306 309 308 310 315 315 316 317 312 304 301 294 290 292 284 287 292 297 296 295 289 296 298 296 296 297 296 298 299
309 309 308 308 308 308 309 309 309 306 305 306 303 295 302 299 306 307 308 310 308 310 309 308 304 298 294 293 284 287 285 285 288 292 293 291 290 295 297 297 296 296 297 297 298
308 308 307 307 308 308 306 298 291 290 295 290 293 295 300 305 309 306 306 307 309 306 300 304 297 293 295 294 292 290 288 287 289 293 289 289 288 291 295 292 292 293 295 297 299
309 308 308 307 308 308 301 293 292 295 286 294 295 297 300 306 299 303 307 300 302 297 301 297 293 299 299 298 294 292 288 286 290 291 288 288 287 291 294 294 295 295 296 297 298
310 309 309 308 307 301 296 296 299 298 287 291 296 297 301 304 298 299 303 302 299 297 296 293 296 301 298 297 295 293 290 288 286 288 287 285 285 286 290 291 292 293 294 295 295
310 310 309 308 300 302 296 302 300 302 271 285 290 298 301 303 295 304 305 303 299 294 295 293 298 298 296 294 295 289 292 289 287 284 280 285 278 284 287 287 288 288 289 291 292
310 310 308 306 300 297 300 303 303 294 259 287 292 306 303 297 298 299 306 302 295 295 295 289 294 294 293 294 296 288 291 288 286 282 278 280 278 282 284 284 286 288 290 290 290
309 309 307 303 302 302 302 301 294 273 267 285 294 291 294 296 297 300 300 303 301 295 294 291 295 294 292 292 293 292 287 284 282 280 273 278 277 279 282 282 286 287 290 292 292
307 307 305 304 295 305 303 293 272 268 286 285 287 292 293 292 294 296 294 291 290 285 283 290 290 294 293 288 291 288 285 279 271 270 272 279 278 280 284 287 286 287 290 292 293
307 306 304 303 305 300 296 282 269 281 283 291 291 292 290 292 293 293 291 288 291 289 283 280 282 290 291 289 286 283 283 275 270 271 274 280 276 281 286 287 288 289 290 292 292
304 296 299 302 302 298 287 274 274 281 286 287 290 287 288 291 292 290 288 286 289 289 283 280 280 290 291 291 289 284 278 283 276 273 270 276 279 282 285 285 286 289 290 291 292
293 292 293 302 303 294 280 281 283 287 290 291 285 287 283 288 287 288 288 290 289 291 289 284 280 288 290 292 291 286 287 277 272 269 270 273 274 277 281 284 288 289 290 291 293
290 286 294 300 296 287 282 284 287 292 293 289 285 285 285 286 287 285 286 289 292 289 290 287 284 285 290 285 284 284 280 280 279 276 272 271 275 282 283 285 286 289 290 292 296
287 281 295 297 285 287 287 289 292 291 294 291 290 288 285 286 285 285 285 287 292 292 287 288 284 283 283 286 287 286 283 280 273 271 277 275 276 286 285 287 288 290 293 298 303
285 285 295 295 286 287 289 289 292 292 292 289 288 289 288 285 283 285 286 292 293 291 288 288 279 273 281 285 285 283 284 282 280 277 269 270 276 287 286 289 291 291 294 299 299
286 282 288 291 294 290 289 290 289 293 291 290 289 290 288 286 287 285 286 292 292 292 297 291 281 278 274 277 281 278 283 282 279 272 274 275 278 285 287 288 291 293 297 298 298
287 287 292 286 290 290 291 291 287 287 291 291 290 289 288 285 286 285 287 288 292 296 290 287 277 278 282 283 281 282 283 282 277 280 274 278 280 285 288 290 292 295 297 296 294
290 288 293 289 290 289 289 287 287 289 289 288 288 290 289 286 286 284 286 286 286 289 289 286 279 279 276 283 283 281 283 283 282 283 282 284 283 291 293 295 297 296 295 292 290
295 296 292 288 285 284 285 289 290 290 293 294 292 290 289 290 290 290 289 289 289 287 286 286 280 277 273 280 281 278 282 283 283 284 286 281 287 291 291 295 297 295 292 289 288

GFSSW_sfc_thetae_051.txt.gz
Theta_e
316 316 315 315 314 315 315 316 315 315 314 312 312 314 315 317 319 316 309 313 317 327 326 319 321 319 312 308 307 305 298 293 295 295 298 302 301 306 307 305 306 308 312 319 328
315 315 314 314 314 314 313 314 314 314 314 313 312 312 313 316 311 310 316 323 324 325 317 314 312 312 306 305 305 302 296 295 300 300 299 302 303 305 305 304 305 309 311 328 333
313 313 313 313 313 313 312 312 313 313 313 312 313 311 312 314 306 306 322 325 325 325 319 319 316 311 304 303 302 300 295 299 301 302 304 303 304 306 304 302 305 305 308 321 329
312 312 312 312 312 311 311 311 312 312 312 312 312 312 311 309 293 307 320 324 326 320 318 315 310 305 301 298 302 297 300 301 303 305 304 302 304 303 304 305 308 309 309 309 327
312 311 311 311 311 310 310 310 311 311 311 311 312 311 308 302 302 312 318 316 319 317 314 311 307 306 300 301 300 298 300 303 304 304 304 304 302 302 302 306 308 308 308 309 309
311 311 310 310 310 309 309 310 310 310 310 311 311 310 302 293 310 312 310 313 315 314 314 312 308 307 303 301 300 301 301 301 303 302 303 300 300 301 303 305 305 305 307 307 308
311 310 310 309 309 309 309 309 309 309 310 310 310 306 299 297 310 313 311 316 316 314 313 314 311 306 303 299 303 300 297 299 300 301 300 302 297 297 303 304 304 305 304 306 307
311 310 310 309 309 309 309 309 309 309 310 310 309 304 294 311 314 311 311 313 317 320 318 316 313 307 303 303 300 297 297 291 298 299 300 300 291 299 302 301 302 303 303 302 305
310 309 309 309 308 309 308 309 310 310 310 309 303 299 293 313 307 311 310 306 315 316 316 316 312 306 303 295 293 294 287 289 293 299 298 297 292 299 301 300 300 301 301 301 302
310 310 309 308 307 308 309 309 308 306 305 306 303 293 298 299 307 308 308 313 310 311 308 307 305 299 296 293 285 288 287 290 290 294 295 294 293 297 299 297 298 299 300 301 302
311 310 310 308 307 308 305 298 291 289 295 290 291 292 299 306 310 307 307 310 309 305 297 302 296 291 295 295 293 292 290 289 292 295 292 292 291 293 296 296 296 297 298 299 301
310 310 310 309 307 307 301 292 291 294 286 293 295 295 298 301 299 303 308 302 302 297 295 297 292 297 299 296 293 292 290 289 292 293 292 289 289 293 296 295 296 296 297 298 299
310 310 310 309 307 301 296 295 301 298 287 290 296 295 295 303 298 299 303 302 299 295 291 289 295 301 298 296 293 292 289 288 289 290 289 287 288 289 292 293 293 293 294 295 296
310 310 310 308 299 300 295 302 302 300 271 285 291 296 301 303 296 304 305 303 299 295 293 292 299 298 297 295 296 290 295 291 288 287 283 287 282 287 288 289 290 292 293 293 294
308 309 308 307 299 297 300 303 302 290 263 285 291 304 303 297 297 298 306 303 295 295 295 290 296 294 293 294 297 291 292 289 287 284 284 283 282 285 287 287 288 291 293 295 295
308 308 307 300 301 301 301 299 292 271 266 284 293 291 294 296 297 300 301 303 302 295 294 291 297 296 294 294 295 292 287 285 284 283 279 281 281 282 284 287 289 291 293 294 296
309 307 304 303 295 302 301 290 273 272 283 286 287 288 292 292 294 296 294 292 290 285 285 289 290 293 295 289 292 290 287 280 276 276 278 281 280 283 287 289 290 292 293 294 296
309 305 304 303 300 299 297 279 270 282 283 290 288 292 289 291 292 293 291 287 291 290 285 283 282 290 293 290 287 286 287 280 274 274 276 281 278 283 288 289 291 293 293 294 295
304 295 297 300 302 297 289 274 273 280 286 287 291 287 288 291 291 290 289 287 289 289 284 281 282 291 291 292 291 286 282 285 277 276 275 278 281 284 288 289 291 291 293 295 296
292 291 292 300 300 292 280 282 284 288 290 291 285 287 285 288 288 287 287 289 289 291 290 285 280 289 290 293 291 288 287 280 277 273 273 276 277 279 284 287 290 291 292 294 296
289 286 293 299 295 290 283 286 287 293 292 289 285 285 287 285 287 286 286 289 291 290 290 288 285 286 290 286 284 285 283 281 281 278 274 273 277 284 285 288 289 291 293 294 299
286 281 294 296 285 286 287 289 293 291 293 290 289 288 285 285 285 285 284 288 292 292 287 288 285 283 284 287 289 287 284 282 276 275 276 276 278 288 288 290 290 291 294 297 302
285 285 294 294 284 286 291 290 292 291 290 288 287 289 288 285 283 285 286 292 293 291 288 288 281 277 281 285 287 285 284 283 281 279 275 274 278 288 288 289 291 292 294 300 300
286 281 287 290 292 288 289 287 288 292 290 290 288 289 287 285 287 285 285 291 292 292 296 291 282 280 276 279 282 280 283 283 281 276 276 277 280 285 288 289 292 293 296 299 297
286 286 291 282 287 288 290 288 286 286 291 291 289 288 287 284 285 284 287 288 292 295 290 288 279 280 282 284 282 283 283 282 278 280 277 280 280 286 288 290 293 296 298 296 293
290 289 292 289 289 288 289 286 287 288 288 287 287 289 288 285 285 284 286 285 286 288 287 287 281 280 278 283 283 282 284 284 283 283 283 283 284 292 293 293 296 298 295 292 290
295 296 292 288 284 282 285 288 289 289 292 293 291 288 287 289 289 289 289 289 289 287 286 287 281 278 274 281 282 279 282 283 283 284 286 282 287 291 291 293 295 295 292 289 288

GFSSW_sfc_thetae_054.txt.gz
Theta_e
315 315 315 315 315 314 315 315 314 315 315 315 315 313 313 314 316 313 309 316 318 326 326 318 321 322 317 312 312 313 302 299 301 301 303 307 306 309 311 309 311 312 315 324 330
314 314 314 314 313 313 313 313 313 313 314 314 314 313 312 312 308 306 316 324 325 325 320 313 314 318 310 309 308 305 300 300 305 305 303 306 306 309 308 308 309 312 317 331 335
313 313 313 313 312 312 312 312 312 312 312 313 313 313 312 312 302 305 323 327 326 324 319 317 317 315 307 309 306 304 300 303 304 306 306 306 307 310 307 306 309 309 314 326 331
313 313 312 312 312 311 311 311 311 311 311 312 312 312 311 306 290 312 322 329 327 321 318 314 313 308 305 302 307 301 304 304 306 307 306 306 309 307 308 308 312 314 314 316 329
313 312 312 311 311 310 310 310 310 311 311 311 311 311 308 298 299 315 317 317 322 319 313 312 309 308 303 305 305 302 303 305 306 307 307 307 306 306 307 311 313 313 313 314 315
313 312 312 311 310 310 310 310 310 310 310 310 310 309 302 292 309 315 314 313 316 316 312 314 310 311 305 305 303 305 304 304 305 306 305 304 305 306 307 311 310 311 311 313 314
312 311 310 311 310 310 309 310 310 310 310 310 310 307 299 296 311 314 313 313 317 316 310 316 314 310 308 302 307 304 300 302 303 304 302 305 300 301 307 309 307 308 310 312 313
312 311 311 310 309 309 309 309 309 310 310 310 309 305 293 306 308 308 313 312 317 317 315 318 317 311 306 307 304 300 299 294 300 303 304 303 294 302 306 307 306 307 309 310 311
312 312 312 310 309 308 308 309 310 310 310 310 304 300 292 310 305 309 313 309 315 315 317 318 313 307 305 299 296 298 291 292 296 303 301 300 295 301 306 305 305 306 307 308 309
311 311 311 310 308 307 308 309 309 307 307 307 304 295 297 298 306 310 313 311 311 310 309 309 305 301 301 297 287 291 291 293 293 298 300 298 297 302 305 304 304 305 306 307 308
311 311 311 310 309 306 307 304 297 295 299 292 292 294 297 302 311 307 308 310 311 306 297 303 296 295 298 298 296 295 293 292 295 297 297 297 297 300 303 303 303 304 305 307 308
309 310 311 309 308 308 306 297 295 298 289 295 295 296 297 299 299 304 309 304 303 296 299 296 293 299 301 300 297 295 292 292 295 296 296 295 295 299 301 302 301 301 303 304 304
309 309 310 309 308 305 301 298 303 302 289 291 296 294 295 299 298 298 304 303 300 295 296 292 296 301 299 297 294 294 292 293 292 294 294 293 293 294 295 297 298 298 299 300 301
309 310 308 307 303 303 297 303 304 303 284 285 290 293 296 299 297 305 306 302 299 290 293 291 299 298 297 295 296 291 297 295 293 292 289 292 287 291 293 295 297 299 300 302 304
309 309 308 307 302 297 301 305 305 296 273 287 291 302 301 297 299 298 307 303 294 293 293 290 293 296 295 296 299 294 297 293 292 291 290 289 288 289 292 292 295 299 301 303 305
310 308 307 305 304 303 305 304 300 283 274 286 292 291 293 296 298 300 302 304 302 295 296 293 299 296 293 295 298 295 293 291 291 290 285 287 286 287 290 292 295 299 301 302 305
309 309 306 305 297 306 306 298 284 279 287 285 288 291 293 293 295 297 294 294 291 287 287 290 290 295 296 289 293 294 292 284 283 283 284 285 284 289 292 295 296 297 300 302 305
308 307 305 305 307 305 302 290 280 283 284 290 289 292 289 293 294 293 289 291 294 292 289 286 283 290 294 293 291 292 291 287 279 279 282 284 282 288 294 295 296 297 299 300 303
305 304 304 306 307 305 294 284 282 283 287 287 291 287 288 291 292 291 290 291 292 294 288 286 284 293 294 294 296 289 288 289 283 281 282 284 287 290 292 293 295 297 300 301 303
302 300 300 304 306 301 293 285 286 289 291 292 286 289 286 288 289 290 291 293 291 293 294 290 284 291 291 294 294 292 292 285 286 279 278 281 282 286 289 292 294 297 300 301 304
299 296 300 305 303 299 286 288 289 294 294 291 289 289 290 289 290 289 289 292 294 292 295 293 290 287 292 290 289 289 288 287 287 284 280 279 282 290 292 294 294 297 299 301 305
297 294 302 304 295 295 291 290 294 294 296 294 294 292 291 290 289 289 288 292 296 295 291 292 291 285 287 290 292 291 289 288 285 281 283 282 284 293 294 295 295 298 300 302 305
293 295 302 302 290 290 292 292 294 294 293 292 291 293 292 290 288 290 290 295 295 294 292 293 288 282 283 287 290 288 288 288 286 286 282 282 285 293 294 295 297 298 300 303 303
295 292 297 301 298 294 291 291 292 296 294 293 292 293 292 289 291 289 290 293 295 296 296 295 287 285 283 284 288 285 287 288 288 284 283 284 286 291 293 294 298 299 302 303 300
295 289 292 290 294 293 294 293 290 290 295 295 292 292 291 288 289 288 291 292 295 295 293 293 286 286 286 287 286 286 287 286 284 287 286 286 286 290 294 296 297 299 302 300 296
291 290 293 290 292 292 292 291 291 292 293 291 291 292 293 290 290 288 291 291 291 293 292 291 285 286 284 286 286 284 287 288 287 288 287 288 288 296 298 298 298 300 300 297 295
296 296 293 291 290 291 292 292 292 294 295 296 295 293 292 293 295 295 295 296 295 292 291 290 287 285 282 284 285 283 286 287 288 289 289 286 291 296 296 296 298 300 298 295 293

GFSSW_sfc_thetae_057.txt.gz
Theta_e
315 315 315 314 314 314 314 314 314 315 314 315 316 316 313 313 313 309 306 318 320 326 326 317 317 322 320 313 314 315 303 300 302 303 306 312 309 312 313 311 311 313 315 326 332
315 315 314 314 313 313 313 312 313 313 313 314 314 315 314 312 307 303 314 324 326 324 320 312 312 317 312 310 310 307 303 302 308 308 306 310 308 310 308 308 309 311 318 329 332
314 314 314 314 313 312 312 312 312 312 312 312 313 313 314 311 302 301 318 324 328 325 320 315 316 315 308 309 307 305 300 305 306 307 307 307 307 310 308 306 309 310 314 324 330
313 314 313 313 312 312 311 311 311 311 311 312 312 312 312 308 290 310 321 325 328 323 317 313 310 309 306 303 307 301 304 305 306 307 306 304 308 307 309 309 313 314 316 317 327
314 313 313 312 312 312 311 311 311 311 311 311 311 311 308 299 299 311 321 324 323 320 312 310 306 307 303 305 305 302 305 306 307 307 307 307 306 307 308 312 314 315 315 315 316
313 313 312 312 311 311 311 310 311 311 310 310 310 310 303 293 308 309 315 315 319 316 311 311 307 311 306 305 303 305 305 305 306 306 307 305 305 307 309 313 312 312 312 313 315
313 313 312 312 311 310 310 310 310 310 310 310 310 307 300 297 308 315 313 312 315 317 310 312 312 308 308 303 308 305 301 303 304 305 304 306 301 303 309 310 309 309 310 311 312
313 313 312 312 311 309 309 309 310 310 310 310 310 306 295 306 309 306 310 311 314 318 315 315 315 310 306 307 304 300 301 294 301 303 304 303 295 303 308 308 307 308 308 309 310
313 311 312 311 311 309 307 308 309 310 311 310 305 301 293 308 301 306 309 309 311 316 314 315 314 307 306 299 296 298 291 293 296 303 302 301 296 303 306 306 306 307 308 308 309
311 311 312 311 310 307 306 309 309 308 308 307 305 295 298 295 303 306 311 311 308 310 307 307 306 300 299 297 288 290 291 294 293 299 300 298 298 302 304 304 305 306 307 308 308
311 311 311 310 309 306 307 305 298 297 300 294 294 294 296 301 306 303 311 309 309 305 297 303 297 293 297 298 297 295 293 293 295 300 298 297 298 300 303 304 304 305 305 306 307
311 310 310 309 308 307 307 298 298 299 290 296 296 296 298 300 294 303 309 301 302 296 299 298 289 299 301 299 297 296 293 293 296 298 297 296 296 300 302 302 303 304 305 306 307
311 310 308 309 307 306 302 299 304 303 290 292 296 295 294 299 295 300 305 303 299 296 296 293 295 299 298 297 295 294 292 292 293 296 297 295 293 296 298 299 300 301 302 303 304
310 310 308 308 303 304 298 304 306 304 286 286 291 295 297 298 293 303 307 301 298 295 296 293 299 297 297 295 296 291 297 295 294 292 287 296 286 294 294 296 298 300 301 303 306
309 310 309 308 303 299 302 305 306 300 275 288 290 300 298 296 297 298 307 303 293 291 295 291 294 295 294 296 298 294 299 296 295 293 292 291 289 291 294 293 296 299 302 304 307
309 309 309 307 307 304 306 305 300 284 276 286 293 291 294 297 298 300 300 303 301 293 294 293 297 297 297 296 299 300 296 294 294 292 286 292 290 288 290 294 296 300 302 304 306
308 309 308 307 301 308 307 300 284 280 288 287 288 294 294 294 295 295 293 293 291 286 285 287 288 295 296 291 295 297 293 285 283 284 284 289 287 291 295 297 298 299 302 304 306
308 307 308 306 309 307 301 291 282 285 285 292 291 293 290 294 293 294 294 291 297 295 288 287 283 288 293 292 291 293 294 288 280 282 285 286 284 290 297 299 300 301 302 303 305
307 307 305 308 308 306 295 287 283 285 289 289 293 289 289 293 293 292 293 292 295 296 288 287 285 292 293 295 296 291 290 292 285 285 284 286 289 292 295 296 297 300 302 303 305
304 302 303 307 308 303 294 285 287 290 292 293 287 291 287 289 290 292 292 295 293 295 297 292 285 291 293 296 295 294 295 287 289 280 279 283 285 287 289 292 296 299 301 303 305
303 298 304 308 306 301 288 289 291 296 296 293 291 290 291 290 292 291 291 294 296 294 297 296 291 288 293 291 290 290 290 289 289 286 282 280 283 292 292 294 295 298 301 302 305
301 296 306 309 298 299 293 293 294 296 298 296 296 294 292 293 291 291 291 294 297 297 292 295 292 286 288 292 294 294 292 292 287 284 285 284 284 294 296 297 297 298 301 303 306
295 299 307 308 292 294 295 295 296 295 295 294 293 295 295 293 289 292 292 296 297 296 294 295 290 283 284 289 292 289 292 291 289 289 284 283 285 296 296 296 298 299 301 304 304
298 292 300 305 302 297 294 293 293 298 295 295 294 295 294 292 294 291 292 295 297 297 297 298 290 287 284 286 290 286 289 290 289 285 285 286 288 291 294 295 299 300 302 304 302
297 291 293 292 296 296 296 295 292 292 296 297 293 293 293 290 290 290 293 294 296 295 295 295 287 287 288 289 288 288 288 288 285 288 287 288 288 292 294 297 298 300 303 302 300
291 290 293 291 295 295 294 293 292 294 294 293 292 294 294 291 292 290 293 293 292 295 294 294 287 288 285 288 288 286 289 289 289 289 289 290 289 296 298 299 299 300 302 301 299
296 298 293 292 294 293 292 294 294 296 297 297 296 294 293 295 297 297 298 297 296 294 293 292 289 287 284 286 286 283 287 289 290 291 291 286 292 297 297 298 299 301 302 299 298

GFSSW_sfc_thetae_060.txt.gz
Theta_e
316 315 316 316 315 314 314 314 314 314 314 314 315 316 316 315 313 308 304 314 320 325 323 315 315 317 321 315 314 312 301 298 301 302 304 310 306 309 310 306 306 307 318 324 336
315 315 315 315 315 314 313 313 313 313 313 313 314 314 315 315 307 302 311 320 327 328 316 311 308 314 313 310 309 303 299 300 307 306 304 308 308 307 305 304 303 305 319 326 334
314 314 315 315 314 314 313 312 312 312 311 312 313 313 313 312 301 300 317 320 326 326 317 316 312 314 309 308 306 303 298 305 307 307 306 305 306 307 303 301 304 304 310 323 327
315 315 315 314 314 313 312 312 312 311 311 312 312 312 311 307 289 308 321 321 326 323 316 314 307 306 305 302 306 299 303 304 307 306 305 303 306 303 304 304 309 311 313 318 323
315 315 315 314 314 313 312 312 312 311 311 311 311 310 306 298 298 309 320 319 320 321 312 310 304 306 302 304 304 301 302 304 306 306 305 306 303 302 303 307 310 312 312 309 309
315 314 313 313 313 313 312 311 311 311 310 310 309 309 301 291 306 309 311 314 316 316 313 310 305 309 304 304 302 303 304 304 304 305 305 302 302 303 304 307 308 308 306 307 309
314 313 313 312 312 312 311 310 310 310 310 309 309 306 299 295 307 314 313 309 313 315 311 311 310 305 307 303 307 304 299 302 301 303 303 305 299 300 305 306 305 305 305 307 307
314 313 312 312 312 311 309 309 309 309 310 310 310 305 293 306 307 305 310 308 312 313 315 312 312 307 305 307 304 300 298 293 300 302 303 302 293 302 306 304 303 303 302 304 306
313 312 312 312 311 309 308 307 309 309 310 310 305 300 292 309 300 303 305 303 308 310 315 315 312 305 304 298 295 297 289 292 295 302 301 299 294 301 305 303 301 302 302 302 303
312 312 312 311 310 308 307 308 309 308 308 307 304 295 297 294 302 303 307 309 305 308 308 306 305 298 298 295 286 289 290 292 292 298 299 297 295 299 301 301 300 300 300 301 303
311 311 310 310 309 308 308 306 298 297 299 294 294 293 296 300 306 303 307 302 301 305 296 301 295 291 294 296 296 294 292 291 294 299 297 296 296 298 300 300 299 300 300 301 302
310 311 310 310 309 309 306 297 297 298 289 297 296 295 299 299 294 300 307 296 295 294 298 295 290 297 299 298 296 293 291 290 294 298 296 294 294 297 299 300 301 300 299 300 301
310 310 310 309 309 307 301 299 304 303 289 292 296 295 296 298 293 296 304 300 294 293 294 291 294 300 298 296 294 292 290 290 291 294 295 293 290 294 298 297 298 297 297 299 298
308 309 310 309 304 304 299 304 306 304 284 287 291 295 297 295 290 304 306 301 298 293 296 295 299 297 296 294 295 289 295 294 293 290 284 293 279 290 293 293 295 295 294 296 299
307 309 310 309 304 299 302 306 306 300 273 289 290 301 298 290 295 298 307 302 294 294 295 290 294 294 291 295 297 292 296 294 293 290 288 288 282 287 291 290 293 295 297 299 301
307 308 309 307 306 304 307 306 301 283 276 285 290 290 291 295 296 299 300 303 302 293 294 292 297 297 294 298 298 299 294 293 292 289 282 288 286 283 287 291 293 296 298 301 302
307 308 306 306 300 308 307 299 283 279 289 286 287 293 292 292 292 292 292 293 290 286 285 290 289 294 296 293 298 295 289 281 281 280 280 288 285 285 291 293 295 296 298 300 302
308 308 308 306 309 306 301 290 279 286 285 292 292 294 290 293 291 293 294 291 295 292 287 285 282 288 293 293 290 292 290 281 276 277 279 285 280 285 293 296 297 299 300 300 301
309 308 306 309 309 305 294 283 282 285 289 289 293 289 289 293 293 293 292 291 295 295 287 286 284 291 293 296 295 291 287 289 282 281 278 281 285 289 293 293 294 297 299 299 301
303 302 304 308 309 301 293 284 287 291 293 293 288 291 286 290 290 292 291 295 293 295 297 291 283 289 293 295 294 293 295 283 281 273 275 279 281 283 287 289 293 295 297 299 301
303 298 303 309 307 298 287 289 292 296 296 292 291 290 290 290 292 290 290 294 295 294 295 294 290 287 292 289 288 289 288 287 285 282 276 274 278 286 289 291 291 295 298 298 301
300 293 305 309 295 298 292 293 294 296 298 296 295 294 292 292 290 290 290 292 297 296 291 293 290 284 287 292 294 293 291 290 284 281 279 278 279 290 291 292 295 296 299 300 303
293 297 307 307 291 292 295 295 296 295 295 294 293 295 295 292 288 291 292 297 297 295 292 293 286 279 281 287 290 288 291 291 287 286 281 277 278 292 292 293 295 296 298 301 302
296 289 295 302 300 295 294 293 293 298 296 296 294 295 293 291 293 290 291 295 297 295 298 296 288 284 278 284 288 283 287 289 285 277 280 280 283 287 290 292 295 297 298 300 299
295 290 292 288 294 294 295 295 292 292 296 297 293 293 293 289 289 289 292 293 296 295 294 293 282 282 286 289 286 286 287 287 279 284 278 284 285 288 290 292 295 296 301 300 298
290 289 292 290 293 293 293 293 292 294 294 293 292 294 293 290 290 289 291 291 290 292 290 292 282 283 281 287 287 283 287 288 287 287 286 287 286 291 294 296 296 297 300 299 297
294 295 292 290 291 291 292 293 293 296 297 297 296 293 292 294 295 295 295 294 294 291 289 289 284 281 277 284 284 279 285 287 287 288 288 283 288 294 294 297 297 299 301 298 296

GFSSW_sfc_thetae_063.txt.gz
Theta_e
315 316 315 315 316 316 315 314 314 314 313 314 314 315 315 316 315 307 303 311 317 327 322 315 315 315 317 316 312 313 301 298 300 302 303 307 305 306 307 304 305 310 318 331 336
316 316 316 316 315 315 314 314 313 312 312 313 313 313 314 314 308 303 310 317 323 327 317 310 307 311 310 311 310 303 297 300 305 307 304 305 306 306 302 302 302 314 330 333 334
316 316 316 316 315 315 314 313 313 312 312 312 312 312 312 312 301 300 318 319 321 325 319 315 309 310 307 307 306 303 296 303 306 309 305 305 305 305 301 299 301 306 319 328 330
316 316 316 315 314 315 314 313 312 312 311 311 312 312 312 306 287 304 317 321 321 318 317 312 307 305 304 302 307 298 303 303 306 307 307 303 306 301 301 302 308 306 319 323 324
315 315 314 314 313 313 313 312 311 311 311 311 311 310 306 296 295 308 316 317 313 317 312 310 304 305 301 304 303 300 302 304 305 304 303 305 302 300 300 305 309 310 309 313 320
315 314 313 313 313 312 312 312 310 310 310 310 309 309 301 290 305 308 309 309 312 314 311 311 305 307 303 303 301 303 303 303 304 303 303 301 302 302 302 305 305 307 306 304 306
314 313 312 313 313 312 311 309 309 309 309 309 309 306 298 294 305 309 311 310 313 313 310 311 310 305 304 302 305 302 299 300 301 302 301 303 299 299 302 303 302 303 304 305 305
313 313 312 312 312 311 310 308 308 308 308 309 309 304 293 305 304 303 305 306 312 313 314 314 311 306 303 305 303 299 297 292 299 301 302 301 292 300 303 300 302 300 299 300 304
312 313 312 312 310 309 308 307 307 308 309 310 304 300 291 308 301 302 301 301 308 310 311 314 309 304 301 296 294 296 287 289 294 300 301 298 293 300 303 300 301 300 300 301 301
311 311 311 311 310 309 309 309 309 307 307 307 304 294 297 295 301 303 304 308 304 306 305 306 303 295 296 293 286 289 287 290 290 296 298 296 294 299 300 299 299 299 299 299 301
310 310 311 310 310 310 306 301 294 293 298 294 294 293 295 299 304 302 305 302 301 300 297 301 294 289 293 296 294 293 291 289 293 297 296 295 295 298 299 296 297 298 299 299 300
308 310 310 311 310 310 304 296 296 296 288 296 297 295 298 300 293 299 304 294 293 288 298 295 290 295 297 297 295 292 290 290 292 297 296 295 294 298 298 297 298 298 298 299 299
308 309 310 311 311 304 299 298 302 301 289 292 296 295 296 298 293 296 299 297 290 289 295 291 293 298 297 294 293 291 287 287 289 292 292 291 289 291 296 297 299 297 296 296 296
308 308 309 311 302 300 297 303 303 302 284 288 291 294 297 295 291 302 299 298 290 291 293 293 297 296 294 293 293 288 293 292 291 288 283 291 280 286 292 293 295 294 293 293 299
308 308 309 309 300 297 301 303 302 299 273 289 291 301 298 292 295 294 305 300 288 294 293 291 292 293 293 294 296 290 295 293 291 287 286 287 281 285 290 289 291 293 293 294 298
307 308 308 304 304 304 305 303 300 280 275 285 290 290 290 293 295 299 300 304 301 295 294 293 298 297 294 297 298 298 293 290 289 287 279 286 283 282 285 291 290 292 296 299 301
308 309 306 306 297 305 305 297 278 275 289 287 287 293 292 291 292 294 293 293 290 283 285 290 290 294 298 293 296 296 286 277 277 275 277 285 284 286 289 290 292 294 296 299 301
309 310 307 305 304 305 297 286 274 283 284 292 293 293 289 292 291 293 293 290 293 289 285 282 283 290 294 291 292 293 287 278 273 274 277 284 282 286 290 293 296 297 298 299 300
307 301 299 303 305 301 292 277 281 281 289 289 291 288 288 293 292 292 291 291 291 292 284 283 282 292 293 296 295 291 284 289 280 278 274 279 283 289 292 293 295 296 297 297 300
296 296 297 305 304 297 285 283 285 289 292 293 287 291 285 288 290 289 288 293 293 295 295 288 282 290 293 296 296 292 294 283 278 273 273 276 278 282 287 289 293 294 294 297 300
295 292 300 305 301 295 282 282 291 295 294 292 290 288 289 289 290 288 288 291 293 292 296 294 287 287 292 289 289 289 287 286 285 280 275 273 277 286 290 292 291 294 296 297 299
291 287 301 303 288 291 285 291 295 295 296 294 295 293 290 290 288 288 287 290 295 294 291 293 289 283 287 293 295 293 290 288 279 278 277 275 278 288 290 292 293 295 298 299 300
291 289 300 301 289 288 291 294 295 294 293 293 291 293 293 291 286 289 290 295 295 293 290 292 285 278 280 286 289 288 290 292 287 283 276 273 278 288 290 292 294 295 297 300 298
290 284 289 296 294 293 290 290 292 296 294 294 292 292 290 288 290 288 288 294 295 293 299 296 287 283 277 281 285 282 288 288 285 280 281 279 281 285 288 291 292 295 297 299 297
288 286 291 285 290 288 291 293 290 290 294 294 291 291 290 286 287 287 290 290 293 295 292 291 280 281 285 288 284 285 286 286 280 284 278 282 284 288 289 291 293 296 299 298 296
285 284 287 288 290 288 292 292 290 293 292 291 289 291 291 288 287 286 289 288 288 289 288 290 279 281 280 287 286 282 286 287 286 286 285 285 285 290 291 295 295 296 299 298 296
288 289 289 286 289 289 289 290 292 294 294 295 293 291 290 292 292 291 291 291 291 289 287 287 282 279 276 283 283 279 284 285 286 287 287 282 287 291 292 295 295 296 299 298 295

GFSSW_sfc_thetae_066.txt.gz
Theta_e
316 317 317 317 317 316 316 315 315 314 314 313 313 313 315 315 315 309 302 309 316 325 326 314 313 315 316 313 315 315 301 297 298 300 303 309 304 305 305 304 309 315 320 328 335
316 317 317 316 316 315 316 315 314 313 313 312 312 313 313 314 308 304 311 317 319 324 316 308 305 312 310 311 309 305 300 300 305 305 303 308 308 307 301 304 311 323 330 333 333
316 316 316 316 315 314 314 315 313 313 312 311 312 312 312 311 300 299 317 320 320 319 317 311 308 310 306 308 307 303 299 304 306 307 308 307 307 309 301 298 306 319 324 328 329
315 315 315 314 315 314 313 313 313 312 311 311 311 311 311 306 285 304 316 320 320 316 315 311 305 305 302 301 307 300 304 306 306 309 308 305 308 306 301 302 306 319 327 326 326
315 315 314 314 314 314 313 313 311 311 310 310 310 309 305 295 295 306 314 312 308 313 310 309 301 304 300 302 305 301 303 305 306 308 307 308 305 304 301 306 307 315 322 324 324
314 314 313 313 313 313 312 311 310 310 309 309 309 310 300 289 303 306 307 309 309 309 309 310 305 306 302 303 302 304 304 304 305 303 305 304 304 303 301 303 304 307 307 309 319
313 313 312 312 312 312 311 310 310 309 309 310 310 305 298 293 303 306 306 305 311 309 308 311 309 305 303 300 306 302 299 301 302 302 301 302 298 298 302 303 301 300 302 305 305
312 313 312 311 311 310 309 308 307 308 309 309 309 304 292 305 303 304 305 305 311 313 313 314 313 305 301 304 302 298 297 293 299 301 302 299 292 299 304 300 301 298 300 299 302
311 312 312 311 311 310 310 308 308 308 309 309 303 298 289 307 301 304 303 300 307 310 313 314 310 300 300 296 293 295 288 289 294 300 300 297 293 300 302 300 300 300 299 299 300
309 310 311 312 311 311 312 310 308 307 306 307 304 293 296 294 300 302 304 306 303 305 306 306 303 294 296 293 286 289 288 289 292 296 298 295 294 298 300 298 299 299 300 299 299
309 309 309 311 311 311 307 299 294 292 295 292 293 292 295 299 302 302 305 301 299 298 294 301 294 289 292 295 294 294 290 291 292 297 295 295 294 298 299 294 296 297 298 299 299
309 308 309 310 311 311 301 296 296 296 288 295 295 296 299 299 293 299 304 294 292 290 296 296 289 294 296 297 295 294 290 289 292 297 295 294 294 297 299 296 296 297 297 299 297
308 308 309 309 311 302 298 298 302 302 289 292 296 295 295 297 292 295 299 297 290 289 289 291 292 297 295 294 293 290 290 288 288 292 292 291 289 292 296 295 297 297 297 297 297
308 308 309 309 301 299 296 302 302 300 283 286 291 294 297 296 291 300 301 297 292 288 289 294 296 295 293 292 292 287 292 291 291 288 283 290 280 286 292 293 294 295 294 295 297
308 308 308 308 299 299 301 302 301 298 274 289 291 301 298 292 294 294 301 297 291 291 291 290 293 293 291 293 293 290 293 291 290 287 284 284 281 284 288 289 291 292 292 292 298
307 308 307 303 302 304 305 301 300 278 275 286 291 291 291 293 292 294 298 301 299 294 295 293 297 295 293 296 296 297 291 289 289 286 278 284 282 281 285 289 292 291 291 294 297
307 309 306 305 296 305 304 297 276 276 287 287 289 293 292 288 291 293 290 288 290 284 285 290 291 295 296 291 294 293 286 279 280 280 276 284 282 285 288 290 292 292 295 297 299
308 308 307 304 303 303 297 284 273 283 283 292 292 292 288 292 292 293 291 288 292 289 286 284 284 291 294 291 292 290 285 277 274 275 277 283 280 286 290 291 294 297 298 299 299
306 299 298 302 304 299 290 275 276 277 287 288 290 286 288 292 292 292 289 288 292 290 283 281 283 292 294 296 294 290 283 287 278 276 273 279 283 288 291 290 293 294 296 297 299
295 295 296 304 302 295 282 282 282 289 291 291 286 288 285 289 289 287 288 292 291 294 292 286 281 290 293 296 295 293 293 281 277 272 272 276 277 281 286 290 293 294 295 297 300
294 292 298 303 300 289 278 279 288 294 293 290 288 287 286 288 289 286 286 290 292 293 293 289 284 286 292 289 289 290 288 285 284 279 275 273 277 283 289 293 294 295 296 296 299
289 285 299 302 289 287 284 289 295 293 295 293 292 291 287 287 286 286 286 288 293 293 290 292 287 283 286 293 295 293 289 288 279 276 275 274 277 287 290 292 295 294 296 298 299
289 288 298 299 288 284 290 292 294 292 292 291 290 291 291 288 285 287 288 293 294 292 290 292 283 276 281 286 291 289 289 289 285 280 273 273 277 289 289 291 294 295 297 299 298
288 280 288 295 294 292 289 290 290 294 293 293 291 291 289 288 289 287 287 293 294 292 299 295 286 280 276 280 284 284 287 288 285 277 279 278 281 286 289 292 293 295 297 299 297
286 282 288 280 286 288 289 292 291 291 293 293 290 290 288 284 286 286 288 289 292 295 291 289 278 280 285 287 283 284 286 286 282 287 281 285 283 287 289 291 293 295 296 297 296
283 281 284 283 287 285 291 290 290 292 291 290 288 291 289 286 286 286 288 287 287 288 287 288 279 279 279 286 284 282 285 287 285 285 285 284 285 291 291 290 292 294 297 297 296
286 287 287 283 286 288 286 287 290 294 293 294 292 290 289 290 290 290 291 291 290 288 286 285 281 278 274 282 281 278 283 285 286 286 287 282 287 289 290 293 294 294 298 298 296

GFSSW_sfc_thetae_069.txt.gz
Theta_e
317 317 317 317 317 316 316 316 316 315 315 314 313 313 314 314 315 311 304 309 312 323 323 314 311 315 316 312 316 315 300 296 297 299 301 307 305 309 308 302 312 318 320 327 332
316 316 316 315 315 315 315 315 315 314 313 313 312 312 312 313 307 304 312 318 320 322 314 308 305 311 310 308 311 306 300 298 303 305 304 306 306 307 302 301 315 321 329 332 332
316 316 315 315 315 315 314 314 313 313 313 312 311 311 311 310 299 298 316 320 321 318 314 312 309 308 307 306 306 306 300 304 305 308 308 306 305 307 301 298 309 320 325 327 329
316 315 313 314 315 315 314 313 312 312 311 311 310 310 310 305 283 303 315 318 321 316 311 310 306 302 301 301 305 300 305 305 307 310 308 306 308 303 302 301 306 316 326 325 326
315 314 313 313 313 314 313 313 311 310 310 309 309 309 305 294 294 306 312 310 310 308 307 306 302 301 299 300 303 298 303 305 308 308 308 309 305 303 303 309 307 320 324 322 324
314 313 314 312 312 312 313 312 311 310 309 309 309 309 299 287 301 305 306 305 305 308 307 308 302 303 300 301 301 303 303 303 306 305 304 303 304 303 306 304 305 320 320 321 321
313 312 313 311 311 310 310 311 310 310 309 309 309 305 297 292 302 304 305 303 306 307 305 310 309 302 301 298 304 303 298 302 302 303 302 306 298 300 307 308 302 303 308 310 317
311 311 311 312 311 311 310 308 308 308 309 309 309 302 290 304 302 302 306 304 306 312 311 313 313 303 300 301 300 297 297 292 300 302 302 303 293 303 308 306 300 301 299 299 301
309 309 311 311 312 311 312 311 308 308 308 309 301 296 289 305 300 302 304 300 303 309 312 313 311 299 299 293 290 294 288 291 294 302 300 299 293 303 307 305 301 300 300 299 298
309 309 310 310 311 312 312 310 309 306 306 307 304 291 295 293 299 301 303 304 302 302 304 305 304 294 293 291 284 288 288 291 292 297 299 296 294 298 301 299 299 299 299 299 299
309 308 309 309 310 312 306 298 293 291 295 291 292 291 295 298 301 301 304 301 299 297 294 300 292 287 291 293 291 291 290 290 292 297 296 295 294 298 298 296 295 296 297 299 299
309 308 308 309 310 311 300 293 294 294 287 295 294 295 298 299 292 298 303 293 291 288 295 296 286 292 295 296 293 292 289 289 293 296 296 294 294 297 299 297 297 296 296 297 298
309 308 308 308 309 301 296 295 300 299 288 292 296 294 294 296 292 294 299 295 289 287 289 289 293 296 295 293 291 289 288 288 290 292 292 292 290 293 296 294 297 297 296 296 297
309 308 308 307 301 298 295 301 301 299 283 286 291 293 296 296 291 300 300 296 291 287 290 293 296 294 293 292 291 286 292 292 290 288 284 291 281 287 291 293 294 296 295 295 295
308 308 308 307 297 298 300 301 300 296 268 290 291 301 297 292 293 293 301 298 288 289 288 289 292 291 291 292 293 289 293 291 290 287 285 285 282 285 286 288 294 295 293 293 295
308 308 307 303 301 304 305 302 299 276 268 286 292 291 291 293 292 294 295 300 299 292 293 293 296 294 292 295 294 295 290 289 288 286 278 284 283 282 284 286 289 293 292 292 296
308 308 306 304 295 305 304 297 275 275 287 285 288 290 289 288 291 293 291 290 288 284 285 291 291 295 295 291 293 291 285 278 278 279 277 283 282 287 288 289 290 291 290 291 296
308 307 307 304 302 304 298 282 272 283 284 292 291 292 288 291 291 291 288 288 291 290 285 284 283 291 293 290 288 287 285 277 274 275 277 282 279 285 290 291 291 293 293 295 297
305 297 298 300 302 300 288 273 275 276 285 287 289 288 287 291 292 292 290 289 291 292 284 282 283 293 295 295 292 288 286 285 277 275 273 279 282 287 289 289 288 292 295 296 298
294 294 295 302 301 298 281 279 278 287 290 291 284 287 285 289 289 286 289 293 292 294 291 286 282 290 293 296 294 290 291 281 275 270 272 276 277 281 285 287 290 292 294 297 299
293 291 297 302 299 289 277 278 286 292 292 289 287 286 285 286 287 285 284 289 292 292 291 287 284 286 292 289 289 290 288 284 283 278 275 273 277 284 285 289 290 294 296 297 298
289 283 298 300 284 284 283 288 294 292 293 291 291 289 286 286 285 284 285 287 292 294 288 289 285 282 286 292 296 294 290 285 277 276 274 274 277 286 285 290 293 294 296 297 300
288 287 297 297 280 282 288 291 293 291 291 290 289 290 290 286 284 286 287 292 293 292 289 290 284 280 282 287 291 290 291 288 283 278 272 273 278 287 286 289 293 294 295 297 299
286 280 287 291 290 286 285 288 289 293 292 291 289 290 288 286 288 285 286 291 292 292 299 295 284 280 276 279 284 286 289 288 283 276 277 277 280 284 286 289 292 294 296 298 298
284 281 284 278 286 288 287 289 288 288 291 291 288 289 287 284 285 285 287 288 291 294 291 289 282 281 284 286 283 283 286 288 280 287 281 286 283 288 289 290 292 295 295 297 296
281 280 283 280 285 286 289 288 288 290 290 288 287 290 288 285 285 285 287 286 286 287 286 287 278 280 279 285 283 282 285 287 287 286 286 286 284 291 291 292 293 295 296 297 296
285 286 284 282 281 285 283 286 289 291 294 293 291 289 288 289 289 288 289 290 289 287 285 284 281 277 274 281 281 278 282 284 286 286 287 283 290 289 288 291 292 291 295 297 296

GFSSW_sfc_thetae_072.txt.gz
Theta_e
317 317 317 316 316 316 316 316 315 315 315 314 312 312 313 313 314 310 304 309 311 320 322 313 311 311 317 310 315 312 300 295 296 298 300 306 304 308 309 301 313 322 317 324 332
316 316 316 315 315 315 316 315 314 314 314 313 311 311 311 312 305 303 312 319 321 320 313 309 304 308 306 305 311 305 299 297 302 304 303 305 304 304 303 300 312 321 327 330 334
315 316 315 314 314 315 315 314 314 313 311 312 311 310 310 309 297 296 314 317 320 319 314 313 308 305 302 303 303 306 299 302 304 308 308 306 305 306 302 298 301 301 321 327 332
315 315 315 312 313 314 314 314 313 311 310 310 310 310 311 303 282 301 316 318 319 316 310 310 307 300 298 298 303 299 305 305 307 310 308 306 308 303 302 302 307 308 317 324 328
314 314 314 313 311 311 313 313 312 311 310 309 309 309 303 293 292 305 311 313 310 310 303 305 303 298 296 300 302 296 301 307 309 308 307 307 304 302 302 305 308 309 323 322 324
312 313 312 313 311 311 310 311 311 310 310 309 309 309 298 286 299 303 305 306 305 305 304 306 304 303 298 300 300 302 302 305 308 306 304 302 302 303 304 304 305 307 320 320 322
311 311 311 312 312 311 311 309 310 310 310 310 309 304 295 291 301 302 305 304 305 304 302 307 309 302 300 298 303 302 299 302 304 303 303 305 299 299 306 306 304 304 310 318 320
311 309 310 311 312 311 312 312 308 308 309 309 310 300 290 302 301 301 303 302 305 306 307 310 312 303 300 300 299 297 297 292 299 302 303 301 293 302 306 304 304 304 301 302 303
311 310 309 310 311 312 312 311 309 308 308 309 300 295 287 304 299 300 302 300 302 306 311 312 310 300 300 293 289 294 288 288 295 301 301 300 294 301 307 304 303 304 301 300 300
310 309 308 310 310 311 312 310 309 306 306 306 303 290 294 293 298 299 303 304 299 301 303 303 302 293 292 289 283 286 284 285 290 297 299 297 295 300 305 304 303 303 299 299 299
310 309 308 309 309 310 305 297 292 292 294 290 291 290 294 298 300 300 303 300 298 298 291 297 290 287 291 290 289 290 288 288 291 298 296 295 295 296 303 303 302 303 297 299 299
310 309 308 308 308 310 299 291 292 293 286 294 294 294 297 298 291 297 303 293 291 289 291 293 286 291 295 295 291 291 287 286 292 297 296 295 294 298 300 298 299 300 299 298 297
309 308 308 309 308 300 295 294 299 299 288 292 295 294 293 296 292 294 298 294 289 287 288 289 291 296 294 292 290 287 286 286 288 292 293 293 291 295 299 302 299 298 296 296 297
308 308 308 308 300 297 294 300 300 298 282 286 290 292 296 296 290 300 299 295 289 287 290 292 294 294 292 291 291 285 291 290 290 288 284 292 282 290 296 297 298 300 295 295 295
308 308 309 306 295 297 300 301 299 295 272 289 290 301 296 292 292 293 300 296 288 289 289 290 290 292 291 292 292 288 292 290 289 286 284 285 283 286 287 290 296 299 296 295 294
308 307 307 303 300 303 304 303 298 274 269 285 292 291 290 291 292 293 295 299 297 290 290 291 298 295 292 294 293 293 289 290 288 285 279 284 283 283 285 287 289 295 296 296 294
308 308 306 302 295 305 304 297 274 272 285 284 286 289 289 288 289 290 290 288 287 283 283 291 292 295 294 291 293 289 285 277 277 276 277 283 282 287 289 289 291 292 292 293 293
307 306 306 303 303 304 299 282 272 281 282 291 291 290 287 289 290 290 288 287 292 286 285 285 282 291 292 289 287 288 286 276 273 274 276 282 279 285 291 291 291 292 293 291 294
304 297 299 300 304 302 288 271 275 277 284 287 290 286 287 291 291 290 288 287 290 292 284 283 284 294 295 294 291 287 285 284 276 273 272 279 282 287 289 289 290 290 292 291 295
294 293 295 303 303 297 280 280 277 285 288 290 282 286 284 287 288 287 289 293 290 292 291 286 283 290 293 295 293 289 289 282 276 270 271 275 276 280 284 287 289 290 291 293 296
292 290 297 304 302 289 275 279 285 291 291 288 285 285 284 285 286 283 283 289 292 290 290 287 285 287 292 288 286 289 284 283 282 278 274 273 277 284 285 286 287 290 293 294 297
289 283 297 300 288 282 282 287 293 291 292 290 290 288 285 285 284 285 284 286 292 293 287 288 284 283 286 292 293 291 288 283 276 274 273 274 277 285 286 286 289 291 295 297 297
286 286 295 296 279 281 287 290 291 290 290 289 288 289 288 285 283 285 286 291 293 292 289 289 282 279 281 286 289 288 290 287 282 279 272 274 279 286 286 288 291 292 294 296 298
285 280 286 289 288 284 284 286 288 292 291 291 288 289 287 285 287 284 285 290 291 291 298 293 283 279 276 279 284 285 289 290 284 283 278 278 280 284 286 287 290 292 294 295 297
283 280 282 278 283 284 285 288 288 287 290 291 288 289 286 283 284 283 286 287 290 295 290 288 281 281 282 284 282 283 286 289 286 287 283 284 283 289 289 288 289 292 294 295 295
281 280 281 279 283 283 286 284 287 289 289 288 287 289 288 284 284 284 286 284 285 287 286 286 279 282 281 285 283 282 284 287 288 289 288 288 286 291 290 289 292 293 294 295 295
284 284 282 281 280 283 283 283 287 289 292 292 290 288 287 288 289 288 288 289 287 286 284 283 280 278 275 281 281 277 282 284 286 289 289 285 291 289 289 290 292 292 294 295 296

GFSSW_sfc_thetae_075.txt.gz
Theta_e
316 317 317 315 315 316 316 317 316 315 315 315 312 313 312 312 313 309 303 310 313 318 321 314 314 313 317 313 315 314 301 296 298 299 301 307 306 309 310 306 318 326 325 329 337
315 316 316 315 313 314 315 315 315 314 314 312 312 312 311 312 305 302 311 317 320 321 313 310 307 310 309 308 311 306 300 299 304 305 304 306 306 306 307 305 306 308 313 332 334
314 315 315 316 312 313 314 314 314 313 312 311 311 311 311 309 297 295 314 318 319 320 314 314 309 307 305 307 307 306 300 303 305 308 309 307 306 307 305 301 305 305 308 321 331
313 314 314 315 312 312 313 314 313 312 312 311 311 310 311 304 282 301 315 318 319 316 312 310 307 302 301 301 305 302 305 306 309 310 308 306 308 305 305 305 309 309 313 322 328
312 312 313 313 313 311 311 312 312 312 311 310 309 309 303 294 292 304 312 313 313 311 305 306 303 301 298 302 303 300 304 307 309 309 307 308 304 303 304 308 308 310 312 323 325
313 310 312 312 313 311 311 310 311 311 310 310 310 308 298 287 299 303 305 307 306 307 304 306 304 303 301 302 301 303 303 305 308 307 305 304 303 305 305 308 308 309 309 314 325
313 311 310 312 312 312 312 312 309 310 310 310 309 304 295 291 302 302 304 305 305 304 301 306 309 303 303 300 305 304 299 303 305 305 303 305 301 301 307 308 306 307 308 307 316
312 312 310 310 311 311 312 312 309 307 308 309 310 301 289 302 302 302 304 303 306 306 306 310 311 304 301 304 301 299 299 294 301 304 304 302 296 303 307 306 305 307 307 307 306
312 311 309 309 311 310 312 312 310 308 308 309 300 296 288 304 299 300 303 300 302 306 309 311 308 301 300 295 293 295 289 290 295 303 302 299 295 302 306 305 305 306 307 306 306
311 311 310 308 310 310 311 310 309 305 306 306 303 290 294 293 298 300 304 304 300 300 302 302 298 295 294 292 284 287 288 290 292 298 300 297 296 301 304 304 305 306 306 304 303
311 311 309 308 309 309 305 297 292 291 295 290 290 291 294 298 300 299 303 300 298 296 291 296 289 288 292 293 292 291 290 290 294 299 297 296 296 299 303 304 305 306 305 305 304
310 309 308 308 309 308 298 291 292 293 285 293 294 293 297 298 291 297 303 292 291 289 294 291 287 292 295 295 292 292 288 289 293 298 297 295 295 299 302 302 305 305 304 303 302
309 308 308 309 307 300 294 294 299 298 287 291 295 294 294 296 291 294 298 293 289 288 291 289 291 295 295 293 291 289 288 288 289 294 295 294 292 295 299 301 303 304 305 304 301
308 308 308 307 301 296 293 299 300 298 279 286 289 293 296 296 289 300 300 294 288 287 291 292 295 292 292 292 291 287 292 291 290 290 285 294 284 292 296 298 301 303 304 304 300
308 308 308 306 295 295 300 300 299 294 268 289 290 301 296 292 292 293 301 296 288 288 290 289 291 290 290 292 294 290 293 291 290 287 288 287 286 289 294 294 297 301 303 304 301
308 308 307 302 299 303 303 303 296 275 269 285 291 290 288 291 291 293 295 299 296 291 291 291 298 296 294 295 294 293 291 290 288 288 283 286 287 286 287 293 297 300 302 304 301
308 308 304 302 295 305 304 297 276 272 285 285 286 289 287 286 288 289 290 288 284 283 284 291 292 296 296 292 294 291 287 281 280 280 279 284 283 288 292 292 293 295 297 300 299
307 308 305 302 304 304 298 282 271 282 284 292 291 288 286 288 289 289 287 284 289 288 287 284 282 292 294 292 289 289 286 279 275 276 279 283 280 287 293 294 294 294 296 296 295
304 296 297 300 304 302 289 271 274 276 284 288 290 287 288 289 289 289 287 287 289 289 284 285 284 294 295 295 292 289 283 286 278 277 277 281 284 288 290 291 292 293 293 294 294
293 292 295 304 304 296 282 280 277 284 288 290 284 287 284 287 288 288 288 291 289 292 293 288 284 291 293 295 294 290 290 282 279 274 274 277 279 282 287 289 290 290 293 294 296
292 290 296 304 302 290 275 280 285 290 291 288 287 286 285 285 285 283 285 290 293 291 291 289 287 287 292 288 288 288 285 284 284 280 277 275 280 286 287 288 288 289 292 295 297
289 283 296 302 289 284 281 285 293 290 291 291 290 288 285 285 284 283 284 287 293 292 287 289 287 284 287 292 293 291 287 285 279 277 275 277 280 288 288 288 289 291 295 297 299
286 286 294 299 278 280 286 289 291 290 290 289 287 288 288 285 283 285 286 291 293 291 288 289 282 280 282 287 289 288 290 286 283 280 275 278 281 287 288 291 294 294 296 298 299
285 280 285 288 286 283 283 285 286 292 290 290 288 288 286 285 287 285 285 290 292 291 297 292 284 280 276 279 284 284 287 287 285 281 279 280 282 288 288 289 292 295 296 297 299
282 280 282 277 283 282 284 287 286 286 290 290 287 288 285 282 283 283 286 288 290 295 290 288 279 279 283 284 284 285 286 287 284 286 283 284 284 289 291 291 292 293 295 295 297
281 280 280 279 281 281 285 284 286 287 288 287 286 288 286 284 283 283 286 285 285 287 286 286 279 281 279 285 284 283 284 286 288 288 287 288 287 294 293 291 292 292 294 295 296
282 283 282 281 280 280 280 282 287 287 291 291 289 287 286 288 288 287 288 288 287 286 284 284 281 279 276 282 281 278 283 284 286 288 289 285 290 293 292 293 294 294 294 295 297

GFSSW_sfc_thetae_078.txt.gz
Theta_e
316 317 316 317 314 314 316 315 315 315 315 314 313 313 313 312 313 310 304 309 314 319 319 317 317 316 319 316 320 318 305 300 302 302 303 309 309 312 313 311 322 318 324 331 340
314 316 316 316 314 313 314 315 315 314 314 312 311 312 312 312 307 302 309 316 318 320 315 312 309 312 311 312 314 310 304 303 308 309 306 308 309 309 309 313 312 313 323 332 337
313 314 315 315 315 312 312 314 314 313 313 312 311 311 311 310 299 298 313 316 319 319 315 314 313 310 306 311 310 309 303 308 308 310 311 309 309 310 308 307 310 310 316 320 334
314 312 313 313 314 312 311 313 313 312 312 311 310 310 311 305 286 304 315 317 319 316 312 309 309 304 303 303 310 304 309 308 310 312 311 309 311 308 309 310 313 314 319 318 331
315 313 310 312 313 313 312 311 312 311 310 310 309 310 305 295 294 306 312 314 314 311 307 306 305 304 299 304 307 305 307 309 311 311 311 310 307 308 309 313 313 315 316 324 328
314 313 311 310 312 313 312 311 311 311 311 310 310 308 300 290 304 307 306 308 308 309 306 307 305 305 303 303 304 307 306 308 310 308 308 308 307 308 309 312 313 313 314 315 327
314 313 311 310 311 312 312 312 308 309 310 310 308 305 297 294 305 308 306 306 306 308 304 307 309 305 305 302 307 306 300 305 306 308 307 308 303 304 312 312 311 312 314 314 315
313 312 311 309 310 311 311 313 311 307 309 310 309 304 293 303 308 305 306 305 306 307 307 308 310 306 305 307 305 301 302 295 304 307 306 306 298 307 312 310 310 311 313 314 314
313 312 311 309 309 311 311 312 311 308 308 309 304 300 292 306 300 304 306 301 303 305 308 308 308 302 304 299 296 299 292 295 297 306 304 303 300 306 310 309 308 310 312 312 313
312 311 311 309 309 310 310 310 310 308 308 308 305 295 297 294 300 302 306 305 300 299 301 300 299 297 299 296 287 291 293 294 295 301 303 301 301 303 306 307 308 310 311 312 311
311 310 310 309 309 309 309 306 299 297 300 293 294 293 295 300 303 301 303 300 300 297 291 296 290 290 294 296 296 296 293 292 297 301 300 299 299 302 305 306 307 309 310 312 312
310 310 309 309 310 308 305 298 297 298 290 296 297 296 298 300 293 298 303 294 294 288 294 292 288 295 298 297 296 296 293 294 297 301 300 299 298 302 303 305 306 306 309 311 312
310 309 309 309 308 306 300 298 304 303 292 293 296 295 296 298 292 293 298 294 290 288 290 289 292 297 296 295 294 294 293 294 294 299 300 298 296 299 302 304 306 308 309 312 313
309 309 309 307 303 303 299 303 305 303 288 288 291 294 297 297 291 299 300 295 290 288 291 292 295 294 295 293 295 290 297 297 295 294 289 298 288 295 299 300 303 306 308 311 312
308 308 308 306 303 300 302 306 305 301 278 289 291 302 298 293 293 294 301 297 289 291 293 290 291 290 292 294 297 292 297 295 295 293 292 292 289 294 298 297 300 304 307 310 313
308 308 307 305 306 304 306 306 302 285 277 286 292 290 289 292 292 294 295 300 298 294 293 293 297 294 295 298 297 298 295 294 294 292 285 291 290 291 294 297 300 304 306 308 311
308 307 307 306 300 306 306 301 285 282 288 286 287 290 288 287 289 290 291 290 289 286 285 291 291 296 298 295 296 297 293 285 282 283 283 290 289 292 298 299 299 302 305 308 309
308 308 306 305 306 306 303 290 283 285 287 292 290 288 284 289 288 289 288 287 292 291 288 286 283 291 298 295 292 294 293 287 278 280 284 288 286 292 298 299 299 300 302 305 308
306 306 305 304 306 305 294 286 285 286 290 290 289 286 286 289 289 290 289 288 290 292 287 286 285 294 296 298 296 291 290 290 285 284 285 288 290 295 297 298 298 298 299 301 302
304 302 302 305 305 299 291 285 287 288 292 292 286 289 286 288 288 288 290 293 291 293 295 291 285 292 295 297 297 295 294 287 288 280 279 283 286 289 293 294 296 296 297 299 302
302 298 301 305 304 293 288 287 290 293 294 291 289 289 289 288 290 289 289 292 294 293 296 293 291 288 294 291 292 292 291 291 290 286 282 281 285 295 293 294 295 298 298 298 301
300 293 300 303 291 289 291 290 294 294 295 294 294 292 291 291 289 289 289 291 297 296 291 293 292 286 288 294 296 295 292 293 287 284 285 285 286 295 295 296 296 299 300 301 302
297 295 299 300 289 291 293 293 294 294 294 293 291 293 293 291 288 290 291 295 298 295 292 294 289 283 284 289 293 291 293 292 290 288 285 284 287 293 295 296 299 300 301 302 302
295 290 293 295 294 292 291 291 291 296 294 294 292 293 292 290 292 290 290 293 297 296 297 296 290 287 284 287 291 287 290 292 290 286 287 287 289 292 294 295 297 299 302 303 303
292 289 291 289 290 291 292 291 290 290 295 295 292 292 290 288 289 289 291 292 294 296 294 294 288 287 287 288 289 288 289 291 287 290 286 289 290 293 296 298 299 299 299 301 303
289 288 288 288 288 290 289 290 290 291 292 291 291 291 292 289 289 289 292 292 292 293 293 292 288 287 286 288 288 286 289 291 291 291 291 291 291 298 299 300 298 300 300 299 302
290 291 293 285 287 290 288 287 289 290 294 294 293 292 291 292 293 294 295 294 294 293 291 290 289 286 283 285 286 283 288 289 290 293 292 288 293 298 296 297 299 300 301 301 301

GFSSW_sfc_thetae_081.txt.gz
Theta_e
313 315 317 316 317 314 314 316 315 315 315 315 314 313 313 312 312 310 304 308 313 319 320 315 316 315 317 315 317 317 303 300 302 302 305 311 308 313 314 312 321 320 326 332 340
314 313 314 316 316 314 313 315 314 314 313 312 312 312 312 311 306 303 311 312 317 320 313 310 309 311 309 311 313 309 303 305 310 309 307 310 309 311 310 312 315 316 324 333 338
317 314 312 314 314 314 312 313 314 313 313 312 311 311 311 310 299 299 314 314 318 317 314 313 312 309 305 309 310 309 302 308 308 309 311 310 310 312 309 308 313 312 317 325 336
316 315 313 311 313 314 313 311 312 312 311 310 310 310 311 307 288 304 313 315 318 315 312 310 309 305 302 302 309 303 308 309 309 311 310 309 312 309 310 312 314 316 322 324 333
315 314 314 311 311 313 313 313 312 311 311 311 309 310 307 297 296 306 311 313 314 312 306 306 305 304 300 303 305 304 306 309 311 312 312 312 308 309 310 314 315 317 321 326 330
315 314 313 311 310 312 312 313 309 311 311 310 310 309 302 292 305 308 307 309 310 309 306 306 305 306 302 302 302 306 306 307 310 310 311 309 309 309 310 315 314 314 317 322 327
314 313 313 311 309 311 312 313 311 309 311 311 310 306 299 296 307 308 307 307 309 309 304 306 308 305 304 301 307 305 302 306 308 309 308 311 305 305 311 313 312 313 315 317 319
314 313 312 312 310 309 312 312 312 308 309 310 310 305 295 306 309 306 307 305 308 306 307 308 309 305 304 305 304 302 302 297 304 307 308 308 299 308 310 312 310 312 313 316 317
313 312 312 311 309 309 310 312 311 309 309 310 306 301 293 307 301 304 307 302 303 304 306 308 306 302 304 299 296 298 292 295 299 307 306 304 300 307 310 310 309 310 312 314 315
312 311 311 310 309 309 310 311 310 309 308 307 305 296 298 296 301 302 307 304 301 299 300 299 298 294 298 296 287 291 293 295 296 302 304 302 302 306 308 309 309 310 311 313 314
311 311 310 309 309 310 309 307 300 298 301 295 295 294 296 301 303 301 304 301 300 294 291 294 289 288 295 297 296 295 294 293 297 303 301 300 300 304 307 307 307 308 310 312 313
310 310 309 309 310 309 308 300 299 301 292 297 298 297 299 301 293 299 303 295 294 288 294 291 288 295 298 298 297 296 294 293 298 301 300 299 299 303 305 306 307 308 309 311 313
310 309 309 309 307 306 304 300 306 304 294 294 297 296 297 299 293 294 299 295 291 287 290 290 291 297 297 295 295 295 293 294 294 298 300 298 296 299 304 306 307 309 311 312 312
309 308 309 308 303 305 301 304 307 305 288 289 292 295 298 298 292 298 299 295 292 287 290 292 295 295 295 293 295 291 297 297 296 294 289 298 288 296 300 302 304 306 308 310 312
308 308 309 307 305 301 303 307 307 302 279 290 292 303 298 293 294 292 300 297 290 290 291 289 291 292 292 294 297 293 298 297 297 294 293 294 290 294 299 298 301 305 307 309 311
308 308 308 305 308 306 307 307 304 285 277 286 293 291 291 293 293 295 296 299 299 293 295 293 298 295 296 298 298 299 296 295 295 293 285 291 291 291 296 297 300 304 306 308 310
308 308 307 309 301 308 308 301 285 283 290 286 287 290 289 289 290 291 291 291 289 285 285 290 291 295 299 295 298 296 292 285 283 283 283 292 290 292 298 300 301 302 305 308 310
309 308 306 308 308 308 304 292 283 288 288 292 289 289 287 290 289 291 290 289 294 291 288 286 282 293 298 296 293 293 292 286 278 280 284 291 286 292 300 302 301 302 304 306 309
308 309 307 306 308 307 296 286 286 288 293 290 289 286 287 289 290 290 290 290 293 295 288 287 285 294 297 299 298 293 290 293 288 288 286 288 292 297 298 299 300 301 301 303 304
306 304 304 307 307 302 292 287 289 293 295 294 287 291 286 288 288 289 290 294 292 295 298 293 285 292 296 299 298 295 297 287 290 280 279 285 287 290 294 295 298 298 299 300 304
305 297 303 307 307 296 288 291 293 295 296 292 291 289 290 290 290 289 290 293 295 294 297 295 292 288 295 291 292 293 291 292 292 288 282 282 285 297 295 297 298 300 301 301 302
303 292 302 306 292 292 293 294 296 295 297 295 296 294 293 293 292 291 290 293 298 297 292 295 292 286 289 296 298 297 294 293 287 284 287 286 287 298 298 299 300 301 303 303 304
299 295 299 301 289 293 295 295 296 295 295 294 293 295 295 293 290 292 293 297 299 296 293 295 290 283 286 292 295 292 295 295 294 291 288 284 287 297 298 298 301 301 302 304 304
299 290 295 295 298 294 293 293 293 297 295 296 294 295 294 292 294 292 292 296 299 298 298 297 292 289 285 288 293 289 292 294 291 287 287 288 290 293 295 297 299 301 302 303 304
296 295 297 290 293 295 295 294 292 291 296 297 294 294 293 290 291 291 294 294 297 298 296 296 289 289 289 289 291 290 291 292 289 290 287 290 290 294 297 298 300 302 301 301 304
293 292 293 294 294 294 292 293 292 293 294 293 293 293 294 291 292 291 293 294 293 296 296 296 290 289 287 291 290 287 290 291 292 292 292 292 291 298 300 301 300 300 301 301 302
295 295 295 290 293 293 292 293 293 295 295 297 295 294 293 293 295 296 297 297 297 295 294 293 291 288 285 287 287 284 289 290 292 293 293 289 294 299 298 298 299 300 301 302 303

GFSSW_sfc_thetae_084.txt.gz
Theta_e
317 316 314 315 316 316 314 314 316 315 315 314 314 314 314 314 313 309 303 309 311 319 318 313 312 313 314 311 316 317 301 298 301 301 304 308 306 311 313 312 315 321 323 332 339
317 317 315 313 314 315 314 313 315 314 314 314 313 313 312 312 306 303 312 315 314 317 310 308 306 310 306 307 311 307 300 301 307 308 306 307 306 308 307 311 312 317 330 336 339
316 317 316 313 312 315 314 313 314 313 312 313 312 312 312 310 300 300 314 315 316 315 312 310 309 308 303 306 307 306 299 306 306 309 310 308 308 310 307 307 309 309 323 329 335
315 316 315 314 312 312 314 314 312 313 312 312 311 311 311 307 287 304 310 313 315 313 310 307 306 302 301 299 305 301 305 306 307 310 310 307 309 307 308 308 313 316 324 328 333
314 315 314 314 311 311 313 314 313 312 312 312 311 311 306 298 296 306 309 310 311 310 306 304 302 302 298 300 302 302 305 307 308 310 309 310 306 306 307 311 313 317 326 327 331
313 315 313 313 312 310 312 313 313 311 311 312 310 309 302 292 305 307 306 308 309 308 305 305 303 305 302 300 299 304 304 306 308 306 309 308 307 307 308 311 311 313 319 326 328
314 314 313 313 312 310 311 313 313 312 310 312 312 308 299 296 306 307 307 308 308 308 303 306 307 301 302 300 304 304 300 303 306 306 306 310 304 303 309 310 309 310 313 320 326
312 313 313 311 311 310 309 312 312 312 310 311 312 305 294 305 307 304 306 306 307 307 304 308 308 302 301 304 302 299 299 294 303 305 307 306 296 305 309 307 307 308 311 314 314
312 312 312 311 310 309 309 311 312 312 309 310 305 301 293 307 301 303 305 301 303 304 305 307 304 299 300 295 294 296 290 293 297 305 304 303 296 306 308 307 305 304 306 312 312
312 312 311 310 309 309 310 310 310 308 308 306 303 295 298 295 300 302 305 304 300 299 299 297 296 290 295 293 285 289 291 293 293 300 303 300 298 303 305 305 304 305 306 307 311
311 311 310 309 309 310 309 306 299 297 300 295 294 294 296 300 303 300 303 300 300 295 289 293 287 286 292 295 295 295 292 292 296 302 300 299 299 301 305 304 303 304 306 307 309
311 310 309 309 310 309 307 300 299 300 292 298 297 297 299 300 293 298 303 294 293 287 289 290 286 293 298 297 295 294 292 292 297 302 300 298 296 301 304 304 305 306 306 308 308
310 309 308 309 308 306 303 301 306 304 292 294 297 296 296 298 293 294 298 295 291 287 290 288 291 295 296 294 292 292 290 292 293 297 298 295 292 296 299 301 304 305 306 308 309
309 308 308 308 302 305 300 305 307 306 287 289 292 296 298 297 291 298 300 296 292 288 291 291 294 293 294 293 295 290 296 296 295 291 286 294 281 292 296 298 301 301 302 304 308
308 307 308 308 304 300 303 307 307 301 276 290 292 301 299 294 293 294 300 297 289 290 291 289 292 292 292 294 297 293 298 296 295 291 291 289 284 287 296 294 298 300 301 303 305
308 308 307 304 307 305 308 307 303 285 275 285 293 291 291 293 294 295 296 298 298 293 294 292 297 295 294 298 297 298 295 294 292 290 279 288 286 285 290 293 295 299 301 303 305
308 308 307 308 301 308 308 301 285 280 290 285 286 290 290 289 291 292 291 291 288 284 285 289 290 295 297 294 296 294 289 280 278 275 277 288 285 288 293 295 296 295 297 301 304
308 308 306 307 308 308 304 291 281 287 287 291 289 290 287 290 290 292 291 289 293 291 286 284 281 291 297 294 291 291 289 281 275 275 278 287 281 287 294 297 298 298 297 299 300
309 307 306 306 308 307 295 284 284 288 292 289 289 287 286 289 290 290 290 289 292 294 287 285 284 294 297 298 296 290 285 289 284 283 279 283 287 290 295 293 296 296 297 296 297
305 304 302 307 308 302 292 286 287 294 295 293 287 289 284 287 287 288 289 293 292 295 295 291 282 291 296 298 297 294 294 283 284 274 274 280 282 284 288 290 293 292 292 295 296
303 297 302 307 306 296 287 290 293 296 297 293 291 289 288 288 288 288 289 293 295 294 295 293 289 288 294 290 289 290 288 289 288 283 277 275 280 290 291 293 293 294 296 295 294
302 291 303 306 292 292 291 294 295 295 297 296 295 294 291 291 289 290 289 292 297 296 291 293 290 283 287 294 296 294 291 289 280 280 281 280 281 294 293 295 296 296 299 298 298
297 294 301 302 288 291 294 294 296 295 295 295 294 295 295 292 288 291 292 297 298 295 292 293 289 282 282 288 292 290 293 293 291 286 280 276 281 293 292 292 296 295 296 299 300
298 288 293 295 295 292 292 292 292 298 296 296 295 295 293 291 293 290 291 296 298 297 299 296 290 285 278 282 288 285 289 291 288 280 283 283 285 287 290 292 295 296 294 296 299
296 293 294 287 291 293 295 294 292 291 296 296 294 294 292 288 290 290 292 293 297 298 294 293 285 283 286 288 288 288 289 289 284 287 280 286 287 291 291 292 294 295 297 296 296
291 291 293 293 294 293 293 292 292 293 294 292 292 294 293 290 290 289 292 291 291 294 291 293 284 285 282 289 288 285 288 288 289 290 290 290 289 296 297 297 296 296 297 297 297
294 295 292 292 291 291 291 292 293 295 296 297 295 293 292 293 293 293 294 295 293 292 291 290 287 282 278 285 285 280 286 288 289 290 290 286 291 295 294 295 295 295 297 297 298

GFSSW_sfc_thetae_087.txt.gz
Theta_e
317 317 317 315 313 314 316 315 314 315 314 315 314 315 314 314 314 309 302 308 311 318 318 312 310 309 310 308 314 316 301 295 297 298 302 305 305 309 311 313 320 322 325 334 339
316 316 317 316 313 313 315 315 313 314 313 314 313 314 314 313 306 301 310 317 316 315 309 306 303 306 303 305 309 306 300 298 304 306 304 304 305 307 307 310 317 325 330 336 337
315 315 317 315 314 312 313 316 314 314 313 312 312 312 312 311 300 298 313 314 314 316 311 309 307 304 300 303 304 305 299 305 306 309 310 307 306 308 306 304 307 317 328 332 332
314 315 316 315 314 312 312 315 315 313 312 313 312 312 311 305 287 303 310 312 311 313 308 305 302 299 297 297 303 300 305 305 307 310 309 307 308 305 306 307 312 321 329 330 331
314 314 316 313 313 312 311 314 314 313 312 312 311 311 305 297 296 306 311 310 309 309 304 302 298 298 296 298 301 301 303 306 309 311 309 310 307 305 305 310 317 326 329 330 330
314 314 314 314 313 312 310 312 313 314 311 312 312 312 300 291 302 305 305 308 307 307 304 303 299 302 299 299 298 301 304 305 307 308 307 306 307 308 306 308 313 324 325 327 330
314 313 314 313 312 312 310 311 313 313 312 310 312 307 299 295 302 303 307 307 307 306 302 305 304 301 301 299 302 302 299 303 305 306 304 309 303 303 307 307 307 316 322 324 330
313 313 313 312 311 311 310 309 312 312 312 310 311 303 293 305 303 302 304 305 307 307 303 304 307 301 299 302 300 297 298 293 302 304 305 301 292 306 308 305 305 308 315 318 324
312 312 313 311 310 309 309 311 312 312 311 309 303 299 291 307 300 301 303 301 303 304 304 303 304 297 299 294 292 295 289 291 297 304 303 300 294 305 308 305 303 304 308 309 310
312 311 311 310 309 309 309 311 311 309 307 306 304 293 297 295 300 301 304 304 300 300 297 295 295 289 292 292 285 288 290 292 293 299 300 299 299 304 306 303 303 303 303 307 308
311 311 310 309 309 310 307 303 296 294 298 293 294 293 295 300 302 301 303 300 299 296 288 291 288 285 288 291 293 293 292 291 295 301 299 298 298 301 303 302 300 301 302 303 307
311 311 309 308 309 309 306 298 297 296 291 297 297 297 299 300 293 298 302 294 293 287 288 289 286 292 295 294 294 294 292 291 297 300 297 296 296 300 301 301 302 302 303 304 305
310 309 308 308 308 303 300 301 303 301 291 294 297 296 296 299 292 294 298 296 290 287 288 286 291 296 295 294 292 292 290 291 292 297 299 296 293 296 299 302 303 303 303 304 305
309 307 307 308 302 303 300 303 303 301 285 288 292 295 298 297 290 298 300 296 291 288 290 289 294 295 293 292 292 287 295 295 295 292 286 295 284 291 295 296 299 300 300 302 303
308 307 307 309 303 300 303 303 302 296 266 290 292 302 299 293 293 292 300 297 290 291 292 289 291 292 292 293 296 291 297 295 295 291 290 289 285 288 293 292 295 297 298 300 302
307 307 308 303 304 304 304 302 298 279 271 283 292 291 291 293 294 295 296 298 297 293 293 291 297 294 294 297 296 298 295 294 293 288 278 286 284 283 287 294 294 296 298 300 302
307 309 306 307 300 303 303 297 282 272 288 285 283 291 290 289 291 292 291 290 288 279 282 288 289 293 297 291 296 295 287 280 279 276 277 286 284 285 290 293 295 296 297 298 300
309 309 307 306 304 303 299 285 272 285 284 290 289 289 285 290 290 291 290 288 290 289 286 279 276 290 295 293 290 291 288 278 274 274 277 285 280 286 292 294 295 296 297 297 295
309 302 302 303 304 301 293 275 277 282 289 287 288 283 283 288 288 288 286 287 290 291 282 280 284 294 296 296 294 288 281 288 281 280 276 281 285 289 291 292 292 292 295 294 295
300 302 299 305 303 297 288 283 283 292 294 292 284 287 281 284 284 285 286 290 291 293 293 287 283 291 295 296 296 292 293 281 278 274 274 278 280 282 286 288 290 290 290 293 294
300 296 301 306 302 294 283 283 290 295 296 292 288 287 284 284 286 284 287 290 292 292 292 290 286 286 293 288 289 289 287 288 286 282 277 274 278 286 289 291 291 292 294 294 295
298 289 301 304 290 289 284 291 296 293 295 294 292 291 287 287 285 286 287 290 294 293 288 290 286 283 284 292 294 292 291 289 278 279 278 278 279 290 291 292 295 295 296 296 296
295 293 300 301 283 284 290 293 295 293 293 293 292 293 293 290 287 288 290 296 296 293 289 290 283 275 281 286 290 288 291 291 288 284 278 276 279 291 290 293 294 294 295 297 297
292 286 293 295 292 286 288 289 290 295 294 294 292 292 290 288 290 288 289 295 296 295 299 295 287 280 275 280 286 283 288 290 286 278 281 281 283 286 288 290 292 294 293 295 297
293 287 290 285 286 288 290 292 290 289 293 294 291 291 289 285 287 289 291 291 295 298 293 291 281 280 285 287 286 286 287 288 282 285 280 286 286 290 290 288 291 294 295 295 297
288 289 289 287 290 288 290 289 290 291 291 290 289 292 290 287 287 288 290 289 289 291 289 290 281 282 280 287 286 284 286 287 287 288 287 288 287 293 293 296 294 294 295 295 296
291 291 289 289 287 286 287 290 293 293 293 295 293 291 290 291 291 290 290 291 292 291 288 288 284 279 276 283 283 279 284 286 287 288 288 284 291 292 292 294 293 293 294 294 296

GFSSW_sfc_thetae_090.txt.gz
Theta_e
316 316 316 318 316 313 314 317 315 314 314 313 314 314 314 313 312 308 302 307 308 319 319 309 309 308 308 306 311 314 300 295 296 295 299 303 304 308 312 316 321 322 326 332 335
316 315 316 317 315 314 313 314 316 314 314 313 313 313 313 313 305 300 309 316 316 316 308 304 302 305 300 304 305 304 299 298 303 304 302 304 304 305 309 312 317 324 332 336 336
315 315 316 317 315 314 312 312 315 314 313 313 313 312 312 310 299 297 313 312 312 313 310 307 305 303 298 302 302 302 299 305 306 308 309 306 305 307 306 303 309 321 327 331 331
315 314 314 316 314 314 312 311 315 315 312 312 312 312 312 304 284 302 312 312 314 311 305 303 300 297 294 296 302 298 303 306 308 309 309 305 307 304 305 305 315 327 331 330 329
315 314 315 315 315 313 312 311 313 314 312 311 312 311 304 296 295 306 310 309 310 308 302 299 296 296 292 295 299 298 301 304 307 310 309 310 305 304 304 310 320 327 329 328 328
315 313 313 314 314 313 312 310 311 314 313 310 312 312 299 289 301 303 304 307 306 305 301 301 298 300 295 296 296 300 302 303 307 307 307 305 305 306 304 311 321 324 324 327 329
315 313 312 313 312 311 312 310 310 312 313 311 310 307 298 294 302 302 309 306 307 305 300 301 303 298 299 296 300 300 298 300 304 306 305 306 302 302 306 306 318 320 320 324 328
314 312 312 313 311 311 309 309 311 312 312 312 310 302 292 305 301 301 303 305 306 306 303 304 303 298 299 301 297 296 298 293 302 304 305 304 295 302 307 302 307 315 316 319 323
314 311 311 311 310 309 309 309 311 312 311 310 301 298 290 306 300 300 300 301 303 304 304 304 301 296 298 293 290 294 288 291 297 303 302 300 294 302 306 305 301 307 312 315 318
313 311 311 309 309 309 309 310 310 309 306 306 303 291 295 294 298 300 302 303 300 299 298 296 296 290 290 289 282 287 288 291 292 299 300 297 297 302 305 304 304 302 306 306 313
312 311 310 308 308 309 306 301 295 293 297 292 292 293 295 299 302 300 302 299 299 296 287 292 288 285 288 292 291 292 290 290 295 300 297 296 297 299 304 304 302 301 300 304 307
311 310 308 308 308 308 304 296 296 295 290 297 296 296 298 299 293 298 302 294 293 287 289 289 285 290 291 293 292 292 290 291 297 299 297 296 295 301 303 304 305 301 301 302 304
311 310 308 306 308 302 298 300 302 300 289 294 297 295 296 298 292 293 298 295 289 287 287 287 290 295 293 292 292 292 291 291 292 297 298 294 292 295 300 303 304 302 302 303 304
310 309 308 308 301 303 299 303 302 300 277 286 291 295 298 297 289 298 300 295 290 286 290 290 295 293 292 291 292 288 295 294 294 292 287 296 283 290 295 296 299 302 299 301 303
310 309 308 308 301 299 301 302 301 293 265 287 290 301 299 293 292 291 299 297 291 291 292 287 293 292 291 292 295 291 297 295 295 291 289 290 285 289 291 293 295 297 301 300 301
309 308 308 304 303 303 302 301 297 275 267 280 291 291 291 293 293 295 296 298 297 292 292 291 296 294 292 296 296 298 295 294 293 289 282 287 286 285 286 292 296 295 298 300 301
309 309 306 305 299 302 302 295 276 270 285 281 282 290 290 288 291 292 291 290 288 280 282 288 289 294 296 293 296 295 289 281 280 279 278 287 286 288 291 292 295 295 296 298 299
309 309 306 306 303 303 297 282 271 282 282 289 288 287 284 288 288 290 289 286 291 288 285 279 280 290 295 292 290 291 288 280 276 275 277 285 281 285 291 294 295 295 295 296 297
310 301 301 302 303 300 291 272 276 281 287 286 286 282 283 287 287 287 285 286 289 290 281 278 281 294 295 295 294 290 283 287 280 278 276 280 285 289 291 291 292 293 294 294 296
300 299 298 304 302 295 283 281 281 290 292 290 282 285 279 283 283 284 284 289 289 292 291 285 278 289 293 294 294 290 291 281 279 273 273 277 279 281 285 288 289 289 289 290 291
299 293 299 304 300 291 277 280 289 294 294 290 287 285 283 283 284 283 285 290 292 291 292 289 284 284 290 286 286 288 285 286 283 280 275 274 278 285 287 289 290 291 292 293 294
296 288 301 302 288 287 282 289 295 292 294 292 291 290 285 286 284 285 286 288 293 292 287 289 285 280 283 291 293 291 288 286 277 277 276 276 278 289 289 291 292 292 294 295 296
292 293 300 299 284 282 288 292 294 292 291 292 291 292 290 287 285 287 288 294 295 292 288 289 281 280 280 285 289 287 289 290 286 282 276 274 278 290 289 290 293 292 293 296 296
291 287 293 295 293 285 287 288 289 294 293 293 291 291 289 287 289 287 287 293 295 293 299 294 285 279 274 279 284 282 287 289 285 276 281 280 284 287 289 289 290 290 292 293 295
291 285 291 285 285 287 288 290 289 288 292 292 289 290 288 285 286 288 290 290 293 296 291 290 280 278 284 286 285 285 286 286 281 285 280 284 285 289 290 290 292 294 294 294 294
289 287 287 285 288 286 288 288 288 290 290 288 288 290 289 286 286 286 289 287 288 290 288 289 280 280 279 285 285 283 285 285 286 286 286 287 286 294 293 292 293 293 294 294 293
291 290 289 287 286 285 286 288 290 292 292 293 291 289 288 289 290 289 289 290 292 290 287 287 283 279 275 282 282 278 283 284 285 286 287 283 289 292 291 293 293 292 293 294 294

GFSSW_sfc_thetae_093.txt.gz
Theta_e
317 316 315 316 317 315 313 313 315 314 314 313 313 313 313 314 313 306 300 305 308 317 316 308 307 306 306 303 307 310 297 294 294 293 297 303 304 307 315 316 320 323 323 328 334
316 315 315 316 317 315 314 313 313 315 313 312 312 312 312 312 304 300 308 314 317 315 307 303 300 302 299 300 302 300 295 297 300 302 299 305 303 305 311 315 317 323 330 333 334
316 315 314 314 317 315 314 312 312 315 313 312 312 312 312 308 298 296 313 311 311 314 309 307 303 301 296 299 299 299 295 300 304 308 308 307 303 306 307 306 316 322 326 330 330
317 315 314 315 315 315 314 312 311 314 314 311 312 311 311 303 283 300 313 311 312 308 303 301 300 295 293 293 298 295 300 301 307 309 308 305 307 302 304 306 312 329 330 329 328
317 316 315 314 314 314 312 312 311 312 314 311 311 312 303 294 294 304 311 308 309 307 301 298 295 294 290 292 295 296 299 300 304 306 308 308 304 303 303 311 322 329 330 329 328
318 316 314 313 314 312 312 311 310 311 313 310 310 311 298 286 300 301 302 305 305 303 301 300 296 297 293 294 293 297 299 301 303 304 307 305 303 303 304 313 320 323 324 326 327
317 316 314 313 313 311 310 311 309 310 312 312 309 307 297 293 301 301 307 305 305 304 299 301 302 297 295 293 297 297 295 299 299 303 305 307 301 301 304 309 316 317 321 323 326
317 315 312 312 311 310 310 308 309 311 312 312 310 301 292 303 300 300 305 304 306 305 303 303 303 299 296 298 296 292 294 290 299 301 304 303 296 301 304 302 308 310 314 321 324
317 315 312 312 310 308 308 308 310 311 311 310 300 296 290 305 299 299 298 300 302 303 304 304 301 295 295 289 289 290 286 289 294 300 299 300 297 301 304 303 302 302 309 316 319
317 314 312 311 309 307 309 309 310 308 306 306 302 291 294 293 298 299 301 301 298 298 297 296 295 288 287 288 281 284 287 290 291 298 298 297 296 301 303 302 300 301 304 308 315
316 313 311 310 307 307 305 300 295 292 296 291 292 292 294 298 300 299 301 298 298 294 288 292 287 283 286 290 289 289 288 288 293 299 295 293 295 299 302 302 299 300 300 303 308
315 312 311 309 307 309 303 295 295 295 289 297 295 295 297 298 292 297 301 293 292 286 290 288 284 289 291 290 290 290 288 288 295 298 296 294 293 300 303 301 300 300 301 301 304
314 312 310 308 308 302 298 298 300 298 288 293 296 294 294 297 292 293 298 294 290 287 288 286 289 292 289 288 290 289 289 291 291 296 296 294 290 293 300 303 301 303 302 302 303
313 311 309 309 301 300 296 303 301 298 274 284 290 293 297 297 288 297 299 294 289 287 290 291 294 290 288 290 291 287 295 295 293 291 287 295 282 291 295 297 299 299 299 300 301
312 310 309 308 300 297 300 301 299 291 264 285 289 300 297 293 293 293 300 296 289 291 291 288 291 289 289 292 293 290 296 294 293 290 289 290 285 289 291 292 294 296 297 300 300
311 310 309 305 301 302 301 301 295 273 265 278 290 289 290 293 293 295 296 298 297 293 294 292 296 294 292 295 296 297 294 292 291 289 281 288 286 286 286 291 294 297 296 299 301
310 309 306 304 297 301 301 293 276 267 283 279 282 288 288 287 290 291 291 290 288 284 283 289 289 294 295 292 296 294 289 282 279 280 280 288 285 287 292 294 292 296 296 297 299
309 309 306 305 302 302 295 282 267 280 279 287 286 287 282 287 287 289 287 285 290 287 281 282 277 291 294 291 290 288 287 281 276 275 276 286 282 287 291 292 293 295 295 295 296
309 302 300 301 303 299 287 272 274 280 285 285 285 281 282 286 286 286 284 285 288 290 283 279 283 293 295 295 293 288 285 287 280 279 276 280 283 289 292 292 292 293 293 293 294
301 299 298 302 301 294 282 280 280 288 289 288 281 283 278 281 282 283 284 288 288 290 289 284 280 288 293 296 295 289 290 282 281 277 273 276 279 281 286 289 291 291 290 291 292
300 292 299 302 300 290 278 280 286 293 292 288 285 283 283 282 283 282 284 289 290 290 290 287 282 283 289 286 287 289 285 284 283 279 275 274 278 284 287 289 288 289 292 292 292
296 287 300 300 288 286 281 286 294 291 293 291 290 288 283 284 283 284 284 287 293 291 286 287 284 276 282 289 292 289 286 283 276 276 274 276 278 287 287 288 291 291 294 295 295
293 292 300 300 279 281 285 290 291 290 290 290 289 291 289 286 284 286 287 293 294 291 287 287 280 272 277 282 288 286 287 287 284 281 275 274 278 288 289 290 291 290 292 294 295
292 287 293 295 293 284 286 287 288 293 291 292 289 290 288 286 288 286 286 292 294 292 297 292 282 279 274 279 283 282 284 287 283 274 278 278 282 286 287 288 289 290 292 293 293
290 285 289 285 287 288 286 289 287 287 291 291 288 289 287 284 285 286 288 289 293 295 290 288 280 278 283 284 284 284 284 285 279 283 280 284 284 287 289 290 290 291 293 293 293
289 286 286 284 287 285 285 287 287 288 289 287 287 289 288 286 286 285 288 285 285 289 287 288 279 279 279 284 283 282 284 284 284 285 285 285 285 294 294 291 291 292 293 293 294
290 291 289 287 284 284 284 287 289 291 292 292 290 288 287 288 289 289 288 290 289 288 286 285 282 278 275 281 281 277 281 282 283 285 285 282 287 289 290 292 292 293 293 293 293

GFSSW_sfc_thetae_096.txt.gz
Theta_e
319 318 318 316 317 317 315 314 314 314 314 313 312 313 313 313 313 303 298 304 308 317 315 306 305 304 305 301 305 306 295 293 295 295 296 301 301 306 314 313 315 316 317 324 332
319 318 317 316 316 317 315 314 313 313 315 312 312 313 312 312 303 299 307 314 316 315 305 301 298 300 297 297 300 299 293 293 301 302 298 303 303 304 312 315 316 320 329 327 328
320 319 317 316 315 317 315 314 312 312 315 312 312 312 311 307 296 295 312 313 311 313 307 305 301 299 293 297 296 296 292 297 302 305 307 306 304 306 307 309 316 315 323 324 324
321 320 318 316 315 315 314 313 312 311 314 313 311 311 312 301 281 298 312 311 312 307 303 300 298 292 291 290 296 292 297 299 301 306 306 304 307 302 305 307 312 322 327 326 325
321 320 318 316 314 314 314 312 311 311 313 313 310 312 302 293 293 303 310 308 308 306 299 296 294 292 289 290 293 292 295 300 302 306 305 308 306 303 303 308 323 327 327 324 322
322 319 317 315 314 314 311 312 311 310 311 312 309 310 297 285 297 300 301 303 304 302 298 298 295 295 292 290 291 293 295 296 302 302 303 305 304 303 304 307 320 324 325 325 325
322 319 317 314 314 314 311 310 309 309 310 312 310 306 296 290 299 301 304 303 303 302 298 300 300 296 293 290 295 295 291 294 297 301 299 300 300 300 303 307 314 321 323 325 326
322 318 317 314 313 312 310 309 308 310 311 312 310 300 289 302 300 299 304 303 304 304 302 303 303 298 295 296 293 289 292 287 295 300 301 295 292 299 304 305 305 312 318 322 326
322 318 316 313 313 310 308 308 308 310 310 310 299 295 289 304 298 300 299 298 301 302 303 304 300 294 294 289 285 288 280 285 293 299 297 293 292 300 303 303 302 302 310 317 321
323 318 315 312 311 309 308 309 309 308 306 305 301 290 293 292 297 298 300 300 297 297 297 296 291 289 289 286 278 280 283 286 288 296 296 292 288 295 302 302 300 300 302 308 315
321 317 314 312 310 308 306 300 294 292 295 290 290 291 293 297 299 298 300 297 297 293 287 291 285 283 284 288 287 286 286 287 292 298 294 292 291 295 301 300 300 300 300 303 307
319 315 313 312 309 309 302 294 295 294 288 296 295 294 296 297 292 297 301 291 291 286 289 287 283 289 290 291 289 287 287 289 294 296 294 293 291 295 298 300 301 301 301 301 303
317 314 312 310 309 304 298 298 300 297 287 292 295 293 294 296 292 293 296 293 289 286 285 284 288 292 289 289 288 287 288 290 290 293 296 293 290 292 296 300 300 302 303 301 302
316 313 311 309 301 299 296 301 300 296 274 282 289 293 296 296 288 298 299 294 289 286 289 288 292 289 287 289 291 285 292 293 291 290 286 294 282 290 294 295 297 298 299 301 302
315 312 310 309 300 296 300 300 298 290 263 283 288 299 297 292 292 293 300 296 289 290 290 288 289 288 287 291 292 288 295 293 292 289 289 289 285 288 292 291 293 295 297 299 301
314 311 310 305 302 300 301 299 294 273 264 277 289 288 289 292 293 296 296 298 297 292 294 290 290 291 292 294 295 295 292 290 290 287 280 287 285 286 287 291 293 294 295 298 300
313 310 308 306 297 301 300 292 276 266 281 279 282 287 286 286 289 291 291 291 286 281 282 289 291 295 295 290 295 292 285 278 277 278 277 287 284 287 291 293 292 293 294 295 297
311 310 306 304 302 300 293 283 268 279 278 286 285 286 282 286 286 287 287 285 288 284 278 274 279 290 295 292 290 289 286 278 275 276 277 286 282 285 290 292 292 292 293 294 295
310 304 301 301 302 297 287 273 273 278 284 284 284 281 281 285 285 285 284 284 287 288 279 279 284 293 294 295 293 289 281 285 279 279 276 281 284 288 290 291 291 291 291 291 293
302 300 299 303 300 293 283 280 279 286 288 286 280 281 278 281 282 282 283 287 288 290 287 283 283 289 293 295 294 289 289 280 279 273 272 276 278 281 285 289 290 290 290 291 292
300 294 300 302 298 290 280 279 285 291 291 286 283 281 281 280 281 281 282 288 290 289 288 285 282 284 287 286 286 286 285 283 282 278 275 274 278 284 285 287 289 289 291 291 292
296 287 300 301 288 288 283 285 292 290 292 290 289 286 283 283 282 282 282 285 291 290 285 287 282 280 281 289 291 289 285 282 277 277 274 275 278 285 286 287 290 291 292 292 293
292 292 301 299 282 283 284 288 290 289 289 289 288 289 287 284 282 285 286 292 293 290 285 286 280 272 277 282 286 284 286 285 282 279 274 273 277 288 286 289 290 290 292 293 293
293 286 292 295 291 282 284 286 287 292 290 291 288 289 287 285 287 284 285 291 293 292 296 291 281 278 273 278 282 282 284 285 282 274 277 277 279 284 287 288 289 290 290 292 293
291 286 288 284 287 287 284 288 286 286 290 290 287 287 286 282 282 284 286 288 292 294 289 287 279 277 282 283 284 284 284 283 278 281 278 281 282 286 288 289 290 290 291 293 294
288 285 286 284 287 288 288 285 286 287 288 286 286 287 287 285 284 284 286 284 284 288 285 286 278 279 279 283 283 282 283 283 283 284 284 283 284 290 290 290 291 291 292 292 293
289 290 288 288 283 287 283 287 288 290 290 290 289 287 286 287 288 289 286 289 288 285 285 284 281 278 275 280 280 276 281 281 283 283 284 281 285 287 287 289 290 291 292 292 292

GFSSW_sfc_thetae_099.txt.gz
Theta_e
324 321 320 319 317 317 318 316 315 314 314 314 312 312 312 312 312 304 299 304 309 316 315 307 306 304 306 304 307 308 295 291 294 296 298 304 302 307 314 313 315 315 315 318 328
325 322 320 319 317 317 318 316 315 313 313 314 312 312 312 312 303 299 307 313 315 316 305 301 297 301 298 300 302 298 292 293 300 302 300 303 303 305 310 312 314 313 326 327 325
327 324 321 319 318 317 316 316 314 313 313 315 312 311 311 308 296 295 312 315 311 312 307 305 302 300 295 298 298 298 291 297 298 302 306 306 306 308 306 307 314 312 321 322 322
326 325 322 320 318 316 316 315 313 313 312 314 311 311 311 302 283 299 313 311 314 307 303 300 299 294 292 291 297 292 296 297 299 302 304 303 308 306 305 309 311 318 324 321 322
324 326 322 319 318 314 315 314 313 312 311 314 310 311 303 294 293 303 311 308 308 305 300 297 294 293 288 291 293 292 294 297 301 302 303 306 305 305 306 310 311 321 322 320 320
321 324 322 319 317 314 315 311 312 312 310 312 310 309 298 285 296 302 301 303 305 302 299 299 295 296 291 290 290 293 293 294 297 300 303 301 303 303 307 308 308 318 321 320 320
318 322 321 318 316 315 314 311 310 310 310 312 310 305 296 290 300 302 302 303 304 302 298 300 299 293 294 290 295 293 290 293 294 296 300 301 297 298 305 307 308 314 321 322 322
318 320 321 317 315 314 312 310 309 309 311 312 311 301 290 301 301 301 305 303 305 304 302 303 302 296 292 295 292 288 289 286 293 295 300 299 291 299 301 304 305 311 320 320 323
314 318 320 316 313 312 308 308 308 311 310 311 300 296 289 304 298 300 302 298 301 302 302 303 300 292 293 288 284 287 281 285 290 296 296 296 291 299 300 301 304 306 315 320 321
314 317 319 314 313 312 309 308 309 307 306 304 301 291 293 292 297 298 299 300 297 297 296 295 293 288 288 286 277 281 282 286 288 295 295 291 290 294 298 300 303 305 307 318 319
313 316 316 314 312 311 307 302 295 293 296 290 291 291 293 297 299 297 300 297 297 294 286 291 284 282 284 286 287 287 285 285 291 297 294 292 291 294 297 298 300 304 306 311 318
311 314 315 312 311 310 304 296 295 294 287 295 295 294 296 297 291 296 301 291 291 285 289 286 283 288 289 288 287 284 284 287 293 296 294 293 292 296 297 298 300 303 306 306 309
310 313 313 312 310 306 300 298 301 297 287 291 294 293 294 296 291 293 296 293 288 284 285 283 287 291 289 287 286 283 285 288 288 294 295 293 290 293 297 300 301 304 305 306 307
308 311 312 310 304 300 297 302 301 296 274 282 289 293 296 296 289 298 299 294 290 286 288 286 290 290 287 286 289 284 291 292 291 290 286 294 282 290 295 296 298 300 302 304 306
309 311 311 308 300 297 300 302 297 290 264 282 288 298 296 293 293 294 301 295 289 288 287 287 289 286 287 288 292 288 295 293 292 290 289 289 285 289 293 293 296 298 301 302 304
309 311 310 305 303 302 301 298 293 274 264 277 288 288 289 293 293 296 295 298 297 289 289 287 292 292 292 294 294 296 292 291 291 288 281 287 286 286 290 293 295 297 300 302 304
308 312 308 306 298 302 299 291 276 267 281 279 282 287 286 287 289 291 291 290 286 282 283 288 289 295 295 292 294 292 286 280 278 279 279 286 286 287 292 295 295 296 296 298 301
309 311 307 305 304 300 293 282 268 278 278 286 285 285 283 286 286 287 286 283 288 284 282 282 282 290 295 292 290 289 286 279 275 277 279 287 283 287 291 294 293 294 295 296 298
309 304 302 302 303 298 287 272 273 278 283 284 284 281 281 284 285 285 284 284 287 288 281 283 284 294 295 296 294 288 283 287 280 280 280 281 286 289 291 292 292 292 293 293 295
302 299 299 303 301 293 281 279 279 284 287 286 280 281 279 281 282 282 283 287 287 289 288 286 284 290 293 295 295 291 290 281 281 275 274 279 280 282 286 288 291 292 292 293 294
299 292 300 303 300 288 276 279 285 290 289 285 282 281 280 280 282 281 283 287 289 289 288 285 285 285 290 287 287 288 286 283 282 279 277 275 279 287 286 288 290 292 294 294 295
297 286 301 301 286 284 283 284 292 289 291 289 288 285 283 282 282 282 283 286 292 290 285 287 283 281 284 289 291 289 286 283 279 278 276 278 280 288 289 291 292 293 294 295 296
291 292 301 299 282 283 284 287 289 288 288 288 287 288 286 284 282 284 285 292 292 290 286 287 280 274 279 283 287 286 287 284 283 281 277 277 280 289 290 291 291 292 294 295 295
293 285 291 295 290 282 283 285 285 290 289 291 288 288 286 284 286 284 285 291 293 292 295 290 282 278 274 279 283 283 286 286 282 278 280 279 282 286 288 290 292 292 292 293 294
293 288 290 284 287 283 283 286 285 285 289 289 287 287 285 282 282 283 286 288 291 293 289 287 280 278 282 284 284 285 285 285 279 283 280 282 283 287 289 290 291 292 293 294 295
289 287 287 286 289 284 288 284 285 286 287 285 286 287 286 283 283 284 286 284 284 288 286 286 279 279 279 283 283 283 284 284 285 285 285 285 285 289 290 290 291 291 292 292 293
291 289 287 289 287 287 286 285 288 289 289 289 288 287 286 286 288 287 287 287 287 286 285 284 281 279 276 280 281 278 282 283 284 285 285 282 285 288 288 290 291 291 292 292 293

GFSSW_sfc_thetae_102.txt.gz
Theta_e
325 328 326 322 321 318 318 318 317 314 314 315 314 313 313 313 312 306 300 305 309 315 315 310 308 308 309 305 309 309 297 293 294 296 299 306 305 311 314 310 314 319 317 320 322
323 326 328 323 320 318 317 317 316 314 313 314 314 313 312 312 305 300 306 313 316 317 308 303 300 302 301 301 303 300 294 294 299 300 300 303 306 308 307 308 310 314 320 324 322
321 323 325 323 321 319 317 316 315 314 312 313 314 312 311 311 298 297 312 316 316 312 307 305 302 299 296 299 299 298 293 298 299 302 304 303 305 309 305 304 309 310 316 322 319
318 321 323 325 322 319 316 315 313 312 312 312 314 311 311 304 286 303 314 312 315 311 306 302 299 294 292 292 297 293 297 298 299 302 302 301 307 305 308 307 313 315 320 321 321
314 317 322 324 322 318 313 314 313 313 311 312 312 311 305 296 295 306 311 313 310 306 300 299 295 294 290 291 293 292 294 296 299 300 301 303 303 303 307 312 315 314 316 321 320
314 316 320 323 321 316 313 314 311 312 310 311 312 310 300 289 302 307 305 306 305 304 301 301 297 298 293 292 291 293 293 294 297 298 300 299 302 304 307 309 312 313 315 320 321
313 314 316 322 319 316 314 314 310 310 310 311 312 307 298 295 304 306 305 304 306 304 299 302 302 297 295 291 295 294 290 293 295 296 297 301 297 300 306 307 309 310 313 316 321
312 313 317 318 318 315 314 312 310 309 311 312 312 305 294 303 307 305 306 305 307 306 304 304 304 298 294 296 293 290 290 285 292 296 298 300 290 299 305 305 305 308 311 315 320
311 312 316 318 316 313 311 309 310 309 311 312 305 300 291 305 301 304 305 300 303 304 305 304 302 294 291 287 286 288 282 284 288 297 297 297 293 300 303 302 303 306 306 310 319
310 311 316 317 313 312 310 310 310 308 308 306 303 295 298 294 300 301 303 301 299 299 298 297 295 288 289 285 280 282 283 285 286 293 296 295 295 299 301 300 301 304 306 310 314
309 310 314 314 313 311 308 305 297 296 300 294 295 294 295 300 302 299 302 299 298 295 287 291 286 283 286 289 289 287 285 285 291 294 294 293 294 297 301 301 300 303 305 309 315
308 309 312 314 312 310 305 297 297 299 292 298 298 297 299 300 293 297 303 294 292 287 290 287 283 289 290 290 288 286 286 287 292 296 295 294 294 298 300 299 300 302 305 308 314
308 309 311 313 311 307 302 300 304 302 293 294 297 296 297 298 293 295 298 294 290 287 287 284 287 289 289 286 285 286 286 288 290 295 297 295 292 295 300 301 302 304 305 308 312
308 309 314 311 304 302 299 305 305 302 288 288 292 296 297 298 292 299 299 295 290 287 288 287 290 289 288 286 288 284 290 292 292 292 288 295 285 292 296 298 300 302 304 307 308
307 308 312 308 302 298 302 306 303 299 277 287 291 301 298 295 295 295 301 295 287 287 287 287 288 287 285 288 291 288 293 294 294 291 292 290 288 290 294 294 298 301 304 307 309
307 308 310 305 303 303 305 302 299 285 275 286 292 291 292 294 294 297 296 297 296 288 290 288 294 292 293 294 294 296 292 293 293 291 284 287 287 287 290 293 297 301 304 305 307
307 309 308 307 299 304 302 298 285 280 285 285 287 290 290 290 291 293 292 292 289 285 284 288 290 294 297 292 296 295 290 283 281 283 281 289 288 287 294 297 297 298 299 301 305
307 309 307 305 304 303 300 290 280 282 284 289 289 289 288 290 290 290 291 291 293 290 287 286 284 291 296 294 291 292 290 285 277 279 283 290 284 287 295 296 296 296 298 301 302
306 305 303 302 303 301 294 285 284 284 288 288 288 287 287 289 289 290 290 290 292 292 287 287 285 294 296 297 296 291 287 289 285 287 285 286 288 292 295 295 296 296 299 300 301
302 300 299 303 303 299 292 285 287 287 290 289 285 287 285 287 288 289 289 292 292 294 294 290 285 291 293 298 297 293 292 287 288 281 279 283 285 286 291 292 296 296 298 300 301
300 293 300 304 302 294 286 286 289 292 292 290 287 287 287 287 288 288 289 292 294 294 294 291 291 288 292 291 290 292 290 288 287 286 283 280 284 292 291 293 296 298 299 300 301
297 287 301 302 290 292 288 288 293 291 295 294 292 290 289 289 289 289 288 292 297 295 290 292 291 286 288 293 294 293 290 288 287 282 283 287 285 295 295 297 298 298 299 301 302
293 292 302 301 285 287 289 290 293 292 293 293 292 292 292 290 287 290 291 296 297 295 292 292 288 285 286 290 292 291 292 291 288 289 283 285 285 295 297 297 298 298 299 301 302
295 286 293 296 293 288 288 290 289 295 294 294 293 294 292 290 292 289 290 295 297 295 295 294 288 285 283 285 289 287 290 291 289 289 286 287 287 292 294 294 296 297 299 300 301
296 290 292 286 289 289 290 291 289 289 294 294 292 292 291 288 289 289 292 293 295 294 294 294 286 286 287 288 289 289 289 290 287 288 287 287 288 290 292 294 295 297 298 298 299
292 291 293 290 291 289 290 291 289 291 292 291 291 291 292 290 290 288 291 291 291 294 292 292 287 286 286 288 288 286 288 288 289 289 290 290 288 294 296 297 295 296 296 296 298
296 296 295 289 289 288 290 291 291 294 293 294 293 293 292 292 294 294 295 294 293 292 291 290 289 286 283 285 285 284 285 287 288 289 289 286 289 293 293 293 294 296 296 296 297

GFSSW_sfc_thetae_105.txt.gz
Theta_e
320 323 325 327 325 322 319 318 318 316 314 313 316 314 313 312 313 308 301 307 309 311 317 311 309 307 308 305 308 308 295 292 294 295 297 304 303 310 312 311 312 313 315 321 327
317 320 322 324 325 322 319 317 317 315 313 313 315 313 312 312 306 301 307 311 314 316 311 305 301 303 301 301 303 299 294 294 299 300 299 302 303 305 305 308 308 310 317 324 325
315 315 320 322 325 322 319 317 316 314 313 312 314 312 311 311 300 298 311 313 316 316 308 306 303 300 297 299 300 298 293 298 299 301 302 301 302 306 304 303 307 309 312 320 322
313 315 315 320 323 323 319 316 315 313 312 312 313 312 311 304 288 305 317 316 317 311 306 302 300 295 293 292 298 293 297 298 299 300 300 301 305 303 305 307 311 313 317 319 320
312 314 314 318 320 323 317 314 315 313 312 311 313 312 306 298 297 309 313 315 312 307 301 298 296 294 290 291 293 291 294 297 299 299 300 301 300 302 304 310 312 315 316 317 320
312 312 313 316 319 320 315 315 313 312 311 311 312 311 301 292 303 308 309 308 305 303 301 300 297 298 294 292 291 293 293 293 295 296 299 297 298 301 304 310 311 313 313 316 318
311 312 312 315 318 316 314 315 312 311 310 310 312 309 301 298 304 307 306 304 305 304 299 301 301 297 296 292 296 294 290 292 292 294 295 298 294 296 303 308 308 310 312 314 315
311 311 311 314 316 315 315 314 311 309 309 310 313 306 297 304 306 304 305 304 306 306 304 304 304 299 295 296 293 289 290 285 291 292 295 295 289 297 302 306 306 308 311 311 314
310 310 311 312 315 315 314 311 309 309 311 312 307 303 293 306 300 303 305 301 303 304 305 304 302 296 294 288 284 287 282 285 287 292 294 293 291 298 304 305 304 307 308 309 312
309 309 310 314 316 313 310 310 311 311 309 307 304 295 298 295 301 302 305 303 299 299 298 298 296 289 289 284 279 282 283 285 285 289 292 292 293 299 304 304 304 305 307 309 312
309 309 309 315 313 311 309 306 298 297 300 295 296 295 296 300 303 301 303 301 299 295 289 293 287 283 286 288 288 287 286 284 287 290 292 292 293 297 301 303 302 303 305 308 311
309 309 308 311 312 310 307 298 299 301 293 298 298 298 301 301 295 298 303 295 293 287 291 287 283 289 291 291 289 288 285 285 289 292 292 293 293 297 300 301 302 303 304 307 310
308 308 309 311 311 307 302 300 305 303 294 295 298 298 298 300 295 296 299 296 292 288 288 285 288 291 289 289 287 287 285 286 285 292 295 293 292 295 300 302 303 304 305 307 309
307 308 312 313 304 304 299 305 306 304 290 289 293 297 299 298 293 302 300 296 291 287 289 287 291 289 288 287 288 284 290 287 289 290 286 295 284 292 297 298 301 303 306 308 310
306 307 311 308 304 301 302 307 306 300 280 290 293 303 300 295 297 298 302 295 288 289 287 288 288 287 287 288 290 288 294 290 293 291 292 290 287 290 296 295 298 303 304 308 310
306 308 310 306 304 303 306 307 301 289 278 287 294 293 293 296 297 299 297 297 294 289 290 289 294 292 292 295 293 293 292 290 292 291 285 288 288 288 289 293 298 300 305 307 309
307 308 307 307 299 305 305 299 287 283 287 287 289 293 293 292 293 295 294 291 289 285 286 290 291 295 297 291 293 289 289 284 283 282 282 291 288 288 291 293 297 297 298 306 308
307 309 308 305 305 303 302 291 283 285 286 291 291 292 289 292 292 293 293 290 293 291 290 286 283 289 297 294 290 287 291 284 278 280 283 290 282 286 295 296 297 297 299 302 305
308 305 303 302 304 302 295 287 286 287 290 290 291 289 289 291 291 292 292 291 293 294 288 287 286 296 297 299 297 292 287 291 287 289 284 286 286 293 296 295 297 298 299 300 302
303 301 298 304 304 301 294 286 289 290 292 292 287 290 287 289 290 291 291 295 293 296 295 292 285 293 296 299 299 293 294 288 290 282 279 282 283 285 291 293 296 296 298 300 302
301 294 300 304 303 295 289 289 291 294 294 292 289 289 290 289 291 290 290 294 296 295 297 293 292 290 295 292 290 292 291 291 290 287 283 281 283 293 292 296 296 297 299 300 301
299 288 301 304 292 293 291 291 293 293 297 295 294 293 291 291 290 290 290 293 298 297 292 294 292 287 289 295 295 294 292 291 288 284 288 287 284 296 297 298 299 298 300 301 302
293 293 302 302 288 290 292 292 294 293 295 294 293 294 295 292 289 292 292 298 298 296 293 293 290 285 287 292 294 291 293 293 291 293 286 285 285 297 298 298 298 299 300 301 302
297 287 293 298 296 292 290 291 290 296 296 296 294 296 294 292 294 291 292 296 298 297 296 297 291 288 285 286 290 289 291 292 291 290 288 287 288 292 294 295 297 298 300 300 301
300 291 294 288 291 292 291 293 290 290 296 296 294 294 293 289 291 290 293 294 296 297 296 296 287 288 289 290 290 290 289 291 288 291 287 289 288 291 294 295 296 298 299 299 299
298 294 296 292 293 292 291 292 290 292 294 292 292 294 295 291 292 290 293 293 292 296 294 295 288 288 287 290 290 287 289 291 291 291 291 291 289 295 297 297 296 297 297 297 298
301 301 299 291 292 291 292 293 292 295 295 296 295 295 293 294 297 297 298 297 296 294 293 292 291 288 284 288 287 285 286 289 289 291 291 288 291 295 294 294 295 296 297 295 295

GFSSW_sfc_thetae_108.txt.gz
Theta_e
315 317 318 321 324 326 323 320 319 319 316 313 313 315 313 312 313 309 302 307 310 315 315 311 308 306 307 303 306 307 293 290 292 292 295 301 298 303 309 306 308 309 310 321 325
315 315 315 318 322 325 323 320 318 318 316 312 313 314 313 312 306 301 308 313 314 314 308 305 301 303 298 299 300 297 292 292 297 297 296 299 299 300 300 303 304 307 313 323 323
313 313 315 315 319 322 323 320 319 317 315 312 313 314 312 311 300 300 313 314 316 316 310 306 303 299 294 297 296 296 291 296 297 299 300 298 299 301 300 299 305 304 308 319 321
313 313 313 315 317 321 323 319 318 315 314 312 312 313 312 306 289 308 314 317 318 311 306 301 299 294 292 290 295 290 295 297 297 299 298 296 299 298 301 302 307 310 314 315 317
313 312 312 312 315 319 321 318 317 315 313 312 313 313 307 298 297 312 315 315 313 307 300 297 295 293 289 290 291 288 291 294 296 297 297 298 296 297 299 304 308 312 313 313 317
311 312 312 312 314 317 319 316 317 315 313 313 314 312 302 292 303 310 309 309 306 303 300 300 296 297 292 291 289 291 291 291 293 293 294 294 295 296 298 302 304 309 310 312 314
312 311 311 311 313 318 317 316 314 314 312 312 313 309 301 296 304 306 306 304 305 303 298 301 301 296 295 290 294 292 288 291 291 292 291 294 290 292 298 300 301 307 309 311 312
312 311 311 311 312 317 316 315 313 311 310 311 313 307 297 305 306 304 305 302 305 305 303 304 304 297 294 295 292 288 288 282 290 292 292 291 283 293 297 297 298 303 306 309 312
312 311 310 310 311 313 316 313 311 310 312 312 308 303 294 305 298 302 303 300 302 303 304 303 301 295 294 287 283 286 278 282 285 292 291 288 285 292 296 297 297 301 303 306 308
311 310 310 310 314 315 312 311 311 312 310 309 305 296 297 296 300 302 305 303 299 299 297 297 295 289 289 285 273 278 281 284 283 289 290 286 288 292 296 297 297 300 302 304 306
310 309 310 313 316 311 309 306 300 297 301 294 296 295 297 301 303 300 302 300 298 295 287 292 284 281 284 286 286 285 284 282 286 291 288 285 288 290 298 299 298 300 301 302 306
309 308 309 310 312 312 306 298 299 301 291 298 298 298 300 302 295 298 303 294 292 287 290 287 283 288 289 289 287 286 283 283 288 290 289 286 287 292 295 297 299 300 300 302 305
308 308 308 308 311 307 302 301 306 304 294 294 298 298 299 300 295 296 299 296 291 289 288 285 288 291 289 287 285 286 283 284 284 288 290 288 285 290 295 297 298 300 301 301 305
307 308 309 312 305 304 300 305 307 305 289 288 293 297 299 299 293 302 301 296 291 287 289 287 291 289 288 286 287 282 290 288 285 284 281 288 277 289 294 296 298 297 301 302 307
307 311 311 310 303 299 303 307 307 300 278 291 293 303 300 295 297 296 301 295 289 289 287 287 289 287 285 287 290 285 291 291 287 286 286 287 283 287 295 294 297 300 301 306 310
308 310 309 306 305 304 306 307 301 285 273 285 294 294 293 295 296 297 296 298 296 290 290 289 295 292 290 294 294 293 290 289 286 285 281 287 286 285 288 289 296 298 303 307 310
308 310 308 307 299 305 304 299 285 279 287 285 288 293 292 293 294 295 293 291 289 285 283 289 290 294 295 291 293 290 285 281 280 280 280 288 285 285 292 293 296 296 299 307 309
309 309 306 305 305 304 301 291 279 285 286 292 292 292 290 293 293 294 292 289 294 291 286 283 278 290 297 291 287 288 288 282 277 279 282 288 281 286 293 297 299 299 301 305 306
309 305 302 303 305 304 295 285 282 286 291 290 291 288 289 291 291 292 291 290 292 292 286 286 284 295 296 297 296 291 285 290 285 285 282 285 287 292 293 293 297 298 301 302 302
304 300 299 304 305 301 292 287 287 292 293 292 286 289 286 289 289 290 290 293 292 294 294 290 284 293 296 298 298 293 293 284 285 279 277 282 282 283 288 289 295 295 296 298 300
303 293 300 305 304 294 288 288 291 294 295 292 290 289 289 288 289 288 289 293 295 294 294 292 290 288 294 290 288 290 287 288 287 284 278 277 281 292 291 293 293 295 297 297 298
300 288 301 305 292 293 289 291 294 294 298 295 294 292 290 291 289 288 288 292 297 296 291 292 289 283 286 292 293 292 288 288 280 281 282 281 282 294 294 295 296 296 297 298 299
293 293 303 301 288 289 292 293 294 294 295 294 293 295 294 291 288 290 291 297 297 295 290 291 286 279 281 287 291 289 290 290 289 287 281 278 282 295 293 293 295 295 296 298 299
296 287 294 296 296 290 290 291 290 297 296 296 294 295 293 290 292 289 291 296 297 295 297 295 288 283 277 281 287 284 288 290 288 281 283 282 284 288 290 291 293 294 295 296 297
299 290 293 288 290 292 292 293 290 291 296 296 293 293 291 288 289 289 291 292 295 298 293 293 283 283 286 288 287 286 287 288 285 287 281 285 285 287 289 290 292 294 295 295 295
296 293 294 291 292 291 290 291 291 292 293 292 292 294 293 289 290 288 291 290 289 293 290 293 283 283 281 288 287 284 287 288 288 289 287 287 286 291 291 292 293 293 294 293 292
300 300 296 292 290 289 290 292 292 294 295 296 294 293 291 292 294 294 293 293 291 290 290 289 286 282 278 285 284 280 284 286 286 288 288 284 288 291 290 293 292 293 293 291 290

GFSSW_sfc_thetae_111.txt.gz
Theta_e
314 315 315 316 318 322 325 325 321 321 318 315 313 316 313 313 313 308 302 305 309 315 314 309 307 305 304 299 301 302 291 289 289 291 293 298 296 300 302 299 302 306 313 319 323
314 313 314 315 316 319 323 324 321 321 318 314 313 316 313 312 306 302 308 314 315 314 307 304 298 300 294 295 297 294 289 290 295 295 294 297 296 297 298 299 300 303 319 322 321
312 313 313 313 315 318 321 322 321 320 317 314 314 316 313 311 300 298 314 313 315 316 312 305 301 298 291 292 292 293 289 295 296 298 298 297 296 298 295 295 300 302 307 319 318
313 313 313 312 313 315 319 322 321 319 317 314 314 315 312 306 288 305 314 315 317 313 307 301 297 291 289 287 290 287 292 294 296 298 296 294 296 294 295 296 302 305 312 313 315
313 312 312 312 312 314 318 320 320 318 315 313 314 314 307 297 296 313 318 318 312 308 300 297 293 290 286 287 289 285 288 291 293 294 293 294 291 293 295 298 301 304 308 310 312
313 312 311 312 312 314 315 320 318 316 314 314 315 313 301 288 307 311 311 310 306 304 299 298 295 295 289 288 286 289 290 291 293 292 292 290 290 292 294 297 299 301 302 310 310
312 312 311 311 312 315 318 319 318 315 314 315 314 308 299 292 302 307 307 304 303 303 299 301 300 294 292 288 292 290 286 289 290 292 291 293 287 288 293 296 297 299 301 308 310
312 312 311 311 311 313 318 316 315 314 313 314 314 305 294 304 301 303 302 302 304 304 302 302 301 296 291 292 290 286 285 279 288 291 292 291 282 289 292 294 295 296 298 304 309
311 311 311 311 311 313 316 313 312 312 312 312 305 300 291 305 298 301 301 300 301 301 302 302 300 292 292 284 282 282 275 279 284 291 290 289 284 290 293 293 293 294 296 301 304
310 310 311 311 312 314 312 312 312 311 309 310 306 293 296 295 299 300 300 302 298 298 298 296 291 284 285 284 273 273 278 281 281 287 289 287 286 289 291 291 291 292 295 300 303
309 310 310 316 316 312 310 308 300 298 300 293 294 294 296 300 303 300 302 299 298 293 285 291 283 279 281 284 284 283 281 280 284 289 287 286 286 288 291 292 292 295 293 299 302
309 309 310 314 313 311 306 299 297 297 290 298 298 298 300 302 295 298 302 292 291 284 288 285 282 286 288 288 286 285 283 282 285 288 288 287 285 289 291 292 294 295 297 299 300
308 308 310 313 310 306 302 301 306 302 290 294 297 298 298 299 295 294 298 294 290 288 287 283 286 291 289 287 285 284 282 283 280 287 289 285 282 285 290 293 294 297 299 300 301
309 308 309 311 304 304 301 306 306 302 284 288 292 297 298 298 293 300 301 296 292 286 289 286 291 289 288 286 287 281 287 288 286 283 273 286 275 283 288 290 294 294 296 298 302
310 313 312 310 302 299 303 307 304 297 270 290 293 303 300 295 296 296 301 295 289 289 288 287 288 288 285 285 288 285 289 287 286 284 283 284 281 287 292 290 293 296 295 298 305
310 310 309 305 304 304 306 304 298 281 267 281 294 292 292 294 296 296 295 298 297 290 290 289 295 291 290 292 293 294 289 289 287 285 278 285 282 284 286 289 292 298 298 303 307
311 310 307 307 298 304 302 296 279 270 285 283 285 292 291 291 293 294 292 290 288 283 279 288 289 292 294 291 294 290 285 279 277 277 279 286 283 284 289 294 295 296 297 303 310
309 307 305 304 304 302 298 284 271 282 282 291 291 291 287 291 291 293 291 289 293 291 282 283 276 289 296 291 287 287 287 281 276 277 281 287 281 284 292 297 299 300 302 305 304
307 300 301 303 304 300 289 276 276 282 289 289 289 284 285 290 288 289 288 288 289 289 282 284 281 293 295 297 295 290 286 290 284 285 279 283 286 291 291 294 297 299 299 299 300
299 296 299 303 301 295 284 282 282 290 292 291 283 286 282 285 286 288 287 290 291 293 292 289 283 292 296 298 297 293 294 284 283 278 277 280 282 282 286 289 294 296 297 298 300
296 293 300 302 299 289 279 282 289 293 294 290 287 286 286 285 287 285 286 291 293 292 292 290 289 286 292 289 287 287 286 287 285 283 279 277 281 286 287 293 293 294 297 297 297
294 287 298 301 285 285 283 288 294 292 295 293 291 290 287 288 286 285 286 289 294 293 289 291 287 279 284 291 292 289 287 286 278 279 281 280 281 294 293 294 295 295 297 297 298
290 292 297 297 280 281 288 291 293 292 293 292 291 292 291 288 285 287 288 295 295 292 288 289 283 276 279 284 288 287 289 288 288 283 278 276 282 293 293 293 294 294 295 296 296
291 286 289 290 290 283 286 287 288 294 294 294 292 292 289 287 289 287 288 294 295 293 298 294 285 281 275 280 285 283 286 287 284 276 280 279 281 285 288 290 291 292 293 293 294
293 285 288 279 285 286 287 289 288 288 293 293 290 291 289 285 286 286 289 290 293 296 292 290 281 280 284 287 285 284 285 286 281 284 277 282 283 284 286 287 289 291 292 291 290
293 287 289 286 288 286 288 287 288 290 290 290 289 291 290 286 286 285 288 287 286 291 289 290 281 282 280 285 284 282 285 286 286 286 285 285 284 288 288 290 291 290 290 288 288
299 294 291 288 285 284 285 288 290 292 292 293 292 290 288 290 291 291 290 291 290 287 287 286 283 279 277 282 282 278 282 283 284 286 286 282 286 289 288 291 290 290 289 288 286

GFSSW_sfc_thetae_114.txt.gz
Theta_e
313 314 314 314 315 317 320 324 325 322 320 317 314 316 314 313 312 307 301 305 309 315 313 307 305 303 302 298 300 301 290 286 288 290 292 296 294 297 300 297 300 304 314 319 323
312 313 313 314 314 315 320 322 324 322 320 317 315 317 314 312 305 301 309 314 316 313 306 302 296 298 293 294 296 293 288 289 294 294 292 296 295 296 295 295 297 301 309 320 321
314 312 313 313 312 313 316 321 323 322 320 316 315 317 314 310 299 297 314 313 315 316 312 304 299 296 290 291 290 291 288 293 295 297 297 295 294 296 293 292 295 297 302 314 317
313 314 312 312 312 312 315 318 322 322 319 316 315 316 313 305 288 303 314 315 315 309 304 299 295 290 287 285 289 284 290 292 294 295 294 291 294 291 293 293 299 300 304 307 313
313 313 311 311 312 313 314 317 322 321 318 315 316 315 305 296 296 310 318 315 309 305 298 296 291 289 285 286 288 284 287 291 293 293 292 292 289 289 290 295 298 300 301 301 308
313 312 312 311 311 312 314 317 321 319 316 315 316 313 300 288 306 311 310 309 305 301 298 297 294 294 288 287 285 287 289 289 291 291 292 290 290 290 291 292 296 298 299 300 305
312 312 311 311 311 313 318 320 318 316 315 316 315 308 298 292 301 308 308 303 302 301 298 300 299 293 291 287 291 289 285 287 288 290 289 292 286 287 291 293 293 295 297 300 302
312 310 310 311 311 314 319 318 316 315 315 315 314 304 292 303 302 302 301 301 303 303 301 300 300 294 290 291 289 285 283 278 286 290 291 290 280 288 290 289 290 292 296 298 300
310 310 310 310 311 313 317 316 315 314 315 314 305 299 290 304 298 299 300 299 300 300 301 302 299 291 290 282 277 281 274 277 282 290 289 287 283 290 292 290 290 291 292 295 298
311 309 310 310 312 314 313 313 313 312 310 309 305 292 296 294 297 299 299 301 298 297 296 294 289 282 283 276 270 272 273 278 279 285 287 285 285 290 293 290 288 290 291 292 295
310 310 315 317 313 313 312 307 298 296 298 293 293 293 295 299 301 299 301 298 296 292 284 289 281 278 279 283 282 281 280 279 282 287 285 285 285 288 292 290 287 288 290 292 293
310 313 315 314 313 313 307 299 297 298 290 297 297 297 299 300 294 297 301 292 290 282 287 283 280 285 287 286 284 283 282 281 284 288 286 285 285 289 291 289 289 290 290 294 294
309 310 313 312 310 305 302 301 304 300 288 293 296 297 297 299 294 294 298 294 289 287 287 283 284 291 288 286 284 284 281 281 280 286 288 285 281 285 288 290 291 292 294 296 297
309 310 311 311 304 304 301 305 303 300 279 287 292 297 298 298 292 300 302 296 292 286 288 287 289 287 287 286 286 280 287 286 284 284 274 283 272 282 289 290 289 289 290 294 298
310 309 311 309 300 300 303 305 303 295 268 289 293 303 299 294 295 296 301 296 290 289 287 284 286 287 285 286 288 284 289 287 287 286 284 280 273 283 291 288 290 293 295 294 298
312 312 310 304 301 302 306 303 297 278 268 281 293 291 291 294 295 296 295 298 297 291 290 288 294 290 289 291 291 292 290 288 288 285 276 282 279 284 286 288 290 293 296 298 300
310 309 305 305 295 303 301 294 278 271 284 282 285 291 290 290 292 293 292 290 288 282 277 287 288 291 293 289 294 291 285 278 276 275 275 287 282 284 287 291 295 296 298 302 305
308 306 305 303 301 300 295 282 272 282 281 290 290 290 286 290 290 293 290 287 291 291 283 282 276 288 295 291 286 287 286 281 275 275 279 288 280 283 291 298 299 301 301 302 303
306 298 299 300 302 298 287 275 276 282 288 287 288 283 284 289 289 291 287 286 288 288 281 282 279 293 294 297 293 290 286 290 284 286 278 283 285 289 291 292 296 297 298 299 301
295 295 295 301 300 293 283 282 282 289 291 290 282 285 281 284 284 285 285 289 289 291 291 289 282 291 295 297 296 293 294 283 283 277 273 279 281 281 285 287 292 293 296 298 299
294 289 296 300 297 288 279 281 287 292 293 289 286 284 284 284 285 284 285 289 291 291 292 289 287 286 291 287 286 287 286 286 286 284 277 276 280 287 286 289 291 295 296 296 297
292 283 296 299 286 283 283 287 294 291 294 292 290 288 286 286 285 284 285 288 293 292 287 288 285 279 284 289 290 288 286 285 279 280 281 281 281 293 293 294 295 294 295 295 295
288 287 296 295 280 281 287 290 291 291 291 291 289 291 290 286 283 286 287 294 294 291 287 288 282 275 278 283 287 285 287 286 285 281 278 277 280 292 292 292 292 292 293 293 293
288 281 287 289 288 283 284 286 287 293 292 292 291 291 288 286 288 285 287 292 293 292 298 293 284 280 273 279 283 282 285 285 282 274 278 277 282 284 287 288 290 290 290 289 289
289 284 286 280 285 286 285 288 287 287 292 292 289 289 287 283 285 285 287 289 292 294 291 289 281 279 283 286 285 282 283 284 280 281 277 281 281 284 286 287 288 289 289 287 287
289 289 288 285 287 286 287 285 286 288 289 288 288 290 289 285 285 284 287 286 285 289 287 288 281 282 280 285 283 281 283 285 284 285 284 283 282 287 288 289 289 287 288 286 286
298 294 289 287 284 283 284 288 289 291 291 292 290 289 287 289 290 289 289 289 288 286 286 285 282 279 277 281 281 278 282 282 283 285 285 281 285 287 287 290 289 288 287 285 285

GFSSW_sfc_thetae_117.txt.gz
Theta_e
315 314 314 314 313 315 316 321 324 324 322 318 316 317 315 313 311 305 299 304 308 316 313 305 301 301 300 297 299 299 289 285 287 289 291 295 293 297 298 295 297 300 305 318 322
315 312 312 313 314 312 315 320 323 323 322 318 316 317 315 312 304 300 308 315 316 314 306 298 295 297 292 292 295 292 286 288 293 292 291 294 293 294 293 293 295 297 302 307 321
314 314 312 313 313 312 313 317 322 324 321 318 316 317 315 309 298 297 314 314 317 315 309 302 297 295 290 290 289 290 287 292 293 295 295 294 293 294 291 290 293 293 297 302 308
314 314 313 311 311 312 313 314 319 323 321 317 316 317 314 304 287 302 314 315 315 306 302 297 294 289 286 284 287 283 289 289 291 292 292 289 291 289 291 291 296 298 300 302 302
314 314 313 310 310 311 313 315 318 323 319 317 317 316 305 295 296 309 317 313 305 303 297 295 291 288 283 285 287 283 286 290 292 292 292 292 289 288 289 292 294 298 300 300 301
311 312 312 310 311 311 313 315 317 321 317 317 317 313 299 290 306 311 310 306 302 301 298 296 293 292 288 286 284 287 288 288 290 290 291 289 289 289 289 291 293 294 295 297 299
312 312 311 310 311 312 316 317 320 318 316 317 315 307 295 295 303 307 306 301 301 301 296 298 297 292 289 286 290 288 284 286 286 288 288 290 285 286 289 291 291 292 294 296 298
310 310 310 311 311 315 319 319 317 317 317 316 313 300 291 302 304 304 301 300 302 302 300 299 299 293 289 289 288 284 282 278 284 288 289 288 280 287 291 287 288 290 292 294 297
310 310 310 310 311 315 316 316 316 317 316 314 303 296 289 303 298 298 299 298 299 299 301 302 298 290 289 281 277 280 273 276 281 289 288 286 282 288 292 291 290 291 291 291 294
310 309 309 314 316 317 317 315 315 313 310 306 303 290 294 292 296 298 298 301 297 296 295 294 288 281 280 276 270 272 271 276 278 284 286 283 283 288 290 290 290 290 291 289 292
312 312 312 314 314 314 312 307 299 296 298 293 292 292 295 298 300 297 300 297 295 291 284 288 278 278 278 281 282 280 278 279 282 286 284 283 284 287 290 290 289 288 289 288 291
315 317 314 314 314 312 307 297 297 297 289 296 296 296 298 299 293 296 300 291 289 282 286 284 280 284 286 285 283 281 281 280 283 287 285 284 284 288 290 290 291 289 288 287 290
314 314 313 313 311 306 301 299 303 298 288 292 296 296 296 298 293 294 297 295 290 287 287 284 282 290 288 286 284 283 281 282 280 284 286 284 280 283 290 289 288 289 289 291 293
312 313 312 311 304 302 299 304 302 297 280 286 291 295 297 297 291 300 302 295 291 287 288 286 288 287 285 284 285 280 286 286 284 283 277 285 275 280 287 289 290 289 290 290 292
311 312 310 308 299 298 301 303 302 292 270 288 292 301 298 294 294 296 301 294 287 288 287 281 285 287 285 286 288 282 289 288 287 285 285 282 278 279 288 286 290 291 293 296 296
312 311 309 302 299 300 302 301 294 277 266 280 292 290 291 294 294 296 296 299 297 291 291 289 293 291 289 290 290 291 288 288 288 285 275 281 279 279 285 287 290 292 294 297 301
309 308 304 303 296 302 301 293 277 272 283 282 284 290 289 291 292 293 292 290 288 282 278 288 288 290 292 288 293 291 285 275 272 270 274 285 281 284 288 291 294 296 299 302 304
308 305 303 302 299 298 293 283 272 281 281 288 288 289 285 289 291 292 292 288 290 290 285 280 277 287 292 290 287 287 286 280 274 275 276 286 279 284 291 294 298 300 300 303 303
305 297 296 299 301 296 287 275 276 282 286 286 287 283 283 287 288 291 287 285 288 289 281 280 280 290 293 295 294 289 286 290 283 285 276 281 285 289 291 289 294 296 298 299 302
295 293 294 299 298 292 284 281 282 287 290 289 282 284 280 283 283 284 284 289 289 291 290 286 281 289 293 295 294 292 294 284 282 276 274 278 281 281 285 285 288 291 293 297 297
293 289 296 298 296 288 279 280 287 291 292 288 285 283 283 283 284 283 284 289 291 290 290 287 284 284 288 285 285 285 285 286 285 284 276 275 279 290 287 288 288 291 294 294 294
290 283 296 297 285 282 282 286 294 291 292 291 289 287 285 285 284 283 284 287 292 291 286 288 284 278 283 288 289 287 285 284 277 279 279 279 280 294 293 293 294 292 292 292 291
287 287 295 293 280 281 286 288 290 290 290 289 288 289 289 285 283 285 286 292 293 290 286 287 281 274 278 281 285 284 285 285 284 283 278 276 280 291 292 294 291 289 288 288 288
287 282 287 288 286 282 284 285 286 292 291 291 289 289 287 285 286 284 286 290 292 291 298 292 282 279 273 279 282 281 282 284 281 274 278 278 283 285 286 287 287 286 286 285 286
288 284 286 280 284 283 283 286 286 286 290 290 287 288 286 282 284 283 286 288 290 293 290 287 280 278 282 284 284 283 282 283 278 280 277 280 281 284 286 286 287 288 286 286 285
288 286 285 284 285 284 285 284 285 287 288 287 286 289 287 283 284 282 285 284 284 288 286 286 280 281 280 283 282 281 283 283 283 283 282 282 282 286 287 288 288 286 286 285 284
293 291 288 285 283 282 283 286 288 289 290 290 289 288 286 287 289 289 289 288 287 284 285 284 281 279 276 280 280 277 280 282 282 284 284 280 284 286 286 288 288 287 287 284 284